ECMWFFLT2_850_thetae_027.txt.gz
Theta_e
306 306 307 308 310 312 312 311 312 312 313 314 315 315 315 316 316 317 317 317 317 318 318 318 318 318 318 317 317 317 317 317 316 316 316 316 315 315 316 316 318 318 318 317 316 317 315 314 314 313 312 304
303 303 303 304 305 307 307 307 308 309 310 312 314 313 313 314 315 316 316 316 316 316 317 317 317 317 317 317 317 316 316 316 316 316 315 316 315 314 314 315 317 318 318 318 316 316 315 314 314 313 313 305
299 299 299 300 302 303 303 303 303 304 305 308 311 311 310 311 312 314 314 315 315 315 316 316 316 316 317 317 317 316 316 316 316 315 314 315 315 314 314 314 315 317 317 317 317 316 315 315 314 313 313 309
296 296 296 297 298 299 299 300 300 300 301 303 306 308 308 308 308 309 311 312 313 314 314 315 316 316 316 316 316 317 316 316 315 315 315 314 315 315 314 313 314 316 316 317 317 316 316 315 315 313 312 311
295 295 295 295 296 296 296 297 297 298 298 299 301 302 303 305 305 304 306 307 308 309 310 311 313 314 315 315 315 316 316 316 315 315 315 314 314 315 314 313 314 315 315 316 316 316 315 315 314 314 312 311
293 294 294 294 294 295 295 295 295 296 297 296 297 298 299 300 300 299 300 301 303 304 305 306 308 310 312 313 314 315 315 316 315 315 315 315 314 314 314 314 314 314 314 315 316 315 314 314 314 314 312 311
293 293 293 293 294 294 294 294 294 294 295 295 295 296 297 297 297 296 296 296 297 298 300 302 305 306 308 309 310 312 313 314 315 315 315 314 314 314 313 313 314 313 313 314 315 315 314 314 314 314 313 311
292 293 293 293 293 293 293 293 293 294 294 294 294 294 295 295 295 296 296 296 295 295 296 298 301 303 305 306 307 308 309 311 313 314 314 314 314 313 313 313 314 313 312 313 313 314 314 314 313 313 314 312
292 292 292 293 293 293 293 293 293 293 293 293 294 294 294 294 294 295 296 297 296 296 295 295 297 299 302 303 304 304 304 306 309 311 313 313 313 313 312 312 313 312 312 312 313 313 314 314 314 313 314 313
292 292 292 292 293 293 293 293 292 292 293 293 293 293 293 293 294 294 294 295 296 296 296 295 294 296 297 299 301 302 301 301 304 307 309 311 312 313 313 312 312 312 312 312 311 312 313 314 314 313 313 313
292 292 292 292 292 292 293 293 292 292 292 292 292 292 292 292 292 293 292 293 293 294 295 295 294 294 295 296 297 299 299 299 299 302 304 306 308 310 312 312 313 312 311 311 311 310 311 312 313 313 313 313
292 292 292 292 292 292 292 292 292 292 292 291 291 291 291 291 291 291 291 291 291 291 292 293 294 294 295 295 295 296 297 297 297 297 299 301 304 307 309 310 312 312 311 311 311 310 310 311 311 312 313 313
291 291 291 291 291 291 292 292 292 292 291 291 291 291 290 291 291 291 291 291 291 290 291 291 292 293 294 294 294 295 295 296 296 296 296 297 299 302 304 305 307 310 311 311 311 311 310 310 310 311 312 313
290 290 290 290 290 290 290 291 291 290 290 290 290 290 289 289 289 290 290 290 290 290 290 291 291 292 292 292 293 293 294 295 296 295 295 295 296 297 299 301 302 304 308 311 311 310 311 311 310 310 310 311
287 288 288 288 288 289 289 289 290 290 289 289 289 289 289 288 288 288 288 288 289 289 289 289 289 290 290 290 291 291 292 292 293 294 294 294 294 295 296 297 298 299 301 307 310 310 310 310 311 310 310 310
286 286 286 286 286 286 287 287 288 288 289 289 288 288 288 288 288 287 287 287 287 287 288 288 288 289 289 289 289 290 290 291 291 292 292 293 293 293 294 295 297 297 297 300 306 310 310 310 310 310 310 310
284 284 284 284 284 285 285 286 286 286 287 287 287 288 287 287 287 287 287 287 287 287 287 287 288 288 288 288 289 289 289 290 290 290 291 291 292 292 293 293 294 297 296 296 299 305 309 310 309 309 310 310
283 283 283 283 284 284 284 285 285 285 285 285 286 286 286 286 286 286 286 286 286 286 286 287 287 288 288 288 288 288 289 289 289 289 290 290 291 291 291 292 293 294 296 295 296 299 304 308 309 309 309 310
282 282 282 283 283 283 284 284 285 285 285 285 285 285 285 285 285 285 285 285 285 285 286 286 287 287 288 288 288 288 288 288 288 289 289 289 290 290 290 291 292 293 294 295 296 298 300 304 308 308 308 309
281 281 281 282 282 283 283 283 284 285 285 285 285 285 285 285 285 285 285 285 284 285 285 286 286 287 287 288 288 288 288 288 288 288 288 288 289 289 290 290 291 292 293 294 296 299 299 300 305 308 308 308
281 281 280 280 281 282 283 283 284 284 285 285 285 285 284 284 284 284 284 284 284 284 284 285 286 287 287 288 288 288 288 288 288 288 288 288 288 288 289 289 290 291 292 294 295 299 300 299 301 305 307 308
280 280 279 279 280 280 281 283 283 284 284 284 284 284 284 284 284 283 283 283 283 283 284 284 284 285 286 287 287 288 288 288 288 288 288 288 288 288 288 288 289 290 291 293 295 298 300 301 301 301 304 307
280 279 279 279 279 279 280 281 282 282 283 283 283 284 284 283 283 283 283 283 283 283 283 284 284 284 285 285 286 287 287 288 288 288 288 288 287 287 287 287 288 288 289 291 293 295 298 301 302 301 302 305
279 279 279 279 278 278 278 279 279 280 281 281 282 282 283 283 283 283 283 283 283 283 283 283 283 284 284 285 285 286 287 287 287 288 288 288 287 287 287 287 287 287 288 289 291 293 295 298 301 303 302 302
279 279 279 278 278 277 277 277 278 278 279 280 281 281 282 283 283 283 283 283 283 283 282 283 283 283 284 285 285 285 286 287 287 287 287 287 287 287 287 287 287 287 287 288 289 291 293 295 298 301 303 303
279 279 279 278 278 277 277 277 277 277 277 278 279 280 281 282 283 283 283 283 283 282 282 282 282 283 284 285 285 285 286 286 287 287 287 287 287 287 287 287 287 287 287 287 288 289 291 294 296 298 301 303
279 279 279 278 278 277 277 277 277 277 277 277 277 278 279 281 282 283 283 283 283 282 282 282 282 283 283 284 285 285 286 286 286 287 287 287 287 287 287 287 287 287 287 287 287 288 290 292 295 297 299 302
279 279 279 278 278 277 277 277 277 276 277 277 277 277 278 279 281 282 282 283 283 282 282 281 282 283 283 283 284 284 285 285 286 286 287 287 287 287 286 287 287 287 287 287 287 288 289 292 294 296 298 300
278 278 278 277 277 277 277 276 276 276 276 276 276 276 277 278 279 279 281 282 282 282 281 281 281 282 283 283 283 284 284 285 285 286 286 286 287 286 286 286 287 287 287 287 287 287 289 291 294 296 297 298
278 278 277 277 277 277 276 276 276 276 275 276 275 275 276 277 277 278 278 280 281 281 281 281 281 282 282 283 283 283 284 285 285 286 286 286 286 286 286 287 287 287 287 287 287 287 287 289 292 294 295 296
277 277 277 277 277 276 276 276 275 275 275 275 276 275 275 275 276 277 277 278 279 280 280 280 281 281 282 282 283 283 283 284 285 286 285 286 286 286 286 287 287 287 287 287 287 287 287 287 288 290 291 292

ECMWFFLT2_850_thetae_030.txt.gz
Theta_e
303 304 305 307 307 308 308 308 310 311 312 313 313 313 313 313 314 315 315 316 317 317 318 318 319 319 319 319 318 318 318 318 317 317 317 318 317 317 317 317 317 317 317 318 318 318 318 317 316 315 314 311
300 300 300 302 302 303 304 304 305 307 308 310 311 310 311 311 311 312 313 313 314 315 316 317 317 318 318 318 318 317 318 317 317 317 317 317 316 316 316 316 316 316 316 317 318 318 317 317 316 315 314 312
297 297 297 297 298 299 300 301 302 302 303 305 307 307 307 308 309 309 311 311 312 313 314 315 316 316 317 317 317 317 317 317 317 316 316 316 316 316 316 316 315 315 315 316 317 317 317 317 316 315 315 313
295 295 295 295 295 296 296 298 299 299 299 301 302 303 302 302 304 305 306 308 309 310 311 312 313 314 315 316 316 317 317 317 316 316 316 316 316 316 316 316 316 315 314 315 315 316 317 317 316 315 315 314
293 293 293 294 294 294 294 294 296 297 297 298 298 299 299 298 299 299 300 301 303 305 307 308 309 310 311 313 314 315 316 316 316 316 316 316 315 315 315 315 316 315 314 314 315 316 317 316 316 315 314 314
293 293 293 293 293 293 293 293 294 294 295 295 296 296 297 297 296 296 296 296 297 299 301 303 305 306 307 309 310 310 312 314 315 315 315 315 315 315 315 314 315 315 314 314 314 315 316 316 316 316 314 313
292 293 293 293 293 293 293 293 293 293 293 294 294 294 296 296 296 295 296 296 296 296 296 298 301 302 303 305 307 307 308 309 312 314 314 315 315 315 315 314 314 314 315 314 314 314 315 315 316 315 314 313
292 292 292 293 293 293 293 293 293 294 294 294 293 293 294 295 295 295 295 295 297 297 297 296 297 298 299 301 303 305 305 305 307 309 311 312 314 314 314 314 314 314 314 315 314 313 313 314 315 315 314 313
291 291 291 292 292 292 293 293 293 294 294 294 294 294 294 294 294 295 295 295 295 297 298 298 297 296 297 297 298 301 303 304 304 305 307 309 311 312 313 313 314 313 314 315 314 312 312 313 314 314 314 314
289 290 290 290 291 291 292 292 293 293 293 293 293 293 293 293 294 294 294 294 294 295 296 298 299 298 298 297 296 296 298 300 301 302 303 305 306 307 309 311 313 313 313 314 315 313 312 312 313 314 314 314
288 288 288 289 289 290 290 291 291 291 292 292 292 292 292 292 292 293 293 294 294 294 294 295 296 297 298 298 298 297 296 296 297 298 300 302 303 303 303 306 310 312 312 313 313 313 313 312 312 313 314 314
287 287 287 287 287 287 288 288 288 289 289 290 290 291 291 291 291 291 291 292 293 293 293 293 294 294 295 296 297 297 297 295 294 295 296 298 300 300 300 300 303 307 310 311 312 313 313 312 312 312 312 313
286 286 286 286 286 286 286 286 286 287 287 287 288 289 290 290 290 290 290 290 290 291 292 292 293 293 294 294 294 295 296 296 295 294 294 295 297 298 298 298 298 300 303 307 310 312 312 312 312 312 311 312
286 286 286 285 285 285 285 285 285 285 286 286 286 287 288 288 289 288 288 288 288 289 289 290 291 291 292 292 293 293 293 295 296 294 293 293 294 295 296 297 297 297 297 300 305 309 310 311 312 312 311 311
285 285 285 285 285 285 284 285 285 284 285 285 286 286 286 287 287 287 287 287 287 287 287 288 288 289 289 290 290 291 291 292 293 293 292 292 293 293 294 295 296 296 295 295 298 303 307 309 310 311 311 311
284 284 284 284 284 284 284 284 284 284 284 285 285 285 285 286 286 286 286 286 286 287 287 287 287 287 287 288 288 289 289 290 290 291 291 291 291 292 293 293 294 295 295 294 294 297 301 304 307 309 310 311
283 283 283 283 283 283 283 283 283 283 284 285 286 285 285 285 285 285 285 285 286 286 286 286 286 286 286 287 287 287 288 288 289 289 289 290 290 291 291 292 292 293 294 294 293 294 296 299 302 304 306 309
282 282 282 282 282 282 282 282 282 282 283 284 284 284 284 284 284 285 285 285 285 285 286 286 286 286 286 286 286 287 287 287 288 288 288 289 289 290 290 290 291 292 292 293 293 293 294 296 298 300 301 304
281 281 281 281 281 281 281 281 281 281 282 283 283 284 284 284 284 284 284 284 284 284 285 285 285 285 285 285 286 286 286 287 287 288 288 288 289 289 289 290 290 290 291 292 292 292 293 295 297 298 299 300
280 280 280 280 280 280 280 280 280 280 281 281 282 283 283 284 284 284 284 284 284 284 284 284 284 284 284 285 285 285 286 286 287 287 288 288 288 288 288 289 289 290 290 291 291 292 292 294 296 298 298 299
280 280 280 280 280 280 280 280 280 280 280 280 280 281 282 282 282 282 283 284 284 284 284 284 284 284 284 284 284 285 285 286 287 287 288 288 289 289 288 288 288 289 289 290 290 291 291 292 294 297 299 299
280 279 279 279 279 279 279 279 279 279 279 279 279 279 280 280 280 281 283 284 284 284 284 283 284 283 283 283 284 284 284 285 286 287 287 288 289 289 289 288 288 288 288 289 289 290 291 291 292 295 299 302
279 279 279 279 279 279 279 279 279 279 279 278 278 278 278 279 279 280 281 283 284 284 284 283 283 283 283 283 283 284 284 284 285 286 287 287 288 288 289 288 288 288 288 288 289 289 290 290 291 293 296 301
279 279 279 279 279 279 279 279 279 279 278 278 278 278 278 278 278 279 280 282 283 284 284 284 283 283 283 283 283 283 284 284 285 286 286 287 287 288 288 289 289 289 288 288 288 288 289 289 290 291 293 297
279 279 279 279 279 279 279 279 279 278 278 278 278 278 278 278 278 278 279 281 283 283 283 283 283 283 283 283 283 283 283 284 285 285 286 286 287 287 288 289 289 289 289 288 288 288 288 289 289 290 291 294
279 279 279 279 279 279 279 278 278 278 278 278 278 278 278 277 278 278 278 279 281 282 282 283 283 283 283 284 284 284 284 284 284 285 286 286 287 287 288 288 289 289 289 289 289 289 290 290 290 290 290 291
279 279 279 279 279 279 278 278 278 278 277 277 277 277 277 277 277 277 277 277 279 280 281 281 282 283 283 283 284 284 284 284 284 285 286 286 287 287 288 288 289 289 289 289 289 290 290 291 291 291 291 291
279 279 278 278 278 278 278 278 278 278 278 277 277 277 277 277 277 277 277 277 277 277 278 280 281 282 282 283 283 284 284 285 285 285 286 286 287 287 287 288 289 289 289 288 289 289 290 291 291 292 293 294
279 279 278 278 278 278 278 278 278 278 278 277 277 277 277 277 277 277 276 276 276 276 276 277 279 281 282 282 283 284 284 284 285 285 285 286 286 287 287 288 288 288 289 289 289 289 289 290 291 292 294 295
279 279 278 278 278 277 277 277 277 277 277 277 277 276 276 276 276 276 276 276 276 276 276 277 278 279 281 281 282 283 284 284 284 284 285 285 286 286 286 287 287 288 288 288 289 288 288 289 290 291 293 293
278 278 278 277 277 276 277 276 276 276 276 276 276 276 276 275 275 275 275 275 276 276 277 277 277 278 279 281 282 283 283 283 284 284 284 284 285 285 286 286 287 287 287 288 288 288 288 289 289 289 290 290

ECMWFFLT2_850_thetae_033.txt.gz
Theta_e
298 299 300 301 302 305 307 308 309 311 312 313 313 313 314 314 314 315 316 317 318 318 318 318 318 318 319 320 320 320 320 319 318 318 319 319 319 319 319 320 319 319 320 319 319 319 318 318 318 318 317 315
295 295 296 297 298 300 301 302 304 306 308 309 310 311 312 312 312 313 313 314 315 315 315 315 316 316 317 318 318 319 319 319 318 318 318 319 319 319 319 319 318 318 319 319 318 318 318 318 318 317 317 315
293 293 294 294 295 295 296 297 298 300 302 304 306 307 308 309 309 310 311 311 312 312 312 312 314 314 314 316 317 317 318 318 318 318 318 318 318 318 318 317 317 317 317 318 318 317 317 318 318 318 317 316
292 293 293 293 293 293 294 294 295 296 297 299 300 302 303 304 305 307 308 309 309 309 309 308 309 310 309 311 314 315 315 317 317 317 317 317 317 317 317 317 316 317 317 318 317 316 317 318 317 318 317 316
292 292 292 293 293 293 293 293 293 293 294 295 296 297 298 300 300 301 303 304 305 305 305 304 303 303 303 304 307 310 312 314 316 316 316 316 317 317 316 316 316 316 316 317 317 316 316 317 317 317 317 316
291 291 291 292 292 293 293 293 293 293 293 293 294 294 295 297 298 299 300 300 301 301 301 301 300 299 298 298 300 303 305 309 313 315 315 316 316 316 316 316 315 316 316 317 317 316 315 316 316 317 316 316
290 290 290 290 291 292 292 293 293 293 293 293 293 293 293 294 296 296 298 299 299 300 299 298 298 298 297 296 297 298 300 302 307 310 313 315 315 315 316 315 315 315 316 316 317 315 315 315 316 317 316 316
288 288 288 289 289 290 290 291 292 292 293 293 293 293 293 293 294 294 295 296 297 299 300 299 298 298 297 297 297 297 297 298 301 304 308 312 314 314 315 315 315 315 315 316 316 316 315 314 315 316 316 316
287 288 288 288 288 289 289 289 290 290 291 291 292 293 293 293 293 293 293 293 294 295 298 299 299 299 299 299 298 297 296 297 297 298 301 306 310 312 313 314 314 315 314 314 315 316 315 313 314 315 315 315
287 287 287 287 288 288 287 288 288 288 289 289 290 291 292 292 292 292 293 293 293 293 294 296 296 296 297 297 297 298 298 297 296 296 296 299 303 307 310 312 312 313 314 314 315 315 314 313 313 314 314 315
286 286 287 287 287 287 287 287 287 287 287 289 289 289 290 290 290 290 291 291 292 292 293 293 294 295 295 295 295 296 298 298 297 297 296 296 297 299 303 306 307 310 312 313 314 314 314 313 313 313 313 314
285 286 286 286 287 286 287 287 286 286 287 288 289 288 289 289 288 288 288 289 290 290 291 291 292 293 294 295 294 294 295 296 296 297 297 296 295 295 297 299 300 303 308 310 312 313 313 313 313 312 312 313
285 285 285 286 286 286 286 286 286 286 286 288 289 288 288 288 287 287 287 287 288 288 289 289 290 291 292 293 294 294 294 294 294 295 296 297 297 295 294 295 296 297 300 304 307 310 312 313 313 312 312 311
284 284 285 285 285 285 285 286 286 286 286 287 288 289 288 287 287 287 286 287 286 287 288 288 288 289 290 290 291 293 293 293 294 293 294 295 297 297 295 294 295 295 296 297 299 302 306 310 312 312 312 311
284 284 284 284 285 284 285 285 285 285 285 286 288 289 288 287 287 286 286 286 286 287 287 287 287 288 288 288 289 289 291 292 292 293 293 293 294 296 296 295 294 294 294 294 294 296 298 303 308 311 312 312
284 284 284 284 284 284 284 285 284 284 284 285 287 287 287 286 286 286 287 287 286 286 286 286 287 287 287 288 287 287 288 289 290 291 292 292 292 293 294 295 295 294 294 294 294 294 295 297 301 306 310 312
283 283 284 284 283 283 284 284 284 283 283 285 285 285 286 286 286 286 287 287 286 286 286 286 286 286 287 288 288 288 288 287 289 290 291 291 291 292 293 294 295 295 294 293 293 293 294 295 296 299 305 309
282 282 282 283 283 283 283 283 283 283 283 283 283 284 284 285 285 285 286 286 286 286 286 286 286 287 288 288 288 288 287 287 288 288 288 289 290 291 291 292 293 294 294 293 293 293 293 293 294 295 298 303
281 281 281 281 281 281 281 282 282 282 282 282 282 282 283 283 284 284 284 284 285 286 286 286 286 287 287 288 288 288 287 287 288 288 288 288 289 289 290 291 291 292 293 293 293 293 292 293 293 294 295 297
281 281 280 280 281 281 281 281 281 281 281 281 281 281 281 281 282 282 282 282 283 285 286 286 286 286 287 287 288 288 287 287 288 289 289 289 289 288 289 289 290 290 291 292 292 292 292 292 293 293 294 295
281 281 280 280 280 280 281 281 281 280 280 280 280 280 280 280 280 280 280 280 281 283 285 286 286 286 286 286 287 288 287 288 288 289 290 290 290 290 289 289 289 290 290 290 291 291 291 292 292 293 293 293
281 281 281 281 281 281 281 281 281 280 280 280 279 279 279 279 279 279 279 279 280 281 283 285 285 286 286 286 286 287 287 288 288 288 289 290 290 291 290 290 290 290 290 290 290 290 290 291 291 292 292 292
281 281 281 281 281 281 281 281 281 280 280 280 279 279 279 279 279 279 279 279 279 280 282 283 284 285 285 285 286 286 287 287 287 288 288 289 290 290 290 291 290 290 290 290 290 290 290 290 290 291 291 292
281 281 281 281 281 281 281 281 281 280 280 280 280 279 279 279 279 279 279 279 279 279 281 282 283 284 285 285 285 285 286 287 287 288 288 289 289 290 290 290 290 290 290 290 290 289 289 290 290 290 290 291
281 281 281 281 281 281 280 280 280 280 280 280 280 279 279 279 279 279 279 279 278 279 280 281 282 283 283 284 284 285 285 286 287 287 288 288 288 289 290 290 290 290 291 291 291 290 290 290 291 291 290 290
281 281 281 281 280 280 280 280 280 280 280 280 279 279 279 279 279 279 279 279 279 279 279 279 280 280 281 282 283 284 284 285 286 286 287 287 287 288 289 289 290 290 290 291 291 291 292 292 292 292 291 290
281 281 281 280 280 280 280 280 280 280 279 279 279 279 279 279 279 279 279 279 279 278 278 278 278 278 279 280 281 283 284 284 285 286 286 286 287 287 288 289 289 290 290 290 291 291 291 292 292 292 292 292
281 281 280 280 280 280 280 280 279 279 279 279 279 279 279 279 278 278 278 278 278 278 277 277 277 278 278 279 280 281 282 284 284 285 286 286 287 287 288 288 289 289 290 290 290 291 291 291 292 292 293 293
280 280 280 280 280 279 279 279 279 279 279 279 278 278 278 278 278 278 277 277 277 277 277 277 277 277 278 279 279 280 281 283 284 285 285 286 286 287 287 288 288 289 289 289 290 290 290 291 291 292 293 294
280 279 279 279 279 278 278 278 278 278 278 278 278 277 277 277 277 277 277 277 277 276 277 276 277 277 278 279 279 280 281 282 283 284 285 285 286 286 287 287 288 288 288 289 289 289 290 290 291 291 292 292
278 278 278 277 277 277 277 277 277 277 277 277 277 277 276 276 276 276 276 276 276 276 276 277 277 278 278 278 279 279 280 281 282 283 284 285 285 286 286 286 287 287 288 288 288 289 289 290 290 290 290 290

ECMWFFLT2_850_thetae_036.txt.gz
Theta_e
293 293 294 295 296 297 299 300 302 304 305 307 309 310 311 311 313 313 313 313 314 314 315 317 317 318 318 318 319 319 320 320 319 319 319 319 319 319 319 320 320 320 321 321 321 320 320 319 318 317 318 317
292 292 292 293 293 294 295 296 297 299 300 302 304 306 308 309 309 310 311 312 313 312 312 313 315 316 316 317 317 318 318 319 319 319 319 319 319 319 319 320 320 320 320 320 320 320 320 318 318 317 318 317
292 292 292 292 292 293 293 293 294 295 296 297 299 301 304 305 306 307 307 308 310 310 311 312 312 313 314 314 314 315 317 317 317 318 318 318 318 319 319 319 319 320 319 319 320 319 319 317 317 318 317 317
291 291 291 291 292 292 292 292 293 293 293 294 295 296 299 301 302 303 304 304 305 306 307 309 310 311 312 311 310 312 314 315 316 316 317 318 318 318 318 319 319 319 318 319 319 319 318 316 317 318 317 317
290 290 290 290 290 291 291 292 293 292 293 293 293 294 294 296 298 300 301 302 302 302 303 304 305 306 308 308 307 308 310 312 312 312 315 316 316 317 317 318 318 317 317 318 318 318 317 316 316 317 317 317
289 290 290 290 290 290 290 290 291 292 292 293 293 293 292 293 294 296 297 299 300 300 300 301 302 302 302 304 305 304 304 307 308 309 312 314 315 316 316 317 317 317 317 317 317 318 317 316 315 316 317 317
289 289 290 290 290 290 289 290 290 290 291 291 292 292 292 292 292 293 293 295 296 297 298 299 300 301 300 301 302 301 300 301 302 303 307 311 313 314 315 316 316 316 316 316 317 318 318 316 315 315 316 316
289 289 289 289 289 290 290 290 289 289 289 290 291 291 292 292 291 291 292 292 293 293 294 295 297 300 300 300 300 300 299 299 298 298 299 304 309 311 313 315 315 315 316 316 316 317 318 316 315 315 316 316
289 289 289 289 289 289 290 290 290 289 289 289 290 290 291 291 291 290 291 291 292 292 292 292 293 295 298 300 300 300 300 299 298 298 296 297 301 305 309 312 314 315 315 315 315 317 317 315 315 315 316 316
288 289 289 289 289 289 289 289 289 289 289 289 289 290 290 290 290 290 290 290 290 291 291 292 292 292 293 296 298 299 300 300 299 299 298 296 296 298 302 306 310 313 314 315 315 317 317 315 315 314 315 316
288 288 288 288 289 289 289 289 289 289 289 289 288 289 289 290 290 289 289 289 289 290 290 291 291 291 292 292 294 295 297 299 299 298 299 298 296 296 297 299 303 307 312 314 314 316 316 315 314 313 314 315
288 288 288 288 288 288 288 289 289 288 288 288 288 288 289 289 289 288 288 289 288 289 289 290 290 290 291 291 292 292 293 295 297 297 297 298 298 297 296 296 297 299 305 312 313 314 315 315 313 312 313 314
288 288 287 287 287 287 288 288 288 288 287 287 287 288 289 289 288 287 287 287 287 288 288 289 289 288 289 290 290 291 292 293 294 295 295 296 297 298 296 295 295 295 298 304 309 313 314 314 314 313 312 313
287 287 287 287 287 286 287 287 287 287 287 286 286 287 287 287 287 287 286 286 287 287 288 288 288 288 288 288 289 289 290 291 293 294 295 295 295 296 296 295 295 295 295 296 301 307 311 313 313 313 313 312
285 285 286 286 286 286 286 286 286 286 286 286 286 286 286 286 286 286 286 286 286 286 287 287 287 287 287 287 288 288 288 289 291 292 293 295 295 294 295 294 294 294 294 294 295 299 304 308 311 312 312 313
283 283 283 284 284 284 285 285 285 285 285 285 285 285 285 285 285 285 285 286 286 286 287 286 286 286 286 286 287 288 288 289 289 290 291 293 294 294 294 295 294 293 293 295 294 294 297 300 304 307 310 312
282 282 282 282 282 282 283 283 283 284 284 284 284 284 284 284 284 284 285 285 285 285 285 285 285 286 286 286 286 287 289 289 289 288 288 291 292 294 294 295 295 293 292 294 294 294 294 295 297 301 305 309
282 282 282 282 281 281 281 281 282 282 282 283 283 283 283 283 283 283 284 284 284 284 284 284 284 285 286 286 286 287 288 288 288 287 288 288 289 290 292 294 295 294 293 292 293 295 295 294 294 295 299 303
282 282 282 281 281 281 281 281 281 281 281 281 281 282 282 282 282 282 282 282 282 282 283 283 283 284 285 286 286 286 286 286 287 287 287 287 288 289 290 291 292 294 294 293 292 293 293 294 295 294 295 297
282 282 282 281 281 281 281 281 281 281 281 281 281 280 281 281 281 281 281 281 281 281 281 282 282 282 284 285 286 285 285 286 286 287 287 287 289 290 290 290 290 290 292 293 293 292 292 293 294 295 294 294
282 282 282 282 281 281 281 281 281 281 281 281 281 280 280 280 280 280 280 280 280 280 280 280 281 281 281 283 285 286 285 285 286 287 288 287 288 290 291 291 291 291 290 291 292 292 291 292 293 295 295 294
282 282 282 282 282 282 281 281 281 281 281 281 281 280 280 280 280 280 280 280 280 280 280 280 280 280 280 281 284 285 285 285 286 287 287 287 287 288 290 291 291 291 291 290 290 291 291 291 292 294 295 295
282 282 282 282 282 282 281 281 281 281 281 281 281 280 280 280 280 280 280 279 280 280 280 280 280 280 280 280 282 284 285 285 285 286 286 287 287 287 288 289 289 290 290 290 290 290 290 290 291 292 293 294
281 281 281 282 282 282 281 281 281 281 281 280 280 280 280 280 280 279 279 279 280 279 279 280 280 280 280 280 281 282 283 284 285 285 286 286 287 288 288 289 289 290 290 290 290 289 288 289 290 290 291 292
281 281 281 281 281 281 281 281 281 281 280 280 280 280 280 280 279 279 279 279 279 279 279 279 280 279 279 279 279 279 280 281 283 284 285 286 286 287 288 288 289 290 290 290 290 289 289 288 289 290 290 291
280 280 280 281 281 281 281 281 280 280 280 280 280 280 280 279 279 279 279 279 279 279 278 278 279 278 278 278 278 278 278 278 280 281 283 285 286 286 287 287 288 288 289 290 290 290 290 289 289 289 290 291
280 280 280 280 280 281 281 280 280 280 280 280 279 279 279 279 279 279 279 279 278 278 278 278 278 278 277 277 277 277 277 278 278 279 281 283 284 285 286 286 286 287 288 289 290 290 290 290 290 291 290 291
278 279 279 279 279 279 280 280 279 279 279 279 279 279 279 279 279 278 278 278 278 278 277 277 277 277 277 277 277 277 277 278 279 279 279 281 283 284 285 286 286 287 288 288 289 290 290 290 291 291 291 291
277 277 277 278 278 278 278 279 278 278 278 278 278 278 278 278 278 278 277 277 277 277 277 277 277 277 277 276 276 277 277 278 279 279 279 280 282 284 285 285 286 287 287 288 289 289 290 290 291 291 291 292
275 275 275 275 276 276 277 277 277 277 277 277 277 277 277 277 277 276 276 276 276 276 276 276 276 276 276 276 277 277 278 278 279 279 279 280 281 283 284 285 286 286 287 288 289 289 289 290 290 291 291 291
274 274 274 274 274 275 275 276 276 276 276 276 276 276 276 276 276 275 275 275 275 276 276 276 276 276 276 276 277 277 277 278 278 279 279 279 280 282 283 284 285 286 286 287 288 288 289 289 290 290 291 290

ECMWFFLT2_850_thetae_039.txt.gz
Theta_e
292 292 292 292 293 292 292 293 293 293 294 297 299 301 304 306 308 309 310 311 311 312 312 312 313 314 314 316 318 318 319 319 319 319 320 320 320 319 319 320 320 321 322 322 322 322 321 321 320 319 317 317
291 291 291 291 292 292 292 292 292 292 292 293 294 296 298 301 303 305 306 308 309 309 310 311 311 312 312 313 314 314 315 317 318 318 318 318 320 320 319 320 320 320 321 321 321 321 321 320 319 318 317 317
290 290 290 291 291 291 291 291 292 292 292 292 292 293 294 296 298 300 302 303 305 306 307 308 309 310 311 312 312 312 312 313 315 317 317 317 319 319 319 319 320 320 320 321 321 320 321 320 319 318 317 317
290 290 290 291 291 291 291 291 291 291 291 292 292 292 292 292 294 296 298 299 301 302 303 304 305 306 307 309 311 312 311 311 312 314 316 317 317 318 319 319 319 320 320 320 320 320 320 320 319 318 317 317
290 290 290 290 290 291 291 291 291 291 291 292 292 292 292 292 292 293 294 295 296 297 299 301 302 303 304 305 307 309 310 311 312 311 313 315 316 316 318 319 319 319 319 320 320 320 319 319 319 317 317 317
290 290 290 290 290 290 290 291 291 291 291 291 291 292 292 292 291 291 292 292 293 294 295 297 298 300 302 303 303 305 306 308 310 310 311 312 313 315 316 317 318 319 319 319 320 320 319 319 317 316 317 317
289 289 290 290 290 290 290 290 290 291 291 291 291 291 292 292 292 291 291 291 291 292 292 293 295 297 299 300 301 302 303 304 305 307 309 310 309 310 313 316 317 318 318 318 318 319 319 318 317 316 317 317
290 290 290 290 290 290 290 290 290 290 290 290 290 290 291 292 292 291 291 291 291 291 291 292 292 293 295 296 298 300 301 302 302 303 305 308 307 306 308 313 315 316 317 317 317 318 318 318 317 316 316 317
290 290 290 290 290 290 290 290 290 290 290 290 290 290 291 291 291 291 291 291 291 291 291 291 291 291 292 294 295 296 298 300 301 302 303 304 305 305 304 307 312 314 315 316 316 317 317 317 317 316 316 316
290 290 290 290 290 289 289 290 290 290 290 290 290 290 290 291 291 291 291 291 291 291 291 291 291 291 291 292 292 293 294 296 298 300 302 302 303 304 304 303 306 308 311 314 315 316 317 317 317 316 316 316
289 289 289 289 289 289 288 288 289 289 289 289 289 289 290 290 290 291 291 291 291 291 291 291 291 291 291 291 291 291 292 293 295 296 298 300 301 302 303 303 302 302 303 307 312 315 315 316 316 316 316 316
287 287 287 287 287 287 286 286 286 287 287 287 288 288 289 289 290 290 290 290 291 291 291 291 291 291 291 290 290 290 291 292 293 294 295 296 298 300 302 302 301 300 299 300 305 311 313 313 314 315 316 316
285 285 285 285 285 285 285 285 285 285 285 285 286 287 287 287 288 289 290 290 290 290 291 291 291 291 291 290 289 289 290 290 292 294 294 294 295 297 299 300 301 302 300 298 299 303 307 309 310 311 313 314
284 284 284 283 283 283 283 284 284 284 284 284 284 285 285 285 286 287 288 289 289 289 289 289 290 290 290 290 289 289 289 290 290 292 293 293 294 295 296 298 299 301 301 300 299 299 301 303 305 307 310 312
283 283 283 283 283 283 283 283 283 283 283 283 283 283 283 283 283 284 286 287 287 288 288 288 288 288 289 289 289 288 288 289 289 290 291 291 292 293 295 296 297 299 300 301 300 300 299 299 299 302 306 309
283 283 283 282 282 282 282 282 282 282 282 282 282 282 282 282 282 282 283 284 285 286 287 287 287 286 286 287 287 288 288 288 288 289 290 290 289 291 294 295 296 297 298 300 300 300 299 298 298 298 300 304
283 283 282 282 282 282 282 282 282 282 282 282 282 282 282 282 281 281 282 282 282 283 284 285 285 285 285 285 285 286 287 287 288 288 288 288 288 289 291 293 294 296 297 298 299 299 298 297 297 297 297 300
282 282 282 282 282 282 282 282 282 282 281 281 281 281 281 281 281 281 281 281 281 281 282 282 283 284 284 283 284 285 286 286 287 287 287 287 288 288 288 289 292 293 295 297 298 299 297 296 297 297 296 297
282 282 282 282 282 282 282 282 282 281 281 281 281 281 281 281 281 280 280 280 280 281 281 281 282 282 282 282 282 283 284 285 286 286 286 286 287 288 288 288 290 291 293 294 296 298 298 296 296 297 297 296
282 281 281 281 281 281 281 282 281 281 281 281 281 281 281 281 280 280 280 280 280 280 280 280 280 281 281 281 281 282 283 284 285 286 286 286 286 287 288 288 289 290 291 292 293 295 297 298 297 296 296 296
281 281 281 281 281 281 281 281 281 281 281 281 281 281 281 280 280 280 280 280 280 279 279 280 280 280 280 280 281 281 282 283 284 285 285 286 286 287 287 288 288 289 290 291 291 292 294 297 298 298 296 296
280 280 280 280 281 281 281 281 281 281 281 281 281 280 280 280 280 280 280 280 279 279 279 279 279 279 280 280 280 280 281 282 283 285 285 285 285 286 287 287 288 289 290 291 291 291 292 293 296 298 297 296
279 279 279 280 280 280 281 281 281 281 281 281 281 280 280 280 280 280 280 280 279 279 279 279 279 279 279 279 280 280 280 280 281 282 284 285 285 285 286 286 287 288 289 289 290 290 290 290 292 295 297 296
279 279 279 279 280 280 280 280 280 280 280 280 280 280 280 280 280 280 280 279 279 279 279 278 278 278 278 278 278 279 279 279 279 280 280 282 284 285 285 286 286 287 288 288 288 289 288 288 289 291 294 296
278 278 278 279 279 279 279 279 279 280 280 280 280 280 280 280 280 280 279 279 279 279 279 278 278 278 278 278 278 278 278 278 278 278 278 279 280 283 284 285 286 286 287 288 288 288 289 288 289 289 291 293
277 277 277 277 278 278 278 278 278 278 279 279 280 280 280 280 279 279 279 279 279 279 279 279 278 278 278 278 278 277 277 277 277 277 278 278 278 280 281 283 285 285 286 286 287 288 289 289 289 289 289 290
276 276 277 277 277 277 277 277 277 277 278 279 279 279 279 279 279 279 278 278 278 278 278 278 278 278 278 277 277 277 277 277 276 277 277 278 278 279 279 280 282 284 285 285 286 286 287 288 289 289 289 289
276 276 276 276 276 276 275 275 275 275 276 277 278 278 278 278 278 278 278 278 278 278 278 278 278 277 277 277 277 276 276 276 276 276 277 278 278 279 279 279 280 282 284 285 285 286 286 288 289 289 289 290
275 275 275 274 274 274 274 274 274 275 275 276 276 277 277 277 277 277 277 277 277 277 277 277 277 277 276 276 276 276 276 276 276 276 277 278 278 279 279 279 279 280 282 284 285 285 286 287 288 289 290 290
274 274 273 273 272 272 272 273 273 274 274 274 275 275 275 276 276 276 276 276 276 276 276 276 276 275 275 276 276 276 276 276 276 276 277 277 278 278 278 279 279 280 281 283 284 285 286 286 287 288 289 289
273 272 272 272 271 271 272 273 273 273 273 274 274 274 275 275 275 275 275 275 275 275 275 274 275 275 275 275 275 275 275 275 275 276 276 277 277 277 277 278 279 279 280 281 283 284 285 286 287 287 288 288

ECMWFFLT2_850_thetae_042.txt.gz
Theta_e
291 291 291 291 291 291 291 291 291 292 292 291 291 292 294 296 299 300 300 301 304 307 308 308 308 308 309 311 312 312 314 315 316 317 318 318 319 320 320 321 321 322 322 323 323 323 323 322 322 321 320 319
290 290 290 290 290 290 290 291 291 291 291 292 292 292 292 292 294 296 297 298 299 303 305 306 306 306 307 308 310 310 311 312 312 314 316 317 318 319 320 320 320 321 322 322 323 322 322 322 321 321 320 319
290 290 290 290 290 290 290 290 290 291 291 291 292 292 292 292 292 292 293 294 295 298 300 302 304 304 305 306 308 309 309 310 311 312 314 315 316 317 319 320 320 320 321 322 322 321 320 320 321 320 320 319
290 290 290 290 290 290 290 290 290 290 290 290 291 291 292 292 292 292 292 292 293 293 294 297 300 301 303 305 306 307 307 308 308 310 312 313 314 316 317 318 319 320 320 321 322 321 319 318 319 319 319 319
290 290 290 291 290 291 290 290 290 290 290 290 290 291 291 292 292 292 292 292 292 292 291 292 294 296 298 301 303 304 305 306 306 308 310 312 313 314 315 317 318 319 320 320 321 321 319 318 318 317 317 318
289 289 290 290 291 291 291 291 291 291 290 290 290 290 291 291 291 292 292 292 292 291 291 291 291 292 293 295 298 300 302 304 304 306 307 309 311 312 313 314 316 318 319 319 320 320 319 318 316 315 316 316
288 288 288 289 290 290 291 291 291 291 291 290 290 290 290 291 291 291 291 291 292 291 292 291 291 291 290 291 292 295 298 300 302 303 304 306 308 310 311 312 313 316 318 319 319 319 319 318 315 314 314 315
287 287 287 287 288 288 289 290 291 291 291 291 290 290 290 290 290 291 291 291 291 292 292 292 292 291 291 290 290 291 293 296 299 301 302 303 305 306 309 311 312 313 315 317 318 318 318 317 316 314 313 314
286 286 286 286 286 287 287 287 288 289 289 290 290 290 289 289 289 290 290 291 291 292 292 292 292 292 292 291 291 291 291 292 295 297 299 301 303 304 306 308 310 311 311 313 314 314 316 317 316 314 312 313
285 285 285 285 285 285 285 285 286 286 287 287 288 288 288 289 289 289 290 290 291 291 291 292 292 292 292 292 291 291 291 291 292 294 296 298 301 303 304 305 308 309 309 309 309 310 312 314 316 315 313 312
284 284 284 284 284 284 284 284 284 284 284 285 285 285 286 287 288 288 289 290 290 291 291 291 291 291 292 291 291 291 291 291 291 292 294 296 297 299 301 303 305 306 307 307 307 307 308 310 314 315 314 312
284 283 283 283 283 283 283 283 283 283 283 283 284 284 284 284 285 286 288 288 289 289 290 290 290 291 291 291 291 291 291 291 291 291 292 293 295 296 298 300 303 304 305 306 306 306 304 305 309 312 313 312
284 283 283 283 283 282 282 282 282 282 282 282 283 283 283 283 283 284 285 286 287 287 288 288 289 290 290 291 291 291 291 291 291 291 291 291 293 294 295 297 299 302 303 304 305 305 304 303 304 307 310 311
283 283 283 283 283 282 282 282 282 282 282 282 282 282 282 282 282 283 283 284 284 285 285 286 287 288 288 289 289 290 290 290 290 291 291 291 291 292 293 294 296 298 300 301 302 304 305 304 303 303 304 308
283 283 283 283 282 282 282 282 282 282 282 282 281 281 281 281 282 282 282 282 283 283 283 284 284 285 286 286 287 288 289 289 289 290 290 291 290 291 291 293 293 295 297 298 300 301 304 305 304 302 301 303
282 282 282 282 282 282 282 282 282 282 282 281 281 281 281 281 281 281 281 282 282 282 282 283 283 283 283 284 285 286 287 287 288 288 289 289 290 290 290 290 291 292 294 296 297 298 301 304 304 303 302 300
282 282 282 282 281 281 282 282 281 281 281 281 281 281 281 281 281 281 281 281 281 281 282 282 282 282 282 283 283 283 284 285 286 287 288 288 289 289 289 289 290 290 292 294 295 296 298 301 302 303 303 301
282 282 281 281 281 281 281 281 281 281 281 281 281 281 281 281 281 281 281 280 280 280 281 281 281 281 281 282 282 282 282 283 284 285 286 287 288 288 289 289 289 289 290 292 293 295 296 297 299 301 303 303
281 281 281 281 281 281 281 281 281 281 281 281 281 281 281 281 280 280 280 280 280 280 280 280 280 280 281 281 281 281 281 282 282 283 284 285 286 287 288 288 288 288 289 290 292 293 294 295 296 298 301 302
280 280 280 280 280 280 281 281 281 281 281 281 281 281 280 280 280 280 280 280 280 280 280 280 280 280 280 280 280 280 281 281 281 281 282 283 285 286 287 287 288 288 289 289 290 291 293 294 294 295 298 300
280 280 280 279 279 279 280 280 280 280 281 281 280 280 280 280 280 280 280 280 280 280 280 280 280 279 279 280 280 280 280 280 280 280 281 282 283 284 285 286 287 287 288 288 289 290 291 292 294 294 295 298
279 279 279 278 278 279 279 279 279 280 280 280 280 280 280 280 279 279 280 280 280 280 280 280 279 279 279 279 279 279 280 280 280 280 280 280 281 281 283 284 285 286 287 287 288 289 290 291 292 294 294 295
278 278 278 277 278 278 278 279 279 279 280 280 280 280 279 279 279 279 279 279 279 279 280 279 279 279 279 279 279 279 279 279 279 280 280 280 280 280 280 281 283 284 286 286 287 288 289 290 291 292 293 294
278 277 277 277 277 277 277 278 278 278 278 279 279 279 279 279 278 279 279 279 279 279 279 279 279 279 279 279 279 278 279 279 279 279 279 279 279 279 280 280 280 282 284 285 286 287 288 289 290 290 292 293
277 277 276 276 276 276 276 276 276 276 277 277 278 278 278 278 278 278 278 279 279 279 279 279 279 279 279 278 278 278 278 278 278 278 278 278 278 278 278 279 279 280 281 283 285 286 287 288 289 290 290 290
276 276 276 276 275 275 275 275 275 275 275 276 276 276 276 277 278 278 278 278 278 279 279 279 279 278 278 278 278 278 278 278 278 278 278 278 277 277 277 278 279 279 280 281 282 283 286 288 289 289 289 289
276 275 275 275 275 274 274 274 274 274 274 275 275 275 276 277 278 278 278 278 278 278 278 278 278 278 278 277 277 277 277 277 277 277 277 277 277 277 277 277 278 278 279 279 280 281 283 286 288 289 289 289
275 275 275 274 274 274 273 273 273 273 273 274 274 275 275 276 276 277 278 278 278 278 278 278 277 277 277 276 276 276 276 276 276 276 276 276 276 276 276 277 277 278 279 279 279 280 282 283 285 287 289 289
275 275 274 274 274 274 274 274 273 273 273 273 274 274 275 275 276 276 277 277 277 277 277 277 277 276 276 275 275 275 275 275 275 275 276 276 276 276 276 276 276 277 278 278 279 279 280 281 283 285 287 288
275 275 274 273 273 273 273 273 273 272 273 273 273 274 274 275 275 275 276 276 276 276 276 276 276 275 275 274 274 274 274 274 275 275 275 275 275 275 276 276 276 276 277 278 278 279 279 280 281 283 284 285
275 274 273 273 273 273 272 272 273 273 273 273 273 273 274 274 275 275 275 275 275 276 275 275 275 274 274 274 273 273 273 273 273 274 274 274 274 275 275 275 275 276 276 277 277 278 279 279 280 281 283 284

ECMWFFLT2_850_thetae_045.txt.gz
Theta_e
290 290 290 290 290 290 291 291 291 291 291 291 291 291 291 292 293 293 292 293 296 297 298 300 301 302 301 300 301 304 307 308 310 311 312 314 316 318 320 320 321 323 323 323 324 324 324 322 320 319 319 319
290 290 290 290 290 290 290 291 291 290 291 291 291 291 291 291 292 293 292 292 293 294 294 296 297 299 300 300 300 302 304 305 307 309 310 311 313 316 317 318 319 321 322 323 323 324 324 321 319 318 318 318
289 289 289 289 289 289 290 290 290 290 290 290 291 291 291 291 291 292 293 292 292 292 292 293 294 294 297 299 300 301 303 304 304 306 308 309 310 312 314 316 317 318 320 322 323 323 324 322 319 318 318 317
288 288 289 289 289 289 289 289 289 289 289 289 289 290 291 291 291 291 292 293 292 292 292 292 292 292 293 294 297 299 302 303 303 303 305 307 308 309 311 313 314 316 317 319 321 322 323 321 319 319 319 317
287 287 287 288 288 288 288 288 288 288 289 289 288 288 289 290 291 291 291 292 292 292 292 292 292 292 292 292 293 295 299 302 302 302 303 305 306 307 309 310 312 313 314 316 319 321 321 320 320 320 320 316
286 286 286 286 286 287 287 287 287 287 287 287 288 287 287 288 289 290 291 291 291 292 292 291 292 292 291 291 291 292 294 297 300 301 301 303 305 305 306 308 309 310 311 312 315 318 318 319 320 319 318 316
285 285 285 285 285 285 285 286 286 286 286 286 286 286 286 286 287 288 289 290 290 291 291 291 291 292 291 291 291 291 292 293 295 297 299 301 303 304 305 306 307 308 309 309 311 314 316 318 319 317 317 317
284 284 284 284 284 284 284 284 285 285 285 285 285 285 285 285 285 285 286 288 289 289 290 291 291 291 291 291 291 291 292 292 292 293 295 297 300 302 303 305 305 305 306 307 308 310 313 316 316 316 317 317
283 284 284 284 284 283 283 284 284 284 284 284 284 284 284 284 284 284 284 285 287 288 289 290 290 290 291 291 291 291 291 292 292 291 291 293 295 298 301 303 304 304 304 305 306 307 309 312 313 315 317 317
283 283 283 283 283 283 283 283 283 283 283 283 283 283 283 283 283 283 283 283 284 285 286 288 289 289 290 290 291 291 291 291 291 291 291 291 292 294 298 301 302 303 303 302 303 305 306 307 309 312 314 315
283 283 283 283 283 283 283 283 283 283 283 282 282 282 282 282 282 282 282 283 283 283 284 285 287 288 288 289 290 290 290 290 290 291 291 291 291 291 293 297 299 301 302 302 302 303 304 305 307 309 311 312
283 283 283 283 283 283 283 283 283 282 282 282 282 282 282 282 282 282 282 282 282 282 283 283 284 285 286 287 288 289 289 289 290 290 291 291 291 291 291 293 296 298 300 300 301 302 303 304 305 307 308 309
283 283 283 283 282 282 282 282 282 282 282 282 282 282 282 282 281 281 281 281 281 282 282 282 283 283 284 285 286 287 288 288 289 289 290 290 291 291 290 291 292 295 297 298 299 301 302 302 303 305 307 307
282 282 282 282 282 282 282 282 282 282 282 282 282 281 281 281 281 281 281 281 281 281 281 282 282 282 283 283 284 285 286 287 288 288 289 289 290 290 290 290 290 291 293 295 296 297 300 301 302 304 306 307
282 282 282 282 282 282 281 281 281 281 281 281 281 281 281 281 281 281 281 281 281 281 281 281 281 282 282 282 283 284 284 285 286 286 287 288 288 289 289 290 290 289 290 292 293 295 296 299 301 303 305 306
282 282 282 282 281 281 281 280 280 281 281 281 281 281 281 281 281 281 281 280 280 280 280 281 281 281 281 282 282 282 283 283 284 285 285 286 287 287 288 288 289 289 289 289 290 292 293 295 298 301 303 305
282 282 281 281 281 281 280 280 280 280 280 280 281 281 281 281 281 281 280 280 280 280 280 280 280 281 281 281 281 281 281 282 282 283 284 284 285 286 287 288 288 288 288 289 289 290 291 293 295 298 301 302
281 281 281 281 280 280 280 280 280 280 280 280 280 281 281 281 281 281 280 280 280 280 280 280 280 280 280 281 281 281 281 281 281 282 282 283 284 285 286 287 288 288 289 289 289 289 290 291 292 295 297 300
281 280 280 280 280 279 279 279 279 279 279 279 279 280 281 281 280 280 280 280 280 280 280 280 280 280 280 280 281 281 281 281 280 281 281 282 283 284 285 285 286 287 288 289 289 289 289 290 291 292 294 297
280 280 279 279 279 279 279 279 278 278 278 278 279 280 280 280 280 280 280 280 280 280 280 279 280 280 280 280 280 280 280 280 280 280 280 281 281 282 283 284 285 286 287 288 289 289 289 289 290 291 292 294
279 279 279 279 279 278 278 278 278 277 277 278 279 279 279 279 280 280 279 279 279 279 279 279 279 279 279 280 280 280 280 280 280 280 280 280 280 280 281 282 283 284 285 287 288 289 289 290 290 290 291 292
279 279 279 278 278 278 277 277 277 277 277 277 278 279 279 279 279 279 279 279 279 279 279 279 279 279 279 279 279 280 280 280 280 280 280 280 280 280 280 280 281 282 283 285 287 289 289 289 290 290 290 291
278 278 278 278 278 278 277 277 278 277 277 277 277 277 278 278 278 278 278 278 279 279 279 279 279 279 279 279 279 279 280 280 280 279 279 279 280 280 279 279 280 281 281 283 285 287 289 290 290 290 290 290
278 278 278 278 278 278 277 278 278 278 277 276 276 276 277 277 277 277 278 278 278 278 279 279 279 279 279 279 279 279 279 279 279 279 279 279 279 279 279 279 279 279 280 281 283 284 287 289 290 290 290 290
277 277 277 277 278 278 277 278 278 277 277 276 276 276 276 276 276 276 277 278 278 278 278 278 278 279 279 279 279 279 279 279 279 279 279 279 279 279 278 278 279 279 279 280 281 283 285 288 288 289 289 289
277 277 277 277 277 277 277 277 277 276 276 275 275 275 275 275 275 275 276 277 277 277 278 278 278 278 279 279 279 279 279 279 279 279 279 278 278 278 277 277 278 278 278 279 279 281 283 286 287 288 287 287
277 277 277 277 277 277 277 277 276 275 275 274 274 274 274 274 274 275 275 276 276 277 277 277 278 278 278 278 278 279 279 279 278 278 278 277 277 277 277 277 277 277 277 277 278 278 280 282 285 287 288 287
277 277 277 277 277 277 276 276 276 275 275 275 274 274 274 274 274 274 274 275 275 276 276 277 277 277 277 277 278 277 277 277 277 277 276 276 276 275 276 276 276 276 277 277 277 277 278 279 280 283 286 287
277 277 277 277 277 277 277 277 276 276 276 275 275 274 274 274 274 274 274 274 275 275 276 276 276 276 276 276 276 276 276 276 276 275 275 274 274 274 275 275 275 276 276 276 276 276 277 278 279 280 283 285
276 277 277 277 277 278 278 278 277 276 276 276 276 275 275 275 274 274 274 274 275 275 276 276 276 276 276 276 276 276 275 275 275 275 274 274 274 274 274 274 275 275 275 276 276 276 276 276 278 279 280 281
276 276 277 277 277 278 278 278 277 277 276 276 276 276 276 275 275 275 275 275 275 276 276 276 276 276 276 276 275 275 275 275 275 274 274 273 273 274 274 274 274 274 275 275 275 276 276 276 276 276 277 278

ECMWFFLT2_850_thetae_048.txt.gz
Theta_e
289 288 288 288 288 289 289 289 289 289 289 289 289 289 288 288 288 289 289 290 291 292 292 294 295 296 296 296 297 298 299 301 302 302 303 302 302 304 307 311 313 316 320 322 323 324 324 322 319 318 320 322
288 288 287 287 287 287 288 288 288 288 288 288 288 288 288 287 287 287 288 288 290 291 292 292 294 295 295 295 295 296 298 300 301 301 302 302 302 302 304 308 310 312 316 318 321 323 323 322 320 317 317 319
286 286 286 286 286 286 286 286 287 287 287 287 287 287 287 287 286 286 286 287 288 290 291 291 292 294 294 295 294 294 296 298 299 300 301 302 302 302 302 304 306 309 311 314 316 319 321 320 319 318 316 317
285 285 285 285 285 285 285 285 286 286 286 286 286 286 286 286 286 285 285 285 286 287 289 290 291 292 293 294 294 294 294 295 297 298 299 300 301 302 302 303 304 305 307 310 312 314 318 318 317 318 316 315
284 285 284 284 284 284 284 284 285 285 285 285 285 285 285 285 285 285 284 284 285 285 287 288 289 290 292 293 293 293 293 294 294 295 297 299 300 301 302 303 303 303 304 307 309 311 313 315 316 317 316 314
284 284 284 284 284 284 283 284 284 284 284 284 284 284 284 284 284 284 283 283 284 284 285 286 286 287 289 291 292 293 293 293 293 293 294 296 298 300 301 302 303 303 303 304 306 308 310 313 314 315 315 314
283 283 283 283 283 283 283 283 283 283 283 283 283 283 283 283 283 283 283 283 283 283 283 284 285 285 286 288 290 291 292 293 293 293 293 294 295 297 299 301 302 302 302 303 304 305 307 309 312 313 313 314
283 283 283 283 283 283 283 283 283 283 283 283 283 283 283 283 283 283 282 282 282 282 283 283 284 284 285 286 287 289 291 292 293 293 293 293 293 294 296 298 300 300 301 302 303 304 305 306 308 310 312 312
283 283 283 283 283 283 283 283 283 283 283 283 282 282 282 282 282 282 282 282 282 282 282 283 283 283 284 284 285 286 288 290 292 292 293 293 293 293 293 295 296 298 298 300 302 303 304 305 305 307 309 310
282 282 282 282 283 283 282 282 282 282 282 282 282 282 282 282 282 282 282 281 281 281 282 282 282 283 283 283 284 284 285 287 289 291 292 292 292 292 292 293 293 294 295 297 299 302 303 304 304 305 306 308
282 282 282 282 282 282 282 282 282 282 282 282 282 281 281 281 281 281 281 281 281 281 281 281 282 282 282 282 283 283 283 285 286 288 289 291 291 292 292 292 292 292 292 294 297 299 302 303 304 304 304 305
282 282 282 282 282 282 282 282 282 282 282 281 281 281 281 281 281 281 281 281 281 281 281 281 281 282 282 282 282 282 282 283 284 285 287 288 289 291 292 292 292 292 291 291 294 297 299 301 303 304 304 305
282 282 282 282 282 282 282 282 282 281 281 281 281 281 281 281 281 281 281 281 281 281 281 281 281 281 282 282 281 281 282 282 282 283 285 286 287 288 290 291 292 292 291 291 291 294 296 298 301 303 304 304
281 281 281 282 282 282 281 281 281 281 281 281 280 280 280 280 280 280 281 281 281 281 281 281 281 281 281 282 282 281 281 281 282 282 283 284 285 286 288 289 290 291 292 291 290 292 293 295 298 301 302 303
281 281 281 281 281 281 280 280 280 280 281 280 280 280 280 280 280 280 280 281 281 281 281 280 280 281 281 281 281 281 281 281 281 281 281 282 283 284 285 287 288 289 291 292 291 290 291 293 294 298 300 302
281 281 280 280 280 280 280 280 280 280 280 280 280 280 279 279 279 279 280 281 281 281 280 280 280 280 280 280 281 281 281 281 281 281 281 281 281 282 283 284 285 286 288 291 292 290 290 291 292 294 297 300
280 280 280 280 280 280 279 279 280 280 280 280 280 279 279 279 279 279 280 280 280 280 280 280 280 280 280 280 280 281 281 281 281 281 281 281 281 281 282 282 284 285 286 288 290 291 290 290 290 291 293 296
280 280 280 280 280 279 279 279 279 279 280 280 279 279 278 278 278 279 279 280 280 280 280 280 280 280 280 280 280 280 280 281 281 281 281 281 281 281 281 282 282 283 284 285 287 290 291 290 290 290 291 292
280 280 280 280 280 279 279 279 279 279 279 279 279 279 278 278 278 279 279 279 280 279 279 279 279 279 279 279 280 280 280 280 281 281 281 281 281 281 281 281 281 282 283 284 285 287 290 291 291 290 290 290
280 280 280 280 280 280 280 280 280 279 279 279 279 279 278 278 278 279 279 279 279 279 279 279 279 279 279 279 279 279 279 280 280 280 280 281 280 281 281 281 281 281 282 283 284 285 287 289 291 292 291 291
280 280 280 280 280 280 280 280 280 279 279 279 279 279 278 278 278 278 279 279 279 279 279 279 279 279 279 279 279 279 279 279 280 280 280 280 280 280 280 281 281 281 281 282 283 284 285 287 289 291 292 292
279 279 280 280 280 281 281 280 280 279 279 279 279 279 278 278 278 278 278 278 279 279 278 278 278 278 279 279 279 279 279 279 279 279 280 280 280 280 280 280 281 281 281 281 282 283 284 285 287 289 291 292
279 279 279 280 280 281 281 280 280 279 279 279 279 279 279 278 278 278 277 277 278 278 278 278 278 278 278 278 279 279 279 279 279 279 279 280 280 280 280 280 280 280 280 281 281 282 283 284 286 287 289 290
280 280 280 280 281 281 281 280 280 280 279 279 279 279 278 278 278 277 277 277 277 277 277 278 278 278 278 278 279 279 279 279 279 279 279 279 280 280 280 280 279 279 279 280 281 281 282 283 284 285 287 288
279 279 279 280 280 281 281 281 280 280 279 279 279 278 278 278 278 277 277 276 276 276 276 277 277 277 278 278 278 279 279 279 279 279 279 279 278 279 279 279 279 279 279 279 280 281 282 283 283 284 285 286
279 279 279 280 280 280 281 280 280 279 279 279 279 278 277 277 278 277 277 276 275 275 275 276 276 276 277 278 278 278 278 278 278 278 278 277 277 277 278 278 278 278 278 278 278 279 281 282 282 283 284 285
279 279 279 279 279 280 280 280 279 279 278 278 278 278 277 277 278 277 277 276 275 275 275 275 275 276 276 277 277 278 278 278 278 277 277 277 277 277 277 277 277 278 278 277 277 278 279 279 281 282 283 284
279 279 279 279 279 279 280 280 279 278 278 278 278 278 277 277 277 277 277 276 276 275 275 275 275 275 275 276 277 277 277 277 277 277 276 276 276 276 276 276 276 277 277 276 276 277 277 278 278 279 281 283
279 279 279 279 279 279 279 279 279 278 278 278 278 278 278 277 277 277 277 276 276 275 275 275 275 275 275 276 276 277 277 277 277 277 277 276 276 276 275 275 275 275 276 276 276 276 276 277 277 278 280 281
279 279 279 279 279 279 279 279 279 278 278 278 278 278 278 278 277 277 277 277 276 276 276 275 275 275 276 276 276 276 277 277 277 277 277 276 276 275 275 275 275 275 275 275 275 275 275 276 276 277 277 277
279 279 278 278 278 279 279 279 279 279 278 278 279 279 279 278 278 278 278 277 277 277 277 276 276 276 276 276 276 277 277 277 277 277 277 277 276 275 275 275 274 274 274 274 275 275 275 275 276 276 276 276

ECMWFFLT2_850_thetae_051.txt.gz
Theta_e
286 285 285 285 285 286 285 285 285 285 285 285 286 286 286 287 287 287 287 287 287 286 286 287 287 288 289 289 291 292 294 296 297 296 298 299 300 300 302 302 304 305 304 302 305 310 313 315 318 321 323 322
286 286 286 286 286 286 286 285 285 284 284 285 285 285 285 286 286 286 286 286 286 286 286 286 286 287 288 288 289 291 292 294 295 295 296 297 298 299 301 302 303 304 304 302 302 305 309 312 314 317 321 320
286 286 286 286 286 286 286 285 284 284 284 284 284 285 285 285 285 285 285 286 286 285 285 285 286 286 287 288 288 288 291 292 293 294 295 296 297 298 300 302 302 303 303 303 301 301 305 309 311 313 317 318
286 286 286 286 286 286 286 285 284 284 284 285 285 285 284 284 285 285 285 285 285 285 285 285 285 285 285 287 287 287 288 291 292 293 294 294 295 296 298 300 301 302 302 303 302 300 301 305 308 310 313 316
285 285 286 286 286 286 285 285 284 284 284 285 285 285 285 285 284 285 285 284 285 284 285 284 284 284 284 285 287 287 287 288 290 292 293 293 294 295 297 298 300 301 302 302 302 301 301 302 305 308 310 312
285 285 285 286 286 286 285 285 284 284 284 285 285 285 285 285 284 284 284 284 284 284 284 284 283 284 284 284 286 287 286 287 288 290 291 292 293 294 295 296 298 300 301 301 302 302 301 301 302 305 307 309
284 285 285 285 286 285 285 285 284 284 284 284 285 285 284 284 284 284 284 284 284 283 283 283 283 283 283 283 284 286 286 286 286 287 289 291 292 293 294 295 296 298 299 300 300 301 301 301 301 302 304 307
284 285 285 285 285 285 285 284 284 284 284 284 284 284 284 284 284 283 283 283 283 282 282 282 282 282 283 283 283 284 285 285 285 286 287 289 290 291 293 294 295 296 297 298 299 299 300 301 302 302 302 304
284 285 285 284 284 284 284 284 283 284 284 284 284 284 284 284 283 283 283 282 282 282 282 282 282 282 282 282 283 283 284 284 285 285 285 287 288 290 291 293 294 295 296 297 297 298 299 300 301 302 302 302
284 284 284 284 284 283 283 283 283 283 283 283 284 284 283 283 283 283 282 282 282 282 281 281 281 281 281 282 282 282 282 283 284 284 284 285 286 288 290 291 292 293 294 295 296 297 297 298 300 301 301 302
284 284 284 284 283 283 283 283 283 284 284 284 284 284 284 284 283 283 282 282 282 281 281 281 281 281 281 281 281 282 282 282 282 283 283 283 284 286 288 289 290 292 293 294 294 295 296 297 298 299 300 301
283 284 284 284 283 283 283 283 283 284 284 284 284 284 284 284 283 283 282 282 281 281 281 281 281 281 281 280 281 281 282 281 281 282 282 282 283 284 285 287 288 290 291 292 293 294 295 296 296 298 299 300
283 283 284 284 284 283 283 283 284 284 284 284 284 283 283 283 283 283 283 282 281 281 281 281 281 281 280 280 280 281 281 281 281 281 281 282 282 282 283 285 286 288 289 291 292 293 294 295 295 296 297 299
284 283 284 283 283 283 283 284 284 284 284 283 283 283 283 283 283 283 283 281 280 280 280 280 280 280 280 280 280 280 281 281 281 280 281 281 282 282 282 283 284 285 287 289 290 292 293 294 294 295 296 297
283 283 283 283 283 283 283 284 284 284 283 283 283 283 282 282 282 283 282 281 280 280 280 280 280 280 280 280 280 280 280 281 281 281 280 280 281 281 281 282 282 283 284 286 288 290 291 293 294 294 295 295
283 283 283 283 283 283 283 283 284 284 283 283 283 282 282 282 282 282 282 281 280 279 279 279 280 280 280 280 280 280 280 280 281 281 280 280 280 281 281 281 282 282 283 284 285 287 289 291 293 293 294 295
283 283 283 283 283 283 283 283 283 283 283 283 283 282 282 282 281 281 281 281 280 279 279 279 279 279 279 279 279 279 280 280 280 280 280 280 280 280 281 281 281 282 282 282 283 285 287 289 291 292 293 294
283 283 283 283 283 283 283 282 283 283 283 283 283 283 282 282 281 281 281 280 280 279 279 279 279 279 279 279 279 279 279 279 280 280 280 280 280 280 280 281 281 281 282 282 283 283 285 286 288 291 292 293
284 283 283 283 283 283 282 282 282 282 282 282 282 282 282 282 281 280 280 280 280 279 279 279 279 279 279 279 279 279 279 279 279 280 280 280 280 280 280 280 281 281 281 281 282 283 284 285 286 288 290 292
284 283 283 283 283 283 282 282 282 282 282 282 282 282 282 282 281 280 280 280 280 279 279 279 279 278 278 278 278 279 279 279 279 279 280 280 280 280 280 280 280 280 280 281 281 282 283 284 285 286 288 290
284 283 282 283 283 283 282 282 282 282 281 281 282 282 282 282 281 280 280 280 279 279 279 278 278 278 278 278 278 278 278 278 279 279 279 280 280 280 280 280 280 280 280 280 281 282 282 283 284 285 286 288
284 283 282 283 283 283 282 282 281 281 281 281 281 282 282 281 281 280 280 279 279 279 278 278 278 277 278 278 278 278 278 278 279 279 279 279 280 280 280 280 279 279 279 279 280 281 282 283 284 284 285 286
284 283 282 282 283 283 282 282 281 281 281 281 281 281 281 281 281 280 280 279 279 279 278 278 277 277 277 277 277 277 277 278 278 279 279 279 279 280 280 279 279 278 279 279 279 281 282 283 283 284 284 285
284 283 282 282 283 283 283 282 281 281 281 281 281 281 281 281 280 280 280 279 279 279 278 278 277 277 277 276 276 276 277 277 277 278 278 279 279 279 279 279 279 278 278 279 279 280 281 282 283 283 284 284
284 283 282 282 282 283 282 282 281 281 281 281 281 281 281 281 280 280 280 279 279 279 278 278 278 277 277 276 276 276 276 276 277 277 278 278 278 278 278 279 279 278 278 278 278 279 280 281 282 283 284 284
285 284 282 282 282 282 282 282 281 281 281 281 280 280 280 280 280 279 279 279 279 279 278 278 278 278 277 276 276 276 276 276 276 276 277 277 278 278 278 278 278 278 278 278 277 278 279 280 281 283 284 284
285 284 282 282 282 282 282 282 281 281 281 281 281 280 280 280 279 279 279 279 279 279 279 278 278 278 277 277 276 276 276 276 276 276 277 277 278 278 278 278 278 278 278 277 277 277 278 279 280 281 282 283
285 284 283 282 282 282 282 282 281 281 281 281 280 280 280 280 279 279 279 279 279 279 279 278 278 278 278 277 277 276 276 276 276 276 277 277 278 278 278 279 279 278 278 277 277 277 277 278 278 279 280 282
285 284 283 282 282 282 282 282 281 281 280 280 280 280 280 279 279 279 279 279 279 279 279 279 278 279 278 278 277 277 276 276 276 276 277 278 278 278 278 279 279 278 278 277 277 276 276 277 278 278 279 280
285 284 283 282 281 282 282 282 282 281 280 280 280 280 280 280 279 279 279 279 279 279 279 279 279 279 279 278 278 277 277 277 277 277 277 278 278 278 278 278 279 279 278 277 277 276 276 277 277 277 277 277
286 285 284 282 281 281 281 282 282 281 280 280 280 280 280 280 279 279 279 279 279 279 279 279 279 279 279 279 279 278 278 278 277 277 277 277 277 277 278 278 278 278 278 278 277 276 276 276 275 275 275 275

ECMWFFLT2_850_thetae_054.txt.gz
Theta_e
287 287 287 288 288 287 287 287 287 286 286 286 286 287 287 287 287 288 288 288 288 288 288 288 288 287 287 286 286 286 287 287 288 288 289 290 291 292 293 294 295 296 296 297 298 300 301 303 305 307 307 308
287 287 287 288 288 288 288 287 287 287 286 286 286 287 287 287 287 288 288 288 288 288 288 288 288 288 287 286 286 286 286 287 287 287 288 289 290 291 292 293 293 294 296 297 298 299 300 301 303 306 307 306
287 287 287 287 288 288 288 287 287 287 286 286 287 287 287 287 287 288 288 288 288 288 288 288 288 288 288 287 286 286 286 286 286 286 287 288 289 289 290 292 293 294 295 297 298 299 300 300 302 304 306 306
287 286 286 287 287 288 288 288 288 287 287 287 288 288 287 287 287 287 287 288 288 288 288 288 288 288 288 287 287 286 286 286 286 286 286 287 288 288 288 290 292 294 295 297 298 298 299 300 301 302 305 306
288 287 286 286 287 287 287 288 288 287 287 288 288 288 288 287 287 287 287 287 287 287 287 288 288 288 288 287 287 286 286 286 286 285 286 286 287 288 288 288 290 293 295 296 297 298 299 300 301 301 303 305
289 288 286 286 286 287 287 288 288 288 288 288 288 288 287 287 286 287 286 286 286 287 286 287 287 287 287 287 287 286 285 285 285 285 285 285 286 286 287 287 288 290 293 295 296 297 299 300 300 301 302 303
289 289 287 286 286 286 287 288 288 288 288 288 288 288 287 287 287 287 286 286 286 286 286 286 287 287 287 287 287 287 285 285 285 285 285 285 285 285 286 286 286 288 290 293 295 296 297 299 300 301 302 302
290 289 288 287 286 285 286 287 287 287 287 288 288 288 287 287 287 287 287 286 286 286 285 285 285 286 286 286 287 286 286 285 285 285 285 284 284 284 284 285 285 286 288 291 293 294 295 297 298 300 301 302
290 290 289 287 286 285 285 286 286 286 287 287 288 287 287 287 287 287 287 286 286 285 285 285 285 285 285 285 285 285 285 284 284 284 284 284 284 283 284 284 284 285 286 288 291 292 294 295 296 298 300 301
291 290 289 288 287 285 285 285 286 286 287 287 287 287 287 287 287 287 287 286 286 286 285 284 284 284 284 284 284 284 283 284 284 283 283 283 283 283 283 283 283 283 284 286 288 291 292 293 295 296 298 300
291 290 289 288 287 286 285 285 285 286 286 286 287 287 287 286 286 286 286 287 286 286 286 285 284 283 283 283 283 283 282 283 283 283 283 283 283 282 282 282 283 283 283 284 286 289 290 292 293 295 296 298
291 290 290 289 288 287 285 285 285 285 286 286 286 286 286 286 286 286 286 286 286 286 286 285 284 283 282 282 282 282 282 282 282 282 282 282 282 282 282 282 282 282 282 283 284 286 288 290 292 293 294 296
291 290 290 289 288 287 286 285 284 285 285 285 286 286 286 286 286 286 286 286 286 286 286 285 284 283 282 281 281 281 281 281 281 281 281 282 282 282 282 281 281 282 282 282 283 284 286 288 290 291 293 294
291 290 290 289 288 288 286 285 284 284 285 285 285 285 286 286 286 286 286 286 285 285 285 285 284 282 281 281 281 281 281 281 281 281 281 281 282 281 281 281 281 281 282 282 282 283 284 286 288 290 291 293
291 291 290 289 289 288 287 285 284 284 284 285 285 285 285 285 285 285 285 285 285 285 285 284 283 282 281 280 280 280 280 280 280 280 280 281 281 281 281 281 281 281 281 281 282 282 283 284 286 288 290 291
291 291 290 289 289 288 287 285 284 284 284 284 284 285 285 285 285 285 285 285 285 284 284 284 283 282 281 280 280 280 280 280 280 280 280 280 281 281 281 281 281 281 281 281 281 282 282 283 284 286 288 290
291 291 290 290 289 288 287 285 284 284 284 284 284 284 285 285 285 285 284 284 284 284 283 283 282 282 281 280 280 280 280 280 279 279 280 280 280 280 280 280 280 280 281 281 281 281 281 282 283 284 286 288
291 291 290 290 289 289 287 286 284 284 284 284 284 284 284 285 285 284 284 284 284 283 283 282 281 281 280 280 280 280 279 279 279 279 279 279 280 280 280 280 280 280 280 281 281 281 281 282 282 283 284 286
291 291 290 290 290 289 288 286 285 284 283 284 284 284 284 284 285 284 284 284 283 283 282 281 281 280 279 279 279 279 279 279 279 279 279 279 279 279 280 280 279 280 280 280 281 281 282 282 282 283 284 285
291 291 290 290 290 289 288 287 285 284 283 283 284 284 284 284 284 284 283 283 283 283 282 281 280 280 279 279 279 279 278 278 278 278 278 279 279 279 279 279 279 279 280 280 280 281 282 282 282 283 284 284
291 291 290 290 290 289 288 287 285 284 283 283 283 283 283 284 284 283 283 283 283 282 282 281 280 280 279 280 279 279 278 278 278 278 278 278 278 278 279 279 279 279 279 279 280 280 281 282 282 283 284 284
291 291 290 290 290 289 288 287 286 284 283 283 283 283 283 283 283 283 283 283 282 282 282 281 280 280 279 279 279 279 278 278 277 277 277 277 278 278 278 278 279 279 279 279 279 280 281 281 282 283 283 284
291 291 291 290 290 289 289 287 286 285 283 283 283 283 283 283 283 283 282 282 282 282 281 281 280 280 279 279 279 278 278 277 277 276 276 277 277 278 278 278 278 278 279 278 279 279 280 281 282 282 283 284
292 291 291 290 290 289 289 287 287 286 284 283 283 283 283 282 282 282 282 282 282 281 281 280 280 279 279 279 278 278 278 277 277 276 276 277 277 278 278 278 278 278 278 278 279 279 280 281 281 282 283 283
292 292 291 290 290 289 288 288 287 286 285 283 283 283 283 282 282 282 282 281 281 281 281 280 280 279 279 279 278 278 278 277 277 277 277 277 277 278 278 278 278 278 278 278 278 279 280 281 281 282 283 283
293 292 291 290 289 289 288 288 287 286 285 283 282 283 282 282 282 282 282 281 281 281 281 280 280 279 279 279 278 278 278 278 278 277 277 277 278 278 278 278 278 278 278 278 278 278 280 281 281 282 282 283
293 292 291 290 289 288 288 288 287 287 285 283 282 282 282 282 282 282 282 281 281 281 281 280 280 279 279 279 279 278 278 278 278 278 277 278 278 278 278 278 278 279 278 277 278 278 279 281 281 281 282 281
293 292 291 290 289 288 288 288 287 287 286 284 283 282 282 282 282 282 281 281 280 280 280 280 280 280 279 279 279 278 278 278 278 278 278 278 278 279 279 278 278 279 279 278 278 278 279 280 280 281 282 281
293 292 291 290 289 288 288 288 287 287 286 285 283 282 283 282 282 282 281 281 280 280 280 280 280 280 279 279 279 279 279 278 278 278 278 278 278 279 279 279 279 279 279 278 278 278 278 280 280 281 281 280
293 292 291 290 289 289 288 288 288 287 286 285 282 282 282 282 282 281 281 281 280 280 280 280 280 280 279 279 279 279 279 279 279 279 279 279 279 279 279 279 279 279 278 278 278 278 277 279 279 279 278 278
292 292 291 290 290 289 289 288 287 287 286 284 282 282 282 282 281 281 281 281 280 280 279 279 279 279 279 279 279 279 279 279 279 279 279 279 279 278 279 279 279 279 278 277 277 277 277 277 277 277 276 277

ECMWFFLT2_850_thetae_057.txt.gz
Theta_e
291 290 289 289 288 288 289 289 289 289 290 289 290 290 290 290 289 289 289 289 289 289 289 289 289 288 288 288 288 289 288 288 289 288 289 289 289 289 289 289 289 290 290 291 291 291 292 294 297 299 301 302
292 291 290 290 289 288 288 288 288 289 289 289 289 289 289 289 289 289 289 289 289 289 289 289 289 288 288 288 288 288 288 288 288 288 288 289 289 289 289 289 289 289 289 290 290 290 291 292 294 296 298 300
292 292 291 291 290 289 288 288 288 288 288 289 289 289 289 289 289 289 289 289 289 289 289 288 288 288 288 288 288 288 288 288 288 288 288 288 288 288 289 289 289 289 288 289 290 290 290 291 292 294 296 298
293 292 292 291 291 290 289 288 288 287 288 289 289 289 289 289 289 288 288 288 288 288 289 288 288 288 288 288 288 288 288 288 288 288 288 288 288 288 288 288 288 288 288 288 289 289 290 290 291 292 294 296
293 293 293 292 291 291 290 289 288 288 287 288 288 289 289 288 288 288 288 288 288 288 288 288 288 288 288 288 288 288 288 289 289 288 288 288 288 288 288 288 288 288 288 288 288 289 289 289 290 292 293 294
293 293 293 292 292 291 291 290 289 288 287 287 287 288 288 288 288 288 288 288 288 288 288 288 288 288 288 288 288 289 289 289 289 289 289 288 288 287 287 288 288 288 288 288 288 288 288 288 289 291 292 293
293 293 293 292 292 292 291 290 290 289 288 287 287 287 288 288 288 288 288 288 288 288 288 288 287 287 288 288 288 288 289 288 289 289 288 288 288 287 287 287 288 287 288 288 288 288 288 288 288 290 292 294
293 293 293 292 292 292 291 291 290 290 288 287 286 286 287 287 288 288 288 288 288 288 287 287 286 287 287 287 287 288 288 288 288 288 287 287 287 287 286 287 287 287 287 287 287 288 287 287 287 288 290 293
293 293 293 293 292 292 292 291 291 290 289 288 286 286 286 287 288 288 288 287 287 287 287 287 286 286 286 286 286 287 287 287 286 287 286 285 285 286 285 286 286 287 287 287 287 287 287 287 287 287 288 291
294 293 293 293 293 292 292 292 291 291 290 289 287 286 286 286 287 287 287 287 287 287 287 286 286 285 285 285 286 286 286 286 285 286 285 284 284 284 285 285 285 286 286 287 286 286 286 286 286 286 287 289
294 293 293 293 293 292 292 292 292 291 290 289 288 287 286 286 286 287 287 287 287 287 287 286 286 285 285 285 285 285 285 285 285 285 285 284 284 284 284 284 284 284 285 286 286 286 285 285 285 285 286 287
294 294 293 293 293 292 292 292 292 291 291 290 289 288 286 286 286 286 287 287 287 287 287 286 286 285 285 285 285 285 285 285 285 284 284 284 283 283 283 283 283 283 283 284 284 285 285 285 285 284 285 286
294 294 293 293 293 292 292 292 292 292 291 290 290 288 286 285 285 286 286 286 286 286 286 286 286 285 285 285 285 284 284 284 284 284 283 283 283 283 283 283 283 282 282 282 283 283 284 284 284 284 284 285
294 294 293 293 293 292 292 292 292 292 291 290 290 289 287 286 285 285 286 286 286 286 286 286 285 285 285 284 284 284 284 284 283 283 283 283 283 283 283 283 283 282 282 282 282 282 283 283 284 284 283 284
294 294 293 293 293 293 292 292 292 292 291 291 290 290 288 286 285 285 285 286 286 286 286 286 285 285 284 284 284 284 283 283 283 283 283 283 283 283 283 283 282 282 282 282 282 282 282 282 283 283 283 283
294 294 293 293 293 293 292 292 292 291 291 291 291 290 289 287 285 285 285 285 286 286 286 286 285 285 285 284 284 284 283 283 283 284 283 283 282 282 282 282 282 282 282 282 282 282 282 282 282 283 283 283
294 294 294 293 293 293 292 292 292 291 291 291 291 290 290 288 286 285 285 285 285 286 286 285 285 284 285 284 284 284 283 283 283 282 282 282 281 281 281 282 282 282 282 282 282 281 281 281 282 282 283 283
294 294 294 294 293 293 292 292 292 291 291 291 291 291 290 289 287 285 285 285 285 285 285 285 285 284 284 284 283 283 283 282 282 281 281 281 281 281 281 281 281 282 281 282 281 281 281 281 281 282 283 283
295 294 294 294 293 293 293 292 292 291 291 291 291 290 290 289 287 285 284 284 285 285 285 285 284 284 283 283 282 283 283 282 282 281 281 281 281 281 281 281 281 281 281 281 281 281 281 281 281 282 283 283
295 295 294 294 294 293 293 292 292 292 291 291 291 290 290 289 288 286 284 284 284 284 285 284 284 284 283 283 282 283 283 282 281 281 281 281 280 280 280 280 280 281 281 281 281 281 281 281 281 282 283 283
296 295 295 294 294 293 293 293 293 292 291 291 290 290 290 290 288 286 284 284 284 284 284 284 284 284 283 283 283 283 283 282 281 280 280 280 280 280 280 280 280 280 280 281 281 280 280 281 281 282 283 283
296 296 295 295 294 294 294 293 293 292 291 291 290 290 290 290 289 287 285 284 284 284 284 284 284 284 283 283 283 283 283 282 281 281 280 280 280 280 279 279 279 279 280 280 280 280 280 281 281 282 283 283
295 295 295 295 294 294 294 294 293 293 291 290 290 290 290 290 289 288 285 284 284 284 284 284 284 283 283 283 283 283 282 282 281 281 280 280 280 280 279 279 279 279 279 280 280 280 280 281 282 282 282 283
293 293 294 294 294 294 294 293 293 292 291 291 290 290 290 290 289 288 286 284 284 284 284 284 284 283 282 282 283 282 282 282 281 280 280 280 280 280 280 279 279 279 279 280 280 280 281 281 282 282 282 282
292 292 292 292 292 292 292 292 292 291 291 291 290 290 290 290 290 288 286 285 284 284 284 284 283 283 282 282 282 282 282 281 281 281 280 280 280 280 280 280 280 279 279 280 280 281 281 281 282 283 283 282
292 291 291 291 291 291 290 290 290 290 290 290 290 290 290 290 290 288 287 285 284 283 283 283 283 283 282 281 281 281 281 281 281 280 280 280 281 280 280 280 280 279 279 280 280 280 280 282 283 283 283 283
292 291 290 290 289 289 289 288 288 288 288 288 288 289 290 290 289 288 287 286 284 283 283 283 283 282 282 281 281 281 281 280 280 280 280 280 281 280 280 280 280 280 280 280 280 280 281 282 282 283 284 283
292 290 289 289 289 288 288 287 287 287 287 287 287 288 288 289 288 287 287 286 285 283 283 283 283 282 281 281 280 280 280 280 280 280 280 280 281 281 280 280 280 279 279 280 280 280 281 281 282 283 284 283
291 290 289 288 288 288 288 287 287 287 287 287 287 287 288 287 287 287 286 286 285 283 283 283 283 282 282 280 280 280 280 280 280 280 280 281 281 281 281 280 280 280 280 280 280 280 280 281 282 283 282 281
291 290 289 288 288 287 287 287 287 287 287 287 287 287 287 286 286 286 286 286 285 283 283 283 283 282 282 281 280 280 280 280 280 280 280 280 281 281 281 280 280 281 280 279 279 279 279 280 280 281 280 280
292 291 289 288 287 287 287 286 287 286 286 286 285 285 285 285 285 285 285 285 284 283 283 283 282 282 282 281 280 279 279 280 280 280 280 280 280 281 281 281 281 281 280 279 279 279 279 279 278 279 279 279

ECMWFFLT2_850_thetae_060.txt.gz
Theta_e
295 295 294 294 293 293 293 292 291 291 290 290 290 290 291 291 291 290 290 290 290 290 290 290 290 290 290 290 290 289 289 290 290 290 290 290 290 290 290 290 290 291 291 291 291 292 292 293 293 294 295 296
295 295 295 294 294 294 293 293 292 292 291 290 290 290 290 291 291 291 291 290 290 290 290 290 290 290 290 290 290 289 289 289 289 290 290 290 290 290 289 290 290 290 290 291 291 291 291 292 292 293 293 294
295 295 295 295 294 294 294 294 293 293 292 292 291 290 290 290 290 291 291 291 290 290 290 290 290 290 289 289 289 289 289 289 289 289 289 290 290 289 289 289 290 290 290 290 290 291 291 291 292 292 292 293
295 295 295 295 295 295 294 294 294 293 293 292 292 291 290 290 290 290 290 291 291 290 290 290 289 289 289 290 289 289 289 289 289 289 289 289 289 289 289 289 289 289 290 290 290 290 290 290 291 291 292 292
295 295 295 295 295 295 295 294 294 294 293 293 292 291 291 290 290 289 289 290 290 290 290 289 289 289 289 289 289 289 289 289 289 289 289 289 289 289 289 289 290 289 289 289 289 290 290 290 290 290 291 291
295 295 295 295 295 295 294 294 294 294 293 293 292 292 291 291 290 289 289 289 289 290 290 290 289 289 289 289 289 289 289 289 289 289 289 288 288 288 289 289 289 289 289 289 289 289 289 290 289 289 290 291
295 295 295 295 295 295 295 294 294 294 293 293 293 292 292 291 290 289 289 289 289 289 290 290 289 289 289 289 288 288 288 288 288 288 288 287 287 287 288 288 289 289 289 289 289 289 289 289 289 289 289 290
296 295 295 295 295 295 295 294 294 294 293 293 293 292 292 291 291 290 289 288 288 288 289 289 289 289 288 288 288 288 288 288 288 287 287 287 287 287 287 287 287 288 289 289 289 289 289 289 289 289 289 289
296 296 296 296 295 295 295 295 294 294 294 293 293 293 292 292 291 291 289 288 288 288 288 288 289 289 288 288 288 288 288 288 288 287 287 287 286 286 286 286 287 287 288 288 289 289 289 290 289 289 289 289
296 296 296 296 296 295 295 295 295 294 294 294 293 293 293 292 292 291 290 289 288 287 287 288 288 289 288 288 288 288 288 288 287 287 287 286 286 286 286 286 286 286 287 287 288 288 289 290 290 290 289 289
296 296 296 296 296 296 295 295 295 295 294 294 294 293 293 292 292 292 291 290 288 287 287 287 287 288 288 288 288 287 287 287 287 287 287 287 286 286 286 286 286 286 286 286 287 287 288 289 290 290 290 289
297 296 296 296 296 296 295 295 295 295 295 294 294 293 293 293 292 292 291 291 289 288 287 287 287 287 288 288 287 287 287 287 287 287 287 286 286 286 286 286 286 286 286 285 286 287 287 288 288 289 290 289
297 297 296 296 296 296 296 296 295 295 295 295 294 294 293 293 293 292 292 291 290 289 287 287 287 287 287 288 287 287 287 287 287 287 287 287 286 286 286 286 286 286 286 286 286 286 286 287 287 288 289 289
297 297 297 296 296 296 296 296 296 295 295 295 294 294 294 293 293 292 292 292 291 290 288 287 287 286 287 287 287 286 286 286 286 286 287 287 286 286 286 286 287 286 286 286 286 286 286 286 286 286 287 288
298 297 297 297 296 296 296 296 296 296 296 295 295 294 294 294 293 293 292 292 291 290 289 287 287 286 286 287 286 286 286 286 286 286 286 286 286 286 286 287 287 286 286 286 286 285 286 286 285 285 285 287
297 297 297 296 296 296 296 296 296 296 295 295 295 294 294 294 293 293 292 292 291 291 290 288 287 286 286 286 286 286 286 285 285 286 286 286 286 286 286 286 286 286 285 285 285 285 285 285 285 284 284 285
296 296 296 295 295 295 295 295 295 295 295 295 294 294 294 294 294 293 293 292 292 291 290 289 287 286 286 286 286 286 285 285 285 286 286 286 286 286 286 286 286 286 285 284 284 284 284 284 284 284 284 284
295 295 295 294 294 294 294 294 294 294 294 294 294 294 294 294 294 293 293 292 292 291 290 289 288 286 286 285 285 286 285 285 285 285 285 285 285 286 285 285 286 285 284 284 284 284 284 284 284 284 284 284
294 294 294 294 293 293 293 293 293 294 294 294 294 293 294 294 294 293 293 292 292 291 291 290 289 287 286 285 285 285 285 285 285 285 285 285 285 285 285 285 285 285 284 284 284 284 284 283 283 283 284 283
294 294 293 293 293 292 292 292 292 293 293 293 293 293 293 293 293 293 292 292 292 291 291 290 289 288 286 285 285 285 285 285 285 284 284 284 285 285 285 285 285 285 284 284 284 284 284 284 283 283 283 283
294 294 293 292 292 292 291 291 291 291 291 291 291 292 292 292 292 291 291 291 291 290 290 290 290 288 287 285 285 285 285 285 285 284 284 284 284 284 284 285 285 285 284 284 284 284 284 284 283 283 283 283
295 294 293 293 292 291 291 291 290 290 290 290 290 290 290 291 291 290 290 290 290 290 289 290 289 289 287 285 285 285 285 285 285 284 284 284 284 284 284 284 284 284 284 284 284 284 284 283 283 283 283 283
296 295 294 293 292 291 290 290 290 289 289 289 289 289 289 289 289 289 289 289 289 289 289 289 289 288 287 286 285 285 285 285 285 284 283 283 284 284 284 284 284 283 283 283 283 284 283 283 283 283 284 284
296 295 294 293 292 291 291 290 289 289 289 289 288 288 288 288 288 288 288 288 288 288 288 288 288 288 287 285 285 284 285 285 284 284 283 283 283 283 283 283 283 283 282 282 283 283 283 283 283 283 284 284
294 294 293 292 292 291 290 289 289 288 288 288 287 287 287 287 287 287 287 287 287 287 288 288 288 287 286 285 284 284 284 284 284 283 283 283 283 283 283 283 282 282 282 282 282 282 282 283 283 283 283 284
293 292 291 291 290 290 289 289 288 288 288 287 287 286 286 287 286 286 286 286 286 286 287 287 287 287 286 284 283 283 284 284 284 284 283 282 282 282 282 282 282 282 281 281 281 281 282 283 283 283 283 283
293 292 291 290 290 289 289 288 288 288 287 287 286 286 286 286 286 286 286 286 286 285 285 286 286 286 286 284 283 283 283 283 284 284 283 282 282 282 282 282 282 281 281 281 281 281 281 282 283 283 283 283
293 293 292 291 291 290 289 289 289 288 288 287 286 286 286 286 286 285 285 285 285 285 285 285 285 285 285 284 283 283 283 283 283 284 283 282 282 282 281 281 281 281 281 280 281 281 281 282 282 282 283 284
292 292 292 291 291 291 291 291 290 290 289 288 287 286 285 285 285 284 284 284 284 284 284 284 284 284 284 284 283 283 282 282 283 283 283 282 282 282 281 281 281 281 280 280 280 281 281 281 281 282 283 283
291 290 290 290 290 290 290 290 290 290 289 289 288 287 286 285 285 284 284 284 284 284 284 283 283 284 284 284 283 282 282 282 282 282 283 282 282 282 281 281 281 281 281 280 280 280 281 281 281 281 282 281
290 290 290 289 289 288 288 288 288 289 288 288 288 287 286 286 285 285 284 284 284 283 283 283 283 283 283 283 283 282 282 282 281 282 282 282 281 281 281 281 281 281 281 280 280 280 280 281 280 280 280 280

ECMWFFLT2_850_thetae_066.txt.gz
Theta_e
297 296 296 296 296 296 296 296 296 295 296 295 295 295 295 296 296 296 296 296 297 296 296 295 294 294 293 293 293 292 292 291 291 291 291 291 292 292 292 292 292 292 292 292 293 293 294 294 294 295 295 295
297 296 296 296 296 296 296 296 296 296 296 296 295 295 295 295 295 295 296 296 296 296 296 295 295 295 294 293 293 292 292 292 291 291 291 291 291 292 292 292 292 292 292 292 292 292 293 293 294 294 295 295
297 297 297 296 296 296 296 296 296 296 296 296 295 295 295 295 295 295 295 295 295 296 296 296 295 295 295 294 294 293 292 292 292 292 291 291 291 291 292 292 292 292 292 292 292 292 292 293 293 294 294 294
297 297 297 296 296 296 296 296 296 296 296 296 296 296 295 295 295 295 295 295 295 295 295 295 296 296 296 295 295 294 293 293 292 292 292 291 291 291 291 292 292 292 292 292 292 292 292 292 292 293 293 293
298 297 297 297 296 296 296 296 296 296 296 296 296 296 295 295 295 295 295 294 294 294 294 295 295 295 295 295 295 295 294 293 292 292 292 292 292 291 291 292 292 292 292 292 292 292 292 292 292 292 292 293
298 297 297 297 296 296 296 296 296 296 296 296 296 296 295 295 295 295 295 294 294 294 294 294 294 294 295 295 294 295 294 293 293 292 292 291 291 292 292 292 291 291 291 291 291 292 292 292 292 292 292 292
298 297 297 297 296 296 296 296 296 296 296 296 296 296 295 295 295 295 295 294 294 294 294 294 294 293 294 294 294 294 294 294 293 293 292 292 291 291 292 291 291 291 291 291 291 291 291 292 292 292 292 292
297 297 297 297 296 296 296 296 296 296 296 296 295 295 295 295 295 295 295 294 294 294 294 293 293 293 293 293 293 294 294 294 294 293 293 292 292 291 291 291 291 291 291 291 291 291 291 291 291 292 292 292
297 297 297 297 296 296 296 296 296 295 296 295 295 295 295 295 295 295 294 294 294 294 293 293 293 293 293 293 293 293 293 294 294 294 293 293 292 292 291 292 291 291 291 291 291 291 291 291 291 291 291 291
297 297 297 296 296 296 296 295 295 295 295 295 295 295 294 294 294 294 294 294 294 293 293 293 293 293 292 292 292 292 293 293 293 293 293 293 293 292 291 291 291 291 291 291 290 290 290 290 291 291 291 291
297 297 296 296 296 296 295 295 295 295 294 294 294 294 294 293 293 293 293 293 293 293 292 292 292 292 292 292 292 292 292 292 292 293 293 293 293 292 291 291 291 291 291 290 290 290 290 290 290 290 290 290
297 296 296 296 296 295 295 295 295 294 294 294 294 293 293 293 292 292 292 292 292 292 292 292 291 291 291 291 291 291 291 291 291 291 292 292 292 292 291 290 290 290 290 290 289 290 289 289 289 289 290 290
296 296 296 296 295 295 295 295 295 294 294 294 293 293 293 292 292 291 291 291 291 291 291 291 291 290 290 290 290 290 290 290 290 291 291 291 291 291 291 290 289 289 290 289 289 289 289 289 289 289 289 289
296 296 296 296 295 295 295 295 295 294 294 294 293 293 292 291 291 291 290 290 290 290 290 290 290 290 290 290 289 289 289 289 289 290 290 290 290 290 290 290 289 288 289 289 289 289 289 289 288 289 289 289
296 296 296 296 295 295 295 295 294 294 294 293 293 292 292 291 291 290 290 290 289 289 289 289 289 289 289 289 289 288 288 288 288 289 289 289 289 289 289 289 289 288 288 289 288 288 288 288 288 289 289 289
296 296 296 295 295 295 295 294 294 294 293 293 292 292 291 291 290 290 290 289 289 289 289 289 289 289 289 288 288 288 288 288 288 288 288 288 288 288 289 289 289 288 288 288 288 287 288 288 288 288 288 288
296 296 296 295 295 295 294 294 294 293 293 292 292 291 291 291 290 290 289 289 289 289 289 289 289 289 288 288 287 287 288 288 288 287 288 288 287 288 288 288 289 288 288 288 288 287 287 287 287 287 287 288
296 295 295 295 295 295 294 294 293 293 293 292 292 291 291 290 290 290 290 289 289 289 289 289 289 289 288 287 287 287 287 287 287 287 287 287 287 287 287 287 288 288 288 288 288 287 287 287 287 287 287 288
294 295 295 295 295 295 294 293 293 293 293 292 292 291 291 290 290 290 290 289 289 289 289 289 289 290 288 287 286 286 286 286 286 286 286 286 286 287 287 287 287 288 288 289 288 288 287 287 287 286 287 287
293 294 294 294 295 294 294 293 292 292 292 292 292 291 291 291 290 290 290 289 289 289 288 288 288 289 288 287 286 286 286 285 286 286 286 286 286 286 286 286 286 287 287 288 288 288 287 287 287 286 286 286
293 293 293 294 294 294 293 293 292 292 292 291 291 291 290 290 290 289 289 288 288 288 288 287 287 288 287 287 286 286 286 285 285 285 285 285 285 285 285 285 286 286 286 287 287 287 287 287 286 286 286 286
293 292 292 292 292 292 292 292 292 291 291 290 290 290 290 289 289 288 288 287 287 287 287 287 287 287 286 286 286 285 285 285 285 284 284 284 284 284 284 284 285 285 285 286 286 287 287 287 286 286 286 286
292 291 291 291 291 290 290 290 290 290 290 289 289 289 289 288 288 287 287 287 287 287 287 286 286 286 286 286 285 285 285 285 285 284 284 283 283 283 283 283 284 284 284 284 285 285 287 287 286 286 286 285
291 291 291 290 290 290 290 289 289 289 289 288 288 288 288 288 287 287 287 287 287 286 286 286 286 286 285 285 285 285 285 285 284 284 284 283 283 283 283 283 283 283 283 283 283 285 286 286 286 286 286 285
291 290 290 290 290 290 289 289 289 289 289 288 288 288 288 288 288 288 287 287 287 286 286 286 286 285 285 285 285 284 284 284 284 284 284 283 283 283 283 283 283 282 282 282 282 284 285 285 286 286 286 285
291 291 291 290 290 290 290 289 289 289 289 289 288 288 288 288 288 288 288 288 287 287 286 286 286 285 285 285 284 284 284 284 284 284 284 283 283 283 282 282 283 282 281 281 282 282 283 284 286 287 286 285
291 291 291 291 291 291 290 290 290 290 290 290 289 288 288 288 288 288 288 288 288 287 287 286 286 286 285 285 284 284 284 284 283 283 283 283 283 283 283 283 282 282 281 281 281 281 281 282 284 285 286 286
291 291 291 291 291 291 291 291 290 290 290 290 290 289 288 288 288 288 288 288 288 288 288 287 287 286 286 285 285 284 284 284 283 283 283 283 283 283 282 283 282 282 281 281 281 280 280 280 281 282 284 285
291 291 291 291 291 291 290 290 290 290 290 290 290 289 289 288 288 288 289 289 288 288 288 287 287 287 286 286 285 285 284 284 284 283 283 283 283 282 282 282 282 282 281 281 281 280 279 280 280 281 282 283
291 291 290 290 290 290 290 290 290 290 290 290 290 289 289 289 288 288 289 289 288 288 288 288 287 287 287 286 286 286 285 285 284 284 284 283 282 282 282 281 281 281 281 281 281 280 280 279 280 280 280 280
289 288 288 287 287 288 289 289 289 289 289 290 289 289 289 289 289 288 288 289 288 288 288 288 287 287 287 286 286 286 286 285 285 284 284 283 283 282 282 281 281 281 281 281 280 280 280 280 279 279 279 279

ECMWFFLT2_850_thetae_069.txt.gz
Theta_e
297 296 296 296 296 296 296 296 295 295 295 295 295 295 295 295 295 295 295 294 294 295 295 295 295 295 295 295 294 293 293 293 292 293 293 292 292 292 292 291 291 291 291 291 292 292 293 293 293 293 294 294
297 297 297 296 296 296 296 295 295 295 295 295 295 295 295 295 295 294 294 294 294 294 294 294 294 295 295 295 295 295 294 293 293 293 293 292 292 292 292 292 291 291 291 291 291 292 292 292 293 293 293 294
297 297 297 296 296 296 296 296 295 295 295 295 295 295 295 295 295 295 295 294 294 294 294 294 294 294 294 295 295 295 295 294 294 293 292 292 292 292 292 292 292 291 291 291 291 291 292 292 292 293 293 293
297 297 297 297 296 296 296 296 296 296 296 295 295 295 295 295 295 295 295 294 294 294 294 294 294 293 294 294 294 295 295 295 295 294 293 292 292 292 292 293 293 292 291 291 291 291 291 291 292 292 293 293
297 297 297 297 296 296 296 296 296 296 296 295 295 295 295 295 295 295 295 294 294 294 294 294 293 293 293 293 293 294 294 294 295 295 294 293 293 292 292 293 293 292 292 291 291 291 291 291 291 292 292 293
297 297 297 297 296 296 296 296 296 295 295 295 295 295 295 295 295 295 294 294 294 294 294 294 293 293 293 293 293 293 293 293 294 294 294 294 294 293 293 293 293 293 293 292 291 291 291 291 291 291 292 292
297 297 297 297 296 296 296 296 295 295 295 295 295 294 294 294 294 294 294 294 294 294 293 293 293 293 293 293 292 292 293 293 293 293 294 294 294 294 294 293 293 293 293 292 292 292 292 292 291 291 292 292
297 297 297 296 296 296 296 295 295 295 295 294 294 294 294 294 294 294 293 293 293 293 293 293 293 292 292 292 292 292 292 292 292 293 293 294 294 294 295 294 293 293 293 293 293 292 292 292 292 292 292 292
297 297 296 296 296 296 295 295 295 295 295 294 294 294 294 294 294 293 293 293 293 292 292 292 292 292 292 292 292 292 292 292 292 292 293 293 293 294 294 295 295 294 294 293 293 293 292 292 292 292 292 292
297 296 296 296 296 296 295 295 295 295 294 294 294 294 293 293 293 293 293 292 292 292 291 291 291 291 292 292 292 292 292 292 292 292 292 292 293 293 293 294 295 295 295 294 294 293 292 292 292 292 292 292
297 296 296 296 296 295 295 295 295 295 294 294 294 293 293 293 293 292 292 292 291 291 291 291 291 291 291 291 291 291 291 291 291 291 291 292 292 292 292 293 294 294 295 295 295 294 293 293 292 292 292 292
296 296 296 296 295 295 295 295 294 294 294 294 294 293 293 293 292 292 291 291 291 291 290 290 290 290 290 290 290 290 290 290 291 291 291 291 291 291 292 292 292 293 294 294 295 295 294 293 293 292 292 291
296 296 296 295 295 295 295 295 294 294 294 294 293 293 293 292 292 291 291 291 291 290 290 290 289 289 289 289 289 289 289 289 290 290 290 290 290 290 291 291 291 292 292 293 294 295 295 295 294 293 292 292
296 295 295 295 295 295 294 294 294 294 294 293 293 293 292 292 292 291 291 290 290 290 290 289 289 289 289 289 288 288 288 288 288 289 289 289 290 290 290 290 290 291 291 292 292 293 294 295 294 294 293 293
296 296 296 296 295 295 294 294 294 294 293 293 293 292 292 292 291 291 290 290 290 290 290 289 289 289 289 289 288 287 287 287 287 288 288 288 288 289 289 289 289 289 290 291 291 292 293 293 294 294 294 293
296 296 296 296 295 295 295 294 294 294 293 293 293 292 292 292 291 291 290 290 290 289 290 290 290 289 289 288 288 287 287 287 287 287 287 287 287 287 288 288 289 288 289 290 290 290 291 292 293 294 294 294
294 294 294 294 294 295 294 294 294 294 293 293 292 292 292 292 291 291 290 290 290 289 289 289 289 289 288 288 287 287 287 287 286 286 286 286 286 286 286 287 288 287 288 289 289 289 290 290 292 292 293 294
293 293 293 293 293 294 294 294 294 294 293 293 292 292 292 292 291 291 290 290 290 289 289 289 288 288 288 287 287 287 287 286 286 286 286 286 286 286 286 286 287 287 287 288 288 288 288 289 290 291 292 293
293 293 293 293 293 293 293 293 294 294 293 293 293 292 292 291 291 291 291 290 289 288 288 288 288 288 287 287 286 286 286 286 286 286 286 286 285 285 285 285 286 286 286 287 288 288 288 288 289 289 291 292
291 292 292 292 292 292 292 292 292 292 292 292 292 291 291 291 290 290 290 289 288 288 288 288 288 288 287 287 286 286 286 286 286 285 285 286 285 285 285 285 285 285 285 286 286 287 287 287 287 288 289 290
291 291 291 291 291 291 290 290 290 290 290 290 290 290 289 289 289 289 289 288 288 288 288 288 288 288 287 287 286 286 286 285 285 285 285 285 285 284 285 285 285 285 285 284 285 286 286 286 286 287 288 289
291 290 290 290 290 290 290 290 289 289 289 289 289 289 289 289 289 288 288 288 288 288 288 288 288 288 287 287 286 286 286 286 285 285 284 285 285 284 284 284 285 285 284 284 284 285 286 286 285 286 287 288
291 290 290 290 289 289 289 289 289 289 289 289 289 290 290 289 289 289 288 288 288 288 288 288 288 288 287 287 286 286 286 286 286 285 285 284 285 284 284 284 285 285 285 284 284 284 285 285 285 285 286 287
290 290 290 289 289 289 288 288 289 289 289 289 290 290 290 290 290 290 289 288 288 287 288 288 288 288 287 287 286 286 286 286 286 285 285 285 284 284 284 284 284 285 284 284 284 285 285 285 285 286 286 286
290 289 289 289 288 288 288 287 288 288 288 289 289 289 289 289 290 289 289 289 288 288 288 288 288 288 288 287 287 287 286 286 286 285 285 285 284 284 284 284 284 284 284 284 284 285 285 285 286 286 286 286
289 289 288 288 287 287 287 286 286 287 287 288 289 289 289 289 289 289 289 289 289 288 288 288 288 288 288 288 287 287 287 286 286 286 286 285 285 284 284 284 284 284 283 283 283 283 284 285 286 286 286 286
288 288 287 287 287 287 287 287 287 286 286 287 288 289 289 289 289 289 289 289 289 289 288 288 288 288 288 288 288 287 287 287 287 286 286 286 285 285 284 284 284 284 283 282 282 281 281 282 283 284 285 285
288 288 288 288 288 288 288 288 288 287 286 286 286 287 287 288 289 289 289 289 289 289 289 288 288 288 288 288 288 288 287 287 287 286 286 286 286 285 284 284 284 284 283 283 282 281 281 281 280 281 283 283
288 288 288 288 288 288 288 288 287 287 287 286 285 285 285 286 288 289 289 289 289 288 288 288 288 288 288 288 288 288 287 287 287 286 286 286 286 285 284 284 283 283 283 283 282 281 281 281 280 280 281 281
288 288 288 288 287 287 287 286 286 286 285 285 285 285 285 285 287 288 288 288 288 288 288 288 288 288 287 287 287 287 287 287 287 286 286 286 285 285 285 284 283 283 284 283 282 282 281 281 280 280 281 280
288 288 288 288 287 286 285 285 285 285 284 284 284 284 284 285 286 287 287 287 287 287 287 287 287 287 287 287 287 287 287 287 286 286 286 285 285 285 285 284 283 283 283 282 282 282 282 281 281 280 280 279

ECMWFFLT2_850_thetae_075.txt.gz
Theta_e
296 296 296 296 296 296 296 295 296 295 296 296 295 296 295 295 295 295 296 296 296 296 296 296 296 296 296 296 296 296 296 296 296 296 297 297 298 299 299 299 299 298 296 296 296 295 296 296 297 296 296 296
296 296 296 296 296 296 296 295 296 296 296 296 296 296 296 296 296 296 296 296 296 296 296 296 296 296 296 296 296 296 296 296 295 295 296 296 296 297 297 298 298 297 297 297 296 296 296 296 296 296 296 296
296 296 296 296 296 296 296 296 295 296 296 296 296 296 296 296 296 296 296 296 296 296 296 296 296 296 296 296 296 296 296 296 295 295 295 295 296 296 297 297 298 298 298 297 297 297 296 296 296 296 296 296
296 296 296 296 296 296 296 296 296 296 296 296 296 296 296 296 296 296 296 296 296 296 296 296 296 296 295 295 295 295 295 295 295 295 295 295 295 295 296 296 297 297 298 298 297 297 297 297 296 296 296 296
296 296 296 296 296 296 296 296 296 295 295 295 295 296 296 296 296 296 296 296 296 296 296 296 296 296 296 295 295 295 295 295 295 295 295 295 295 295 295 296 296 297 297 297 297 298 298 298 297 297 296 296
296 296 296 296 296 296 296 295 295 295 295 295 295 295 295 295 295 296 296 296 296 296 296 296 296 296 296 296 296 296 295 295 295 295 295 295 295 295 295 295 295 296 296 297 297 297 297 297 297 297 297 297
296 296 296 296 296 295 295 295 295 295 295 295 295 295 295 295 295 295 295 295 296 296 296 296 296 297 297 297 296 296 296 296 295 295 295 294 294 295 295 295 295 295 295 296 296 297 297 297 297 297 297 297
296 296 296 296 295 295 295 295 295 295 295 295 295 295 295 294 294 294 294 295 295 296 296 296 296 296 296 296 296 296 296 296 296 296 295 295 294 294 294 294 294 295 295 295 295 296 296 297 297 297 297 297
296 296 296 296 295 295 295 295 295 295 295 295 295 295 295 295 294 294 295 295 295 295 295 295 295 295 296 296 296 296 296 296 296 296 296 296 295 295 294 294 294 294 294 294 295 295 295 296 296 296 296 297
296 295 296 295 295 295 295 296 296 296 296 296 296 295 295 295 295 295 295 295 295 295 295 295 295 295 295 295 295 295 296 296 296 296 296 296 296 295 295 294 294 294 294 294 294 294 294 295 295 296 296 296
296 296 296 296 296 296 296 296 296 296 296 296 296 296 295 295 295 295 295 295 294 294 294 294 295 295 295 295 295 295 295 295 295 295 295 296 296 296 295 295 294 294 294 294 294 294 294 294 295 295 295 296
296 296 296 296 296 296 296 296 296 296 295 295 295 295 295 295 294 294 294 294 294 294 294 294 294 294 294 294 294 294 294 294 294 294 294 295 295 295 295 295 295 295 294 294 293 293 293 294 294 294 295 295
296 296 296 296 296 296 295 295 295 295 294 294 294 294 294 294 294 294 293 293 293 293 293 293 293 293 292 292 292 292 292 292 292 292 292 293 293 293 293 294 294 295 295 294 294 294 293 293 293 293 294 294
296 295 295 295 294 294 294 294 293 293 293 293 293 293 293 293 293 293 293 293 292 292 292 292 291 291 291 291 290 290 290 290 290 290 290 290 290 290 291 291 292 292 293 294 294 294 294 294 293 293 293 293
294 294 293 293 293 293 293 292 292 292 292 292 292 293 292 292 292 292 292 291 291 291 291 290 290 290 290 290 290 290 290 290 290 289 289 289 289 289 289 290 290 290 291 291 292 293 294 294 294 294 293 293
293 292 292 292 292 292 291 291 291 291 291 291 291 291 291 291 291 291 290 290 290 290 290 290 289 289 289 289 289 289 289 289 289 289 289 289 289 289 289 289 289 289 289 289 290 290 291 292 293 293 294 294
292 292 291 291 291 291 291 290 290 290 290 290 290 290 290 290 290 289 289 289 289 289 289 289 289 289 289 289 288 288 288 288 288 288 288 288 288 288 288 288 288 288 288 288 288 289 289 290 290 291 292 293
292 292 291 291 291 290 290 289 289 289 289 289 289 289 289 289 289 289 289 289 289 289 289 289 289 289 289 289 289 288 288 288 288 288 288 288 288 288 288 288 288 288 288 287 287 288 288 288 288 289 290 290
292 292 291 291 291 290 290 289 289 289 289 289 288 288 288 288 288 288 288 288 289 289 289 289 289 289 289 289 289 289 289 288 288 288 287 287 287 287 287 287 287 287 287 287 287 287 287 287 287 288 288 289
292 292 291 291 291 290 290 290 289 289 289 289 289 289 289 289 288 288 288 288 288 288 288 288 288 288 289 289 289 289 289 289 288 288 288 287 287 287 287 287 287 287 287 286 287 287 287 287 287 287 287 287
292 291 291 291 290 290 290 290 290 290 290 289 289 290 289 289 289 289 288 288 288 287 287 287 287 287 288 288 289 289 289 288 288 288 288 288 287 287 287 287 287 287 286 286 286 286 287 286 287 287 287 287
291 291 290 290 290 290 290 290 290 290 290 290 290 290 289 289 289 289 289 288 288 288 287 287 287 287 288 288 288 288 288 288 288 288 288 288 288 288 287 287 287 287 287 286 286 286 286 286 286 287 287 287
291 290 290 290 290 290 290 290 290 290 290 290 290 290 289 289 289 289 288 288 288 287 287 287 287 286 287 288 288 288 288 288 288 288 288 288 288 288 287 287 287 287 287 287 286 286 286 286 286 287 287 287
291 291 290 290 290 290 290 290 290 290 290 290 290 290 289 289 289 289 288 288 287 287 287 286 286 286 286 287 288 288 288 288 288 288 288 288 288 288 287 287 287 287 287 287 287 286 286 286 286 286 287 287
290 290 290 290 290 289 289 289 289 290 290 289 289 289 289 289 288 288 288 287 287 286 286 285 285 285 286 287 287 288 288 288 288 288 288 288 288 288 287 287 287 287 286 286 286 286 286 287 287 287 287 287
289 289 289 289 289 289 289 289 289 289 289 289 288 288 287 287 287 287 286 286 285 284 284 284 285 285 285 286 287 287 287 288 288 288 288 288 288 288 287 287 287 287 286 286 286 286 286 286 286 286 287 287
289 289 288 288 289 289 289 289 289 288 288 287 287 286 286 285 285 285 284 284 283 283 283 283 283 284 284 285 286 286 286 287 287 287 287 287 287 287 287 287 287 287 286 286 285 285 285 285 285 286 286 286
288 288 288 289 289 289 289 288 288 287 287 286 286 285 284 284 283 283 282 282 282 282 282 282 282 282 283 284 284 285 285 286 286 286 286 286 286 286 286 287 287 287 286 286 285 285 285 285 285 285 285 285
288 288 289 289 289 289 289 288 287 286 286 285 284 283 282 282 282 281 281 281 281 281 280 281 281 281 281 282 282 283 284 284 285 285 285 285 285 285 285 286 286 286 286 286 285 285 284 285 285 285 285 285
288 288 288 288 288 287 286 285 285 284 283 282 282 281 281 281 281 280 280 280 280 280 280 280 280 280 280 280 281 281 282 282 283 284 284 285 285 285 285 285 285 285 286 286 286 285 284 284 285 285 285 284
288 288 287 287 286 285 284 283 282 281 280 280 279 280 280 280 280 280 280 280 280 280 280 280 280 280 280 279 279 280 280 280 281 282 283 283 284 284 284 285 285 285 285 285 285 285 285 284 284 284 284 284

ECMWFFLT2_850_thetae_078.txt.gz
Theta_e
295 295 295 295 295 295 295 295 295 295 295 295 295 295 295 295 295 295 296 296 296 296 296 296 296 296 296 296 297 297 297 297 297 297 297 298 298 298 298 298 299 299 299 299 300 300 300 300 300 300 300 300
295 295 295 295 295 295 295 295 295 295 295 295 295 295 295 295 296 296 296 296 296 296 296 296 296 295 295 296 296 296 296 296 296 296 297 297 297 297 297 298 298 298 298 299 299 299 300 300 300 300 300 300
295 295 295 295 295 295 295 295 295 295 295 295 295 295 295 295 296 296 296 296 296 296 296 296 296 296 296 296 296 297 297 296 296 296 296 297 296 297 297 297 297 297 297 298 298 299 299 299 299 300 300 300
295 295 295 295 295 295 295 295 295 295 295 295 295 295 295 296 296 296 296 296 297 297 297 297 297 297 297 297 297 297 297 297 297 296 297 296 296 296 296 296 296 296 297 297 297 298 298 298 299 299 299 299
295 295 295 295 295 295 295 295 295 295 295 295 295 295 295 295 296 296 296 296 297 297 297 297 297 297 297 297 297 297 297 297 297 297 297 296 296 296 296 296 296 296 296 296 296 296 297 297 298 298 298 298
295 295 295 295 295 295 295 295 295 295 295 295 295 295 295 295 295 296 296 296 296 296 296 296 296 296 296 296 296 296 296 296 296 296 296 296 296 296 296 296 296 295 295 295 295 296 296 296 296 297 297 297
295 295 295 295 295 295 295 295 295 295 295 295 295 295 295 296 296 296 296 296 296 296 295 295 295 295 295 295 295 295 295 295 295 296 296 296 296 296 296 296 296 296 295 295 295 295 295 295 295 296 296 296
295 295 295 295 295 295 295 295 295 295 295 295 296 296 296 296 296 296 295 295 295 295 294 294 294 294 294 294 294 294 294 294 295 295 295 295 295 295 295 296 296 296 295 295 295 295 294 295 295 295 295 295
295 295 295 295 295 295 295 295 295 295 295 296 296 296 296 296 295 295 295 295 294 294 294 294 294 294 294 294 294 294 293 293 294 293 294 294 294 294 294 294 295 295 295 295 295 295 295 294 294 294 294 295
295 295 295 295 295 295 295 295 295 295 295 295 296 295 295 295 295 294 294 294 294 294 293 293 293 293 293 293 293 293 293 293 292 292 292 292 292 292 293 293 293 293 293 294 294 295 295 295 294 294 294 294
295 295 295 295 295 295 295 295 295 295 295 295 295 295 295 294 294 294 294 293 293 293 293 293 293 293 292 292 292 292 292 292 291 291 291 291 291 291 291 291 291 291 292 292 292 293 293 294 294 295 294 294
295 295 295 295 295 295 295 295 295 295 295 295 295 294 294 294 294 293 293 293 293 293 293 292 292 291 291 291 291 291 291 291 291 291 291 291 290 290 290 290 291 291 291 291 291 291 291 292 293 293 294 294
295 295 296 296 296 296 295 295 295 295 294 294 294 293 293 293 293 293 293 293 292 292 291 291 291 290 290 290 290 290 290 290 290 290 290 290 290 290 290 290 290 290 290 290 290 290 290 290 291 291 292 293
296 296 296 295 295 295 294 294 293 293 293 292 292 292 292 292 292 292 291 291 291 290 290 290 290 290 290 290 290 289 289 289 289 289 289 289 289 289 289 289 289 289 289 289 289 289 289 289 290 290 290 291
295 295 294 294 293 293 292 292 292 291 291 291 291 291 291 291 291 291 290 290 290 290 290 290 289 289 289 289 289 289 289 289 289 289 289 288 288 288 288 288 288 288 288 288 288 288 288 288 289 289 289 290
294 293 293 292 292 291 291 291 291 290 290 290 290 290 290 290 290 290 289 289 289 289 289 289 289 289 289 289 289 289 289 289 289 289 289 289 289 288 288 288 288 288 288 288 288 288 288 288 288 288 288 288
293 292 292 292 291 291 291 290 290 289 289 289 289 289 289 289 289 289 288 288 288 288 288 288 288 288 288 288 288 289 289 289 289 289 289 289 289 289 288 288 288 288 288 288 288 288 288 287 287 287 288 288
293 292 292 292 291 291 290 290 290 289 289 289 289 289 289 289 289 289 289 289 289 289 289 288 288 288 288 288 288 288 288 288 288 288 288 288 289 289 288 288 288 288 288 287 287 287 287 287 287 287 287 287
292 292 291 291 291 291 291 290 290 290 290 290 290 290 290 290 289 289 289 289 289 289 289 289 289 289 288 288 288 288 288 288 288 288 288 288 288 288 288 288 288 288 288 288 287 287 287 287 287 287 287 287
292 292 291 291 291 291 291 290 290 290 290 290 290 290 290 290 290 290 290 289 289 289 289 289 289 289 288 288 288 288 287 287 288 288 288 288 288 288 288 288 288 288 288 288 288 287 287 287 287 287 287 287
291 291 291 291 291 290 290 290 290 290 290 290 290 290 290 290 290 290 290 289 289 289 289 289 289 288 288 288 288 287 287 287 287 288 288 288 288 288 288 288 288 288 288 288 288 287 287 287 287 287 287 287
291 290 290 290 290 290 290 290 290 290 290 290 290 290 290 290 289 289 289 289 289 289 288 288 288 288 288 287 287 287 287 287 287 287 288 288 288 288 288 288 288 288 288 288 288 288 287 287 287 287 287 287
290 290 290 290 290 290 290 290 290 290 290 290 290 290 289 289 289 289 288 288 288 287 287 287 287 287 287 286 286 286 286 286 286 287 287 288 288 288 288 288 288 288 288 288 288 288 287 287 287 287 287 287
290 290 290 290 290 290 290 290 290 290 290 290 289 289 288 288 288 287 287 286 286 286 286 286 285 285 285 285 285 285 285 285 286 286 287 287 288 288 288 288 288 288 288 288 288 288 287 287 287 287 287 287
290 290 290 290 290 290 290 290 290 289 289 288 288 287 287 286 286 285 285 285 285 284 284 284 284 284 284 284 284 284 284 285 285 286 286 287 287 287 287 288 288 288 288 288 287 287 287 287 286 287 287 287
289 289 289 289 289 289 289 289 288 288 288 287 286 286 285 284 284 284 284 284 283 283 283 283 282 282 282 283 283 283 283 283 284 285 285 286 286 286 286 286 287 287 287 287 287 287 286 286 287 287 286 286
289 289 289 289 289 289 289 288 288 287 286 286 285 284 284 283 283 283 283 282 282 282 282 281 281 281 281 282 282 282 282 282 282 283 283 284 285 285 285 285 286 286 286 286 286 286 286 287 287 287 287 287
289 289 289 289 289 288 288 287 286 286 285 284 284 283 283 282 282 282 282 281 281 281 281 281 281 281 281 281 281 280 280 280 280 281 281 282 283 283 284 284 284 285 285 285 285 286 286 287 287 287 288 288
288 289 288 288 288 287 286 285 285 284 283 283 282 282 282 282 281 281 281 281 281 281 281 281 281 280 280 280 280 279 279 279 279 279 280 280 281 281 282 283 283 284 284 284 285 285 285 286 287 287 288 287
288 287 287 286 286 285 284 283 282 282 281 281 280 280 280 280 280 280 280 280 280 280 280 279 279 279 279 279 279 279 279 279 278 278 279 279 279 279 280 281 282 283 283 283 284 284 285 285 286 286 286 286
286 286 285 284 283 282 281 280 280 279 279 279 279 279 279 279 279 279 279 279 279 279 278 278 278 278 278 278 278 278 278 278 278 278 278 278 278 278 278 279 280 281 282 282 283 283 284 284 285 285 285 285

ECMWFFLT2_850_thetae_084.txt.gz
Theta_e
299 299 298 297 297 296 296 296 296 296 296 296 296 297 297 297 298 298 298 298 298 298 297 297 297 297 297 298 298 297 297 297 297 297 297 297 297 298 298 298 298 298 298 298 298 298 298 298 298 298 298 298
296 296 296 296 296 296 296 296 296 296 296 296 297 297 297 297 298 298 298 298 297 297 297 297 297 297 297 297 297 297 296 296 297 297 297 297 297 297 297 298 298 298 298 298 298 298 298 298 298 298 298 298
295 295 296 296 296 296 296 296 296 296 296 296 296 297 297 297 297 297 297 297 297 297 297 297 297 296 296 296 296 296 296 296 296 296 296 296 296 296 297 297 297 297 298 298 298 298 298 298 298 297 297 298
295 295 295 295 295 295 295 295 295 295 296 296 296 296 297 297 297 297 297 298 298 297 297 296 296 295 295 295 295 295 295 295 295 295 295 295 295 296 296 296 296 297 297 297 298 298 298 298 298 297 297 297
295 295 295 295 295 295 295 295 295 295 295 296 296 296 296 296 296 297 297 298 297 297 297 296 295 295 295 295 295 294 295 294 294 294 294 295 295 295 295 296 296 296 296 296 297 297 297 297 297 297 297 296
297 294 295 295 295 295 295 295 295 295 295 295 296 296 296 296 296 297 297 296 296 295 295 296 295 295 295 294 294 294 294 294 293 294 293 294 294 294 294 294 295 295 296 296 296 296 296 295 295 296 296 296
298 294 295 295 295 295 295 295 295 295 295 295 295 296 295 295 296 296 296 295 294 295 295 295 295 294 294 294 294 294 293 293 293 293 293 293 293 293 293 293 294 294 294 295 295 295 295 294 294 294 294 295
297 296 297 296 295 295 295 295 295 295 295 295 295 295 295 295 295 295 294 294 294 294 294 294 294 294 294 294 294 293 293 293 293 293 292 292 292 292 292 292 292 292 292 293 293 293 293 293 293 293 293 294
297 297 296 296 295 295 295 295 295 295 295 295 295 295 295 294 294 294 294 294 295 294 294 294 294 293 293 293 293 292 292 292 292 291 291 291 291 291 291 291 291 291 291 291 291 292 292 292 292 292 293 293
296 295 295 296 296 295 296 295 295 295 295 295 295 295 294 294 295 295 295 295 295 294 294 293 293 293 293 292 292 291 291 291 291 290 290 290 290 290 290 290 290 291 291 291 291 291 291 292 292 292 292 292
295 294 294 295 295 295 296 296 296 296 295 295 295 294 294 294 295 295 295 294 294 294 293 293 293 292 291 291 291 291 291 291 290 290 290 290 290 290 290 290 290 290 291 291 291 292 292 292 292 292 292 292
294 294 295 294 294 295 295 295 295 295 294 294 294 294 294 293 294 294 294 294 293 293 293 292 292 291 291 291 291 291 291 291 291 290 290 290 289 289 289 289 289 290 290 290 291 291 292 292 292 292 291 292
295 295 295 295 294 294 294 294 294 294 294 294 294 294 293 292 292 293 293 293 293 292 292 291 291 292 292 292 292 291 291 291 291 291 290 289 289 289 289 289 289 289 289 290 290 290 291 292 292 292 291 291
295 295 294 294 294 294 294 293 293 293 293 293 292 291 290 290 290 290 291 291 291 290 290 290 290 291 292 291 291 291 292 291 291 291 289 289 289 289 289 290 290 290 290 290 290 290 291 291 291 292 291 291
294 294 293 293 293 293 292 292 292 291 291 291 290 290 290 290 290 290 290 290 290 290 290 290 290 290 290 290 290 290 291 291 291 290 289 289 289 289 289 289 289 290 290 290 290 290 290 290 291 291 291 291
292 292 291 291 290 290 290 290 290 290 290 290 290 290 290 290 290 290 290 290 290 290 290 290 290 290 290 290 290 290 291 291 290 289 289 289 289 289 289 289 289 289 290 290 290 290 290 290 290 290 290 291
291 290 290 290 290 290 290 290 290 290 290 290 290 290 291 291 291 291 291 290 290 290 290 290 289 289 289 289 290 290 290 290 289 289 289 289 289 289 289 289 289 289 289 289 289 289 289 289 289 289 290 290
290 290 290 290 290 290 290 290 290 290 290 290 290 290 290 291 291 290 291 290 289 289 289 288 288 288 288 288 289 289 289 289 288 288 288 288 288 289 289 289 289 289 289 289 289 289 289 289 289 289 289 290
289 289 289 289 289 289 289 289 289 289 290 290 290 290 290 290 290 290 290 289 288 288 288 287 287 287 287 287 288 288 288 287 287 287 287 287 288 288 288 288 288 288 288 289 289 289 289 289 289 289 289 289
288 288 288 288 288 288 288 289 289 289 289 290 290 290 290 290 289 289 289 288 287 287 287 286 286 286 286 286 286 286 286 286 286 286 286 286 287 287 288 288 288 288 288 288 288 288 288 289 289 289 289 289
288 288 288 288 288 289 288 288 289 289 289 289 289 290 289 289 288 288 288 287 286 287 286 286 285 284 284 285 285 285 285 285 285 285 285 286 286 287 287 287 287 286 286 287 287 287 287 288 288 288 288 288
289 289 289 290 290 290 290 289 288 287 287 288 288 288 288 288 287 287 287 286 286 286 285 285 284 284 284 284 284 284 284 284 284 284 284 285 285 285 285 285 285 285 285 286 286 286 287 287 287 287 287 287
290 290 291 291 291 290 290 289 287 286 286 286 286 287 286 286 286 286 285 285 285 285 284 284 283 283 283 283 283 283 283 283 283 283 283 283 283 283 283 284 284 284 285 286 286 286 287 287 286 287 287 287
291 291 291 291 290 289 289 288 286 285 285 285 285 285 284 284 284 284 284 284 284 284 283 283 282 282 282 282 282 283 283 283 282 282 282 282 282 282 283 283 283 284 285 286 286 286 285 286 286 287 287 287
290 290 290 289 288 288 287 286 285 284 284 284 284 284 283 283 283 283 283 282 283 283 282 282 282 281 281 282 282 282 282 282 282 281 281 281 281 281 282 282 283 283 284 284 284 285 286 286 286 286 287 287
289 289 288 287 287 286 286 286 285 284 284 284 284 283 283 282 282 282 282 281 281 281 281 281 281 281 281 281 281 281 281 281 281 280 280 280 280 281 281 281 282 282 283 284 285 286 286 285 286 286 287 288
288 287 287 286 286 286 285 285 285 284 284 283 283 283 282 282 281 281 281 280 280 280 280 280 280 280 281 280 280 280 280 280 280 280 280 279 279 280 280 281 281 282 283 284 285 285 285 285 286 286 286 287
287 286 285 285 285 284 284 284 284 283 283 282 282 281 281 280 280 279 279 279 279 279 278 278 279 279 279 279 278 278 279 279 279 279 279 278 279 279 280 280 280 280 281 282 283 283 284 284 285 285 285 287
285 285 284 284 284 284 283 283 282 282 282 281 281 280 279 279 278 278 278 278 278 278 277 277 277 278 279 278 277 277 278 278 278 277 277 278 278 279 279 278 279 279 279 280 280 282 283 284 284 285 285 285
284 284 283 283 283 283 282 282 281 280 280 279 278 278 278 277 277 277 277 277 276 276 276 275 276 277 278 277 277 277 277 277 277 277 277 277 277 277 277 277 277 277 278 279 279 281 282 283 283 284 284 284
283 283 283 282 282 281 281 280 280 279 278 277 277 277 276 276 276 275 276 276 275 275 275 274 275 276 276 276 276 276 276 276 276 276 276 276 276 276 276 276 276 277 277 278 278 279 280 282 283 283 283 284

ECMWFFLT2_850_thetae_087.txt.gz
Theta_e
305 305 304 304 304 303 303 302 300 297 296 296 296 296 296 296 296 296 296 297 296 297 297 297 297 297 297 298 298 297 297 297 297 297 296 296 296 296 296 296 296 297 297 297 297 297 297 298 298 298 298 298
304 303 302 302 301 300 300 298 297 296 296 296 296 296 296 296 296 296 297 296 296 297 296 297 297 297 297 297 297 296 296 296 296 296 296 296 295 296 295 296 296 295 296 296 296 296 296 297 297 297 297 297
299 298 298 297 296 296 296 296 296 296 296 296 296 296 296 296 296 296 297 297 297 297 296 296 296 296 296 296 296 296 295 295 295 295 295 295 295 295 295 295 295 295 295 295 295 296 296 296 296 296 296 296
294 295 294 295 295 295 295 295 295 295 295 295 295 295 295 295 295 296 297 297 297 297 297 297 296 296 296 296 295 295 295 295 295 295 294 294 294 294 294 294 294 294 294 294 294 294 295 295 295 295 295 296
294 294 294 294 295 295 295 295 295 295 295 295 295 295 295 295 295 296 296 297 297 297 297 297 296 296 296 295 295 295 295 294 294 294 294 294 294 294 294 294 294 294 294 294 294 294 294 294 294 295 295 295
295 294 294 294 294 294 294 294 294 294 295 295 295 295 295 295 295 295 296 296 295 295 295 296 296 296 295 295 295 294 294 294 293 293 293 293 293 294 294 294 294 293 294 294 294 294 294 294 294 294 294 294
297 294 295 295 295 295 295 295 295 295 295 295 295 295 294 294 294 294 295 294 294 294 295 295 295 295 295 294 294 294 294 293 293 293 293 293 293 293 293 293 293 293 293 294 294 294 294 294 293 294 294 294
298 296 296 295 295 295 295 295 295 295 295 295 295 295 294 294 294 294 294 294 294 295 295 295 295 294 294 294 293 293 293 293 294 294 293 293 293 293 293 293 293 293 293 293 293 293 293 293 293 293 294 294
298 297 296 296 295 295 295 295 295 295 295 295 295 295 295 294 294 294 295 295 295 295 295 295 294 294 293 293 292 292 292 292 293 293 293 293 293 293 293 293 293 293 293 293 292 292 293 293 293 293 293 294
296 296 295 296 296 296 296 296 296 296 296 295 295 295 294 294 294 295 295 295 295 295 295 294 294 294 293 292 291 291 291 292 292 292 292 292 292 292 292 292 292 292 293 293 293 293 293 293 292 293 293 293
295 295 295 296 296 296 296 296 296 296 295 295 295 294 294 294 294 294 294 295 295 295 294 294 293 292 292 291 291 291 291 291 291 291 291 292 291 291 291 291 292 292 292 293 293 293 293 293 293 293 293 293
295 295 295 295 296 296 296 295 295 295 294 294 294 294 293 293 293 294 294 294 294 294 293 293 291 290 290 290 291 291 291 290 291 291 291 291 291 290 291 291 291 291 291 291 292 292 293 293 293 293 293 293
295 295 295 294 295 295 294 294 294 294 294 294 293 293 291 291 291 292 292 292 292 291 291 290 290 290 289 290 290 290 290 290 291 291 291 291 290 290 290 290 290 290 291 291 291 291 292 292 292 293 293 293
295 294 294 294 294 293 293 293 293 293 293 292 292 291 290 290 290 290 290 290 290 290 290 290 290 290 290 290 290 290 290 290 290 290 291 291 290 290 290 290 290 290 290 290 290 291 291 291 291 291 292 292
293 293 293 292 292 292 291 291 291 291 291 291 290 290 290 291 291 291 291 291 291 291 290 290 290 290 290 290 290 290 290 290 290 290 290 290 290 290 290 290 290 289 290 290 290 290 290 290 290 290 291 291
291 291 291 291 291 290 290 290 290 290 290 290 290 291 291 291 291 291 291 291 291 291 291 290 290 289 289 289 290 290 290 290 290 290 290 290 290 289 289 289 289 289 289 289 290 290 290 289 289 289 290 290
290 290 290 290 290 290 290 290 289 290 290 290 290 290 291 291 291 291 291 291 291 291 290 290 289 288 288 288 289 289 289 289 289 289 289 289 289 288 288 288 288 288 289 289 289 289 289 289 289 289 289 289
289 289 289 289 289 289 289 289 289 289 290 290 290 291 291 291 291 291 291 291 290 290 290 290 289 288 287 287 288 288 288 288 288 288 288 287 287 287 288 288 288 288 288 289 289 289 288 288 289 289 289 289
288 288 289 289 289 289 289 290 290 290 290 291 291 291 291 291 291 290 290 290 290 290 289 289 289 288 287 287 287 287 287 287 287 286 286 286 287 287 287 287 287 287 287 288 288 288 288 288 288 288 288 288
288 289 289 289 290 290 290 290 290 290 290 290 290 290 290 290 290 290 290 289 289 289 289 288 288 288 287 287 287 287 287 286 286 286 286 286 286 286 286 286 286 286 287 287 287 287 287 287 287 287 287 288
290 290 290 291 291 291 291 290 290 290 290 289 289 289 289 289 290 290 289 289 289 288 288 288 287 287 286 286 286 286 286 286 285 285 285 285 285 285 285 285 285 285 285 285 286 286 286 286 286 287 287 287
292 292 292 292 291 291 291 290 289 289 289 289 289 288 288 288 288 288 288 288 288 287 287 287 286 286 285 286 285 285 285 285 284 284 283 284 284 284 284 284 284 284 284 285 285 285 286 286 286 287 287 287
292 292 292 291 291 291 291 290 289 288 288 288 287 287 287 287 287 287 287 286 286 286 286 286 285 285 285 284 284 284 284 283 283 283 282 282 283 283 283 283 283 283 284 284 284 285 285 285 286 286 286 287
292 292 291 291 291 291 290 289 288 288 287 287 286 286 285 285 285 285 285 284 284 284 283 284 284 284 283 283 282 282 282 282 282 282 282 281 282 282 282 282 282 282 282 283 283 284 284 285 285 286 286 286
291 290 290 290 289 289 288 287 287 286 286 286 285 285 284 284 284 283 283 283 282 282 282 281 282 282 282 282 281 281 281 281 281 280 280 280 280 280 281 281 282 281 282 282 282 283 284 284 285 285 285 286
288 288 288 287 287 286 286 286 285 285 285 284 284 283 283 283 282 282 282 281 281 281 280 280 280 280 281 281 280 280 280 279 279 279 279 279 279 279 280 280 281 281 281 281 282 282 283 283 284 285 285 285
286 286 285 285 285 285 284 284 284 284 283 283 283 282 282 281 280 280 280 279 279 279 279 279 279 279 279 280 279 279 279 279 279 278 278 278 279 279 279 279 280 280 280 280 280 281 281 282 283 284 284 285
285 285 284 284 284 283 283 283 283 283 282 282 282 281 280 280 279 278 278 278 278 277 277 278 277 278 278 279 278 278 278 278 278 278 278 278 278 278 278 278 279 279 279 279 279 279 280 281 282 283 283 284
284 284 284 283 283 283 283 282 282 282 281 281 280 280 279 278 277 277 276 276 276 276 276 276 276 276 277 277 277 277 276 276 276 277 277 277 277 277 277 277 278 278 278 278 278 278 279 279 280 281 281 282
284 283 283 283 282 282 282 281 281 280 279 279 278 278 277 277 276 276 275 275 275 275 274 275 275 275 275 276 276 275 275 275 275 276 276 276 276 276 276 276 276 277 277 277 277 278 278 278 278 278 279 279
283 283 282 282 281 281 280 279 279 278 277 277 276 276 276 276 275 275 275 275 274 274 274 274 274 274 275 275 274 274 274 275 275 275 275 275 275 275 275 275 275 275 276 277 277 277 277 278 278 278 278 278

ECMWFFLT2_850_thetae_090.txt.gz
Theta_e
306 306 305 305 305 304 303 301 300 297 296 295 295 295 295 296 296 296 296 296 296 296 296 296 296 296 296 296 296 296 296 296 296 296 296 296 295 295 295 296 296 296 296 296 296 297 297 297 297 297 297 298
304 304 304 303 302 301 299 297 295 295 295 295 295 295 295 295 296 296 296 296 296 296 296 296 295 295 295 295 295 295 295 295 295 295 295 295 295 294 295 295 295 295 295 295 296 296 296 296 296 297 297 297
302 300 299 298 297 297 295 294 294 294 294 295 295 295 295 295 296 296 296 296 296 296 296 296 295 295 295 295 295 295 295 294 294 294 294 294 294 294 294 294 294 294 294 294 295 295 295 295 295 296 296 296
297 296 295 295 295 294 294 294 294 294 294 294 294 294 295 295 295 295 295 296 296 296 296 295 295 295 295 295 295 294 294 294 294 294 293 293 293 293 293 293 294 294 294 294 294 294 294 294 294 295 295 295
294 294 293 294 294 293 294 294 294 294 294 294 294 294 295 295 294 295 295 295 295 295 295 295 295 295 295 295 294 294 294 294 294 293 293 293 293 293 293 293 293 293 293 293 293 294 294 294 293 294 294 294
294 294 294 294 294 295 294 295 295 295 294 294 295 295 295 294 294 294 295 295 294 295 295 295 295 295 295 295 294 294 294 294 293 293 293 293 293 293 293 293 293 293 293 293 293 293 293 293 293 293 293 293
296 295 295 295 295 295 295 295 295 295 295 295 295 295 295 294 294 294 294 294 295 295 295 295 295 295 295 294 294 294 294 293 293 293 293 293 294 293 293 293 293 293 293 293 293 293 293 293 293 293 293 293
298 296 296 295 295 295 295 295 295 295 295 295 295 295 295 294 294 294 294 294 295 295 295 295 295 295 295 294 293 293 293 293 293 293 294 294 294 294 294 293 293 293 293 293 293 292 292 292 292 292 293 293
297 296 296 296 296 296 296 296 296 296 295 295 295 295 295 294 294 294 294 294 295 295 294 294 294 294 294 293 293 292 292 292 293 293 294 294 294 294 293 293 293 293 293 293 293 292 292 292 292 292 292 292
296 296 296 296 296 296 296 296 296 296 296 295 295 295 294 294 294 294 294 294 294 294 294 294 294 293 293 292 291 291 291 292 292 292 292 293 293 293 293 293 293 293 293 293 293 293 293 293 292 292 292 292
295 295 296 296 295 296 295 295 295 295 295 295 295 294 294 294 293 293 294 294 294 294 293 293 292 292 291 290 290 290 291 291 291 291 291 291 292 292 292 292 292 292 292 292 292 293 293 293 293 293 293 293
295 295 295 295 295 295 295 294 295 295 294 294 294 294 293 292 292 292 292 292 292 292 291 291 291 290 290 290 290 290 290 291 291 291 291 291 291 291 291 291 291 292 292 292 292 292 293 293 293 293 293 293
295 294 294 294 294 293 293 293 294 293 293 293 293 293 292 291 291 290 291 291 291 291 291 291 291 291 291 290 290 290 290 291 291 291 291 291 291 291 291 291 291 292 292 292 292 292 292 293 293 293 294 294
295 294 294 293 293 292 292 292 292 292 292 292 292 291 291 290 291 291 291 291 291 291 291 291 291 291 291 291 291 291 291 290 291 291 291 291 291 291 291 291 291 292 292 292 292 292 292 292 293 293 294 294
294 294 294 293 293 292 292 292 291 291 291 291 291 290 291 291 291 291 291 292 292 292 292 292 292 292 292 291 291 291 291 291 290 290 290 290 291 291 291 291 291 291 291 292 292 292 292 292 292 293 293 293
293 293 293 292 292 291 291 291 290 290 290 290 290 291 291 291 291 292 292 292 292 292 292 292 292 292 292 292 292 291 291 291 290 290 290 290 290 290 290 290 290 290 291 291 291 291 291 291 292 292 292 292
292 291 291 291 290 290 290 290 290 290 290 290 290 291 291 291 292 292 292 292 292 292 292 292 292 292 292 292 292 292 292 291 291 290 290 289 289 289 289 290 290 290 290 290 290 291 291 291 291 291 291 291
290 290 290 289 289 290 290 290 290 290 291 291 291 292 292 292 292 292 292 291 291 291 291 292 291 291 292 292 292 292 291 291 291 291 290 290 290 289 289 289 289 289 290 290 290 290 290 290 291 290 291 291
289 289 289 289 290 290 291 291 291 291 292 292 292 292 292 292 292 292 292 292 292 291 291 291 291 291 291 291 291 291 291 291 291 291 290 290 290 290 289 289 289 289 289 289 289 289 290 290 290 290 290 290
290 290 291 291 291 291 291 292 292 292 292 292 292 291 291 292 292 292 291 291 291 291 291 291 291 291 291 290 290 290 290 290 290 290 290 289 289 289 290 289 289 289 289 289 289 289 289 289 289 289 289 290
292 292 292 292 292 292 291 291 291 291 291 291 290 290 290 290 290 290 290 290 290 289 289 289 289 289 289 289 289 289 289 288 288 288 289 289 288 287 288 288 288 288 288 288 288 289 289 289 288 288 289 289
293 292 292 292 291 291 290 290 289 289 289 289 289 288 288 288 288 287 287 287 287 287 287 287 287 287 287 287 287 287 286 286 286 286 286 287 287 286 285 286 286 286 286 287 287 288 288 287 287 287 288 288
291 291 291 290 290 289 289 289 288 288 287 287 287 287 286 286 286 285 285 285 285 285 285 285 285 285 285 285 285 285 284 284 284 284 284 284 285 285 284 284 284 284 284 285 286 286 286 287 287 287 287 287
288 288 288 288 288 287 287 287 286 286 285 285 285 285 285 284 284 284 284 284 284 284 283 283 283 283 283 282 282 282 282 282 282 282 282 282 283 283 283 283 282 282 283 284 285 285 285 286 286 286 286 286
286 286 286 286 286 286 285 285 285 284 284 284 283 283 283 283 283 282 282 282 282 282 282 282 282 282 281 281 281 281 280 280 280 280 280 281 281 281 281 282 281 281 281 282 283 284 285 286 285 285 285 285
285 285 285 285 285 285 284 284 284 283 283 283 282 282 282 282 281 280 280 280 279 279 279 279 279 279 279 279 279 279 279 279 279 278 278 279 279 279 279 280 280 280 280 280 281 282 283 285 285 285 285 284
284 283 283 283 284 284 283 283 283 282 282 281 281 281 280 280 279 279 278 278 278 277 277 277 277 277 277 277 278 278 278 278 277 277 277 278 278 278 278 278 278 278 278 278 278 279 279 281 282 283 284 284
284 283 282 282 283 283 282 282 282 281 280 279 279 279 279 278 278 277 277 276 276 276 276 276 276 276 276 276 276 276 276 276 276 276 276 276 276 277 277 277 278 278 277 277 277 276 277 278 278 280 282 283
283 283 282 281 281 282 282 281 281 280 279 278 278 277 277 277 276 276 276 275 275 275 275 275 275 275 275 275 275 275 275 275 275 275 275 275 275 276 275 276 276 277 277 276 276 275 275 276 277 278 279 280
283 283 282 281 281 281 281 280 279 278 277 277 277 276 276 276 276 275 275 275 274 274 274 274 274 274 274 274 274 274 274 274 274 274 274 274 274 275 274 274 275 275 276 276 276 275 274 275 275 276 276 276
283 283 282 281 280 280 280 279 278 277 276 276 276 275 275 275 275 275 274 274 273 273 273 273 273 273 273 273 273 273 273 273 273 273 273 273 274 274 273 273 273 274 274 275 275 275 274 274 275 274 274 274

ECMWFFLT2_850_thetae_093.txt.gz
Theta_e
306 306 305 306 304 303 300 297 296 294 294 294 294 294 294 294 295 295 296 296 296 296 296 296 295 295 295 295 296 295 295 295 295 295 294 294 294 294 295 295 295 295 295 295 296 296 296 297 297 297 297 298
304 303 303 303 301 297 295 294 294 294 294 294 294 294 294 295 295 295 295 296 296 296 296 296 296 296 295 296 296 295 295 295 294 294 294 294 294 294 294 294 294 295 295 295 295 295 295 296 296 297 297 297
300 298 297 296 295 294 294 294 294 294 294 294 294 294 295 295 295 295 295 295 296 296 296 296 296 296 296 296 296 295 295 295 294 294 294 294 294 294 294 294 294 294 294 294 295 295 295 295 295 296 296 296
295 296 294 293 294 294 294 294 294 294 294 294 294 294 295 295 295 295 295 295 295 296 296 296 296 296 296 296 296 295 295 295 294 294 293 293 293 294 294 294 294 294 294 294 294 294 294 294 294 295 295 295
294 294 294 295 295 295 295 295 295 295 295 295 295 294 295 295 295 294 295 295 295 295 295 295 295 296 296 296 296 296 296 296 295 294 293 293 293 293 294 294 294 293 294 294 294 294 294 294 294 294 294 294
295 295 295 295 295 296 295 295 295 295 295 295 295 295 295 295 295 294 294 294 294 295 295 295 295 295 295 295 295 295 295 295 295 294 293 293 293 293 293 294 294 293 293 293 293 293 293 293 294 294 294 294
298 296 295 295 295 296 295 295 295 295 295 295 295 295 295 295 295 294 294 294 294 294 294 295 295 295 295 295 294 294 294 294 293 293 293 293 293 293 293 293 293 293 293 293 293 293 293 293 293 293 293 293
299 298 297 296 296 295 295 295 295 295 295 296 295 295 295 295 294 294 294 294 294 294 294 294 294 294 294 294 293 293 292 292 292 292 292 292 292 292 293 293 293 293 293 293 293 293 293 293 293 293 293 293
299 299 299 298 297 296 296 295 295 295 296 296 295 295 295 294 294 294 294 294 294 294 294 294 294 293 293 292 292 291 291 291 291 291 291 291 291 291 292 292 292 292 292 293 293 293 293 293 293 292 292 292
298 298 298 297 297 296 296 296 296 295 295 295 295 295 294 294 294 293 293 293 293 293 293 293 293 292 291 291 291 291 291 291 291 291 291 291 291 291 291 291 291 292 292 292 292 292 293 293 293 293 292 292
296 296 296 296 296 296 296 296 295 295 295 295 295 294 294 293 293 292 292 292 292 292 292 291 291 291 291 291 291 291 291 291 291 291 291 291 291 291 291 291 291 291 291 292 292 292 292 292 292 292 292 292
296 296 296 296 296 296 295 295 295 294 294 294 294 294 293 293 292 291 291 291 291 291 291 291 291 291 291 291 292 292 292 292 291 291 291 291 291 291 291 291 291 291 291 291 291 292 292 292 292 292 292 292
295 295 295 295 295 294 294 294 294 293 293 293 293 292 292 291 291 291 291 291 291 291 291 291 292 292 292 292 292 292 292 292 292 292 292 291 291 291 291 291 291 291 291 291 291 291 292 292 292 292 292 292
295 295 294 294 294 293 293 293 292 292 292 292 291 291 291 290 290 291 291 291 292 292 292 292 292 292 292 292 292 292 292 292 292 292 292 292 292 292 291 291 291 291 291 291 291 291 292 292 292 292 292 292
294 294 294 293 293 293 292 292 291 291 291 290 290 290 290 291 291 291 292 292 292 292 292 292 292 292 292 292 292 292 292 292 292 292 292 292 292 292 292 292 291 291 292 292 292 291 291 292 292 292 292 292
293 293 293 292 292 292 291 291 290 290 290 290 290 291 291 291 292 292 292 293 293 293 293 293 293 293 293 293 293 292 292 292 292 292 292 292 292 291 291 291 291 291 291 292 292 291 291 291 291 291 291 292
292 292 292 291 291 291 290 290 290 290 290 291 291 292 292 292 293 293 293 293 293 293 293 293 293 293 293 293 293 293 292 292 292 292 292 291 291 291 291 291 291 291 291 291 291 291 291 291 291 291 291 291
291 291 291 291 290 290 290 290 291 291 292 292 292 292 293 293 293 293 293 293 293 293 293 293 293 293 293 292 292 292 292 292 292 292 292 292 291 291 291 291 291 291 291 291 291 292 291 291 291 291 291 291
290 291 291 291 291 291 291 292 292 292 292 292 293 293 293 293 293 292 292 292 292 292 292 292 292 292 292 291 291 291 291 291 291 291 291 291 291 291 291 291 291 291 291 292 292 292 292 292 291 291 291 291
291 291 291 292 292 292 292 292 292 292 292 292 292 292 291 291 291 291 291 291 291 291 290 290 290 290 290 290 289 289 289 289 289 289 290 290 290 290 291 291 291 291 291 291 292 292 291 291 291 292 292 292
291 291 291 291 290 290 290 290 290 290 290 290 290 290 290 290 289 289 289 289 289 289 288 288 288 288 288 288 288 288 287 287 287 287 288 288 288 288 289 289 289 290 290 290 291 291 291 291 291 291 291 291
290 289 289 288 288 287 287 287 287 287 287 287 288 288 288 288 288 287 287 287 287 287 287 286 286 286 286 286 286 286 285 285 285 285 286 286 287 286 286 286 287 287 288 289 290 291 291 291 291 291 291 291
288 288 287 287 286 286 285 285 285 285 285 285 285 285 285 285 285 285 285 285 285 285 285 285 285 285 285 285 285 284 284 284 284 284 284 284 285 285 284 284 284 284 285 287 288 289 289 290 290 290 290 290
287 287 287 286 286 285 285 284 284 284 284 284 284 284 284 283 283 283 283 283 283 283 283 283 283 283 282 282 282 282 282 282 282 282 282 282 282 283 283 283 282 282 283 284 286 286 287 287 287 288 288 287
287 286 286 286 285 285 284 284 283 283 283 283 283 283 282 282 281 281 281 281 281 281 281 281 281 281 281 280 280 280 280 280 280 280 280 280 280 280 281 281 281 280 281 282 284 285 287 287 286 286 286 286
286 286 285 285 285 284 284 283 283 282 282 282 282 282 281 280 280 279 279 279 279 279 279 279 279 279 279 279 279 278 278 278 278 278 278 278 278 279 279 279 279 279 279 280 280 281 284 286 286 286 285 285
286 285 285 284 284 284 283 283 282 281 281 281 281 280 280 279 279 279 278 278 278 278 277 277 277 277 277 277 277 277 277 277 277 277 277 277 277 277 278 278 278 277 277 277 277 278 279 281 282 283 284 284
285 285 285 284 284 283 283 282 281 281 280 279 279 279 279 278 278 278 278 277 277 277 277 277 277 277 276 276 276 276 276 276 276 276 276 276 275 276 276 277 277 277 276 276 276 276 276 277 277 279 281 282
285 285 285 284 284 283 283 282 282 281 280 279 278 278 278 278 278 278 277 277 276 276 276 276 276 276 276 276 275 275 275 275 275 275 275 274 274 274 274 275 276 276 275 275 275 274 274 275 275 276 277 279
286 285 285 284 284 284 283 283 282 281 280 279 278 278 278 277 277 277 277 276 276 276 275 275 275 275 275 275 275 274 274 274 274 274 274 273 273 274 273 273 274 274 274 274 274 273 273 274 274 274 274 274
286 285 285 284 284 283 283 282 281 280 279 278 278 277 277 277 277 276 276 276 276 275 275 274 274 275 274 274 274 274 274 274 273 273 273 273 273 273 272 273 273 273 273 274 274 273 273 273 273 272 272 272

ECMWFFLT2_850_thetae_096.txt.gz
Theta_e
305 304 304 304 304 300 295 295 295 294 295 294 294 294 294 294 294 294 295 295 295 295 295 296 295 296 298 299 299 299 299 296 295 296 296 296 296 296 296 295 295 295 296 296 296 296 296 296 296 297 297 297
304 302 301 300 299 296 294 294 294 294 294 294 294 294 294 294 294 294 295 295 295 295 295 295 295 295 296 297 297 296 296 296 295 295 295 295 294 294 295 295 295 295 295 295 296 296 296 296 296 296 297 297
303 300 297 295 295 294 294 294 294 294 294 294 294 294 294 294 294 294 295 295 295 295 295 295 295 295 295 295 295 296 295 295 295 295 294 294 294 294 295 295 294 294 294 294 295 295 295 295 295 296 296 296
301 297 295 295 296 296 296 296 296 296 295 295 295 295 295 295 295 295 295 295 295 295 295 295 295 295 295 295 295 295 295 295 295 294 294 294 294 294 294 294 294 294 294 294 294 294 294 295 295 295 295 295
298 298 298 298 298 299 298 298 297 296 296 295 295 295 295 295 295 295 295 295 295 294 295 295 295 295 295 295 294 294 294 294 293 293 293 293 293 293 293 293 293 293 293 293 294 293 293 294 294 294 294 294
299 300 300 299 299 299 299 298 298 297 297 296 295 295 295 295 295 295 295 294 294 294 294 294 294 294 294 294 294 294 293 293 292 292 292 292 293 293 293 293 293 293 293 293 293 293 293 293 293 294 294 294
301 300 300 300 299 299 299 298 298 298 297 296 296 295 295 295 295 295 294 294 294 294 294 294 294 294 293 293 293 292 292 292 292 292 292 292 292 293 293 293 293 293 293 293 293 293 293 293 293 293 294 294
300 300 300 300 299 299 299 298 298 298 297 296 296 295 295 295 295 294 294 294 294 293 293 293 293 292 292 292 291 291 291 292 292 292 292 292 292 292 293 293 293 293 293 293 293 293 293 293 293 293 293 293
300 299 299 299 299 298 298 298 298 297 297 296 295 295 295 294 294 294 294 293 293 293 292 292 292 292 291 291 291 291 292 292 292 292 292 292 292 292 293 293 293 293 293 293 293 293 293 293 293 293 293 293
299 298 298 298 297 297 297 297 297 296 296 295 295 294 294 294 294 293 293 293 292 292 292 291 291 291 291 291 292 292 292 292 292 292 293 293 293 293 293 293 293 293 293 293 293 293 293 293 293 293 293 293
297 297 297 296 296 296 296 296 295 295 295 294 294 294 294 293 293 293 293 292 292 291 291 291 291 291 292 292 292 292 293 293 293 293 293 293 293 293 293 293 293 293 293 293 293 293 293 293 293 293 293 293
296 296 295 295 295 295 295 294 294 294 294 293 293 293 293 293 292 292 292 291 291 291 291 291 292 292 292 293 293 293 293 293 293 293 293 293 293 293 293 293 293 293 293 293 293 293 293 293 292 292 292 293
296 295 295 295 294 294 294 294 293 293 293 293 292 292 292 292 291 291 291 291 291 291 292 292 292 293 293 293 293 294 294 294 294 294 294 294 294 294 294 294 294 293 293 293 293 293 293 293 293 292 292 292
295 295 294 294 294 293 293 293 293 292 292 292 291 291 291 291 291 291 291 291 291 292 292 293 293 293 293 294 294 294 294 294 294 294 294 294 294 294 294 294 294 294 294 294 294 293 294 294 293 293 293 292
294 294 293 293 293 293 292 292 292 291 291 291 291 290 290 290 291 291 291 292 292 292 293 293 293 293 294 294 294 294 294 294 294 294 294 294 294 294 295 295 294 294 294 294 294 294 294 294 294 294 293 293
293 293 292 292 292 291 291 291 291 291 291 291 291 291 291 291 291 292 292 292 293 293 293 293 293 293 293 293 294 294 294 294 294 294 294 294 294 294 294 294 294 294 294 294 294 293 293 293 293 293 293 293
292 292 291 291 291 291 291 291 291 291 291 291 291 292 292 292 292 292 292 293 293 293 293 293 293 293 293 293 293 293 293 293 293 293 293 293 293 293 293 293 293 293 293 293 293 293 293 293 293 293 293 293
291 291 291 291 291 291 291 291 291 292 292 292 292 292 292 292 292 292 292 292 292 292 292 292 292 292 292 292 292 292 291 292 292 292 292 292 292 292 292 292 292 292 293 293 293 293 292 292 292 292 292 293
291 291 291 291 291 292 292 292 291 291 291 291 291 291 291 290 290 290 290 290 290 290 290 290 290 290 290 290 290 289 289 289 289 290 290 290 291 291 291 291 291 291 292 292 292 292 292 292 292 291 292 292
291 291 291 291 291 291 290 290 289 289 289 288 288 288 288 288 287 288 287 287 287 287 287 287 287 287 287 287 287 287 287 287 287 287 287 287 288 288 289 289 290 290 290 291 291 291 291 291 291 291 291 291
291 291 290 289 289 289 288 288 287 287 287 287 286 286 286 286 286 286 286 286 286 286 285 285 285 285 285 285 285 285 285 285 285 285 285 285 285 285 286 286 287 287 288 289 290 290 290 290 290 290 290 289
289 288 288 288 288 287 287 287 286 286 286 285 285 285 285 284 284 284 284 284 284 284 284 284 284 284 284 284 284 284 283 283 283 283 283 284 284 283 284 284 284 285 285 286 287 288 289 289 289 289 289 288
288 288 288 288 287 287 286 286 286 285 285 285 284 284 284 284 283 283 283 283 283 283 283 283 283 283 283 283 283 282 282 282 282 282 282 282 282 282 282 282 282 282 283 284 285 285 286 287 287 287 287 286
289 289 289 288 287 286 286 285 285 285 285 284 284 284 283 283 283 282 282 282 282 282 282 282 282 282 281 281 281 281 281 281 281 281 281 281 281 281 281 281 280 280 281 282 283 284 284 285 285 285 285 285
289 289 288 288 287 286 286 285 285 284 284 284 283 283 283 282 282 282 281 281 281 281 281 281 281 281 281 280 280 280 280 280 280 280 280 280 279 279 280 280 279 279 279 280 281 283 284 284 284 284 284 284
289 289 288 287 286 286 285 285 284 284 284 283 283 283 282 282 281 281 281 280 280 280 280 280 280 280 280 280 280 279 279 279 279 279 279 279 279 279 279 278 278 278 278 278 279 279 282 283 283 282 282 282
289 288 287 286 286 286 285 285 284 284 283 283 282 282 282 281 281 280 280 280 279 279 279 279 279 279 279 279 279 279 279 278 278 278 278 278 278 278 278 278 277 277 277 277 277 277 278 279 280 280 281 281
288 287 286 286 286 286 285 285 284 284 283 283 282 282 281 280 280 279 279 279 279 278 278 279 279 279 278 278 278 278 278 278 278 277 277 277 277 277 277 277 277 276 276 275 275 275 276 276 277 277 279 280
287 287 286 286 286 286 285 285 284 284 283 283 282 282 281 280 279 279 278 278 278 278 278 278 278 278 277 277 277 277 277 277 277 277 276 276 276 276 276 276 276 276 275 275 274 274 273 274 274 275 276 277
287 287 286 286 286 286 286 285 285 284 284 283 282 282 281 280 279 278 278 278 278 277 277 277 277 277 276 276 276 276 276 276 276 276 276 275 275 275 275 275 275 275 275 274 273 273 273 273 272 273 273 273
287 287 287 287 286 286 286 285 285 284 284 283 283 282 281 280 279 278 278 277 277 277 277 277 276 276 276 276 275 275 275 275 275 275 275 275 275 274 274 274 274 274 274 274 273 273 272 272 272 271 272 271

ECMWFFLT2_850_thetae_099.txt.gz
Theta_e
306 305 304 299 296 295 296 297 298 298 297 296 295 295 295 295 295 295 295 295 295 295 296 295 295 295 296 296 296 295 295 295 295 295 296 297 297 297 297 297 297 296 296 296 296 296 296 297 297 297 297 297
306 305 302 297 295 297 298 299 299 299 298 297 296 295 295 295 295 295 295 295 295 295 295 295 295 295 295 295 295 295 295 295 295 294 294 295 295 295 296 296 296 296 296 296 296 296 296 296 296 296 296 297
306 304 299 296 298 299 299 299 299 298 298 298 297 296 295 295 295 295 295 295 295 295 295 295 295 295 295 295 295 295 294 294 294 294 294 294 294 295 295 295 295 296 296 296 296 296 296 296 296 296 296 296
305 301 298 298 300 300 300 299 299 298 298 298 298 297 296 295 295 295 294 294 294 294 294 294 294 294 294 294 294 294 294 294 294 294 294 294 294 294 295 295 295 295 295 295 295 296 296 296 296 296 296 296
302 299 299 300 300 300 299 299 299 298 298 298 297 297 296 295 295 294 294 294 294 294 294 294 294 294 294 294 294 293 293 293 293 293 294 294 294 294 295 295 295 295 295 295 295 295 295 295 295 295 295 295
300 300 300 300 300 300 299 299 298 298 298 297 297 296 296 295 294 294 294 294 294 294 294 294 294 293 293 293 293 293 293 293 293 293 293 294 294 294 294 294 295 295 295 295 295 295 295 295 295 295 295 295
301 301 300 300 299 299 299 298 298 297 297 297 296 296 295 294 294 294 294 294 294 294 294 293 293 293 293 292 292 292 292 292 293 293 293 293 294 294 294 294 294 295 295 295 295 295 295 295 295 295 295 295
301 300 299 299 299 298 298 297 297 297 296 296 295 295 294 294 294 294 293 293 293 293 293 293 293 292 292 292 292 292 292 292 293 293 293 293 294 294 294 294 294 294 294 295 295 295 295 295 295 295 295 295
300 299 299 298 298 297 297 297 296 296 295 295 294 294 294 294 293 293 293 293 293 293 292 292 292 292 292 292 292 292 292 293 293 293 293 294 294 294 294 294 294 294 294 295 295 295 295 295 295 295 295 295
299 298 298 298 297 296 296 296 295 295 294 294 294 293 293 293 293 293 292 292 292 292 292 291 292 292 292 292 292 292 293 293 293 293 293 294 294 294 294 294 294 294 295 295 295 295 295 295 295 295 295 295
298 298 297 297 296 296 295 295 294 294 294 293 293 293 292 292 292 292 292 291 291 291 291 291 291 292 292 292 292 292 293 293 293 293 293 294 294 294 294 294 294 294 295 295 295 295 295 295 295 295 295 295
297 297 296 296 295 295 294 294 294 293 293 293 292 292 292 292 291 291 291 291 291 291 291 291 291 292 292 292 292 292 293 293 293 293 293 294 294 294 294 294 294 294 295 295 295 295 295 295 295 295 295 295
296 296 295 295 294 294 293 293 293 292 292 292 291 291 291 291 291 291 291 291 291 291 292 292 292 292 292 292 292 293 293 293 293 293 293 294 294 294 294 294 294 294 295 295 295 295 295 295 295 295 295 295
295 295 294 294 293 293 293 292 292 292 291 291 291 291 291 291 291 292 292 292 292 292 292 292 292 292 293 293 293 293 293 293 293 293 293 293 294 294 294 294 294 294 294 294 294 295 295 295 295 295 295 295
294 294 293 293 293 292 292 292 291 291 291 291 291 292 292 292 292 292 292 292 292 292 292 292 292 292 292 292 292 292 292 292 292 292 292 292 292 292 293 293 293 293 293 294 294 294 294 294 294 294 295 295
293 293 293 292 292 292 291 291 291 291 291 292 292 292 292 292 291 291 290 290 290 290 290 289 289 289 289 289 289 289 289 289 289 289 289 289 289 290 290 290 291 291 291 292 292 293 293 293 294 294 294 294
293 292 292 292 291 291 291 291 291 292 292 291 291 290 290 290 289 289 289 289 288 288 288 288 287 287 287 287 287 287 287 287 287 287 287 287 287 288 288 288 288 289 289 289 290 290 291 291 292 292 293 293
292 292 291 291 291 291 291 292 291 291 290 290 289 289 289 289 289 289 288 288 287 287 287 287 286 286 286 286 286 286 286 286 286 286 286 286 286 286 286 287 287 287 288 288 288 288 289 289 290 290 291 291
291 291 291 291 291 292 291 291 290 289 289 289 289 289 289 288 288 288 287 287 286 286 286 286 285 285 285 285 285 285 285 285 285 285 285 285 285 285 285 286 286 286 286 287 287 287 287 288 288 288 289 289
291 291 291 292 291 291 290 289 289 289 289 289 289 288 288 287 287 286 286 286 285 285 285 285 285 284 284 284 284 284 284 284 284 284 283 283 283 284 284 284 284 285 285 285 286 286 286 286 287 287 287 288
291 291 291 291 290 289 289 289 289 289 289 288 288 287 286 286 286 285 285 285 285 284 284 284 284 284 284 283 283 283 283 283 283 283 283 283 282 282 283 283 283 283 284 284 284 285 285 285 286 286 286 286
291 291 291 290 289 289 289 289 289 288 288 287 286 286 285 285 285 285 284 284 284 284 284 283 283 283 283 283 282 282 282 282 282 282 282 282 282 282 282 282 282 282 283 283 283 284 284 284 284 284 285 285
291 290 290 289 289 289 289 289 288 287 287 286 285 285 285 285 284 284 284 284 283 283 283 283 282 282 282 282 282 282 282 281 281 281 281 281 281 281 281 281 281 281 282 282 282 283 283 283 283 283 283 284
290 289 289 289 289 289 289 288 287 286 286 286 285 285 285 284 284 284 283 283 283 282 282 282 282 281 281 281 281 281 281 281 281 281 281 281 280 280 280 280 280 280 281 281 281 282 282 282 282 282 283 283
290 289 289 289 289 289 288 287 287 286 286 286 285 285 285 284 284 284 283 283 282 282 281 281 281 281 281 280 280 280 280 280 280 280 280 280 280 279 279 279 279 279 280 280 281 281 282 282 282 282 282 282
290 290 289 289 289 288 287 286 286 286 286 286 285 285 285 284 284 283 283 283 282 281 281 280 280 280 280 280 280 280 279 279 279 279 279 279 279 279 279 278 278 278 278 279 279 279 280 281 281 281 281 281
290 289 289 289 289 287 287 286 286 286 286 286 285 285 285 285 284 284 283 282 282 281 280 280 280 279 279 279 279 279 279 279 279 279 279 278 278 278 278 278 278 277 277 277 277 277 277 278 278 279 280 280
290 289 289 289 288 287 287 286 286 286 286 286 286 285 285 285 284 284 283 282 282 281 280 280 279 279 279 279 279 279 279 279 278 278 278 278 278 278 278 278 277 277 277 276 276 276 275 276 276 277 278 279
289 289 289 289 287 287 287 287 287 286 286 286 286 285 285 285 284 284 283 283 282 281 280 279 279 279 278 278 278 278 278 278 278 278 278 278 277 277 277 277 277 277 276 276 275 275 274 274 275 275 276 277
289 289 290 289 287 287 287 287 287 287 286 286 286 286 285 285 284 284 284 283 282 281 280 279 278 278 278 278 277 277 277 277 277 277 277 277 277 277 276 276 276 276 276 276 275 274 274 273 273 273 273 273
289 289 290 289 288 287 287 287 287 287 287 287 287 286 286 285 285 284 284 283 282 281 280 279 278 278 278 278 277 277 277 277 277 276 276 276 276 276 276 275 275 275 275 275 274 274 274 273 272 272 272 271

ECMWFFLT2_850_thetae_105.txt.gz
Theta_e
308 307 307 305 299 299 300 299 299 298 297 297 297 296 296 295 295 294 294 294 294 294 294 294 294 294 294 294 294 294 294 294 294 294 294 294 294 294 295 295 295 295 295 295 295 296 296 296 296 296 296 296
308 307 307 303 299 300 300 299 298 297 297 296 296 296 295 295 294 294 294 294 294 294 294 294 294 294 294 294 294 294 294 294 294 294 294 294 294 294 294 294 294 295 295 295 295 295 295 296 296 296 296 296
307 306 305 302 300 300 299 299 298 297 296 295 295 295 295 295 294 294 294 294 294 294 294 294 294 294 294 294 293 293 293 293 293 293 294 294 294 294 294 294 294 294 295 295 295 295 295 295 295 296 296 296
306 306 304 301 300 300 299 299 298 297 296 295 295 295 295 295 294 294 294 294 294 293 293 293 293 293 293 293 293 293 293 293 293 293 293 294 294 294 294 294 294 294 294 294 295 295 295 295 295 295 295 295
306 305 302 300 300 299 299 298 297 296 295 295 295 295 294 294 294 294 293 293 293 293 293 293 293 293 293 293 293 293 293 293 293 293 294 294 294 294 294 294 294 294 295 295 295 295 295 295 295 295 295 295
305 303 301 301 300 299 299 298 297 296 295 295 295 294 294 294 293 293 293 293 293 293 293 293 293 293 293 293 293 293 293 293 293 293 294 294 294 294 294 294 294 295 295 295 295 295 295 295 295 295 295 295
303 301 301 300 300 299 298 297 296 295 295 295 294 294 293 293 293 293 293 293 293 293 293 293 293 293 293 293 293 292 293 293 293 293 293 293 293 293 293 293 294 294 294 294 295 295 295 295 295 295 295 295
302 301 301 300 299 299 298 296 296 295 295 294 294 294 293 293 292 292 293 293 293 293 293 293 292 292 292 292 292 292 292 292 292 292 292 292 292 292 292 292 292 292 293 293 293 293 294 294 294 294 294 295
302 301 300 299 299 298 297 296 295 295 294 294 294 293 293 292 292 292 293 293 293 292 292 292 291 291 291 291 291 291 291 291 291 291 291 291 291 291 291 291 291 291 291 291 292 292 292 292 293 293 293 293
302 301 300 299 298 297 296 295 295 295 294 294 293 293 292 292 292 293 293 292 292 291 291 291 291 291 291 291 291 291 291 291 290 290 290 290 290 290 290 290 290 290 290 290 291 291 291 291 291 292 292 292
302 301 300 299 298 297 296 295 295 294 294 293 293 292 292 292 293 293 292 292 291 291 291 291 291 291 291 291 291 290 290 290 289 289 289 289 289 289 290 290 290 290 290 290 290 290 290 290 290 291 291 291
302 301 299 298 297 296 295 295 294 294 293 293 292 292 292 292 292 292 292 291 291 291 291 291 291 291 290 290 289 289 289 289 289 289 289 289 289 289 289 289 289 289 289 289 289 289 289 290 290 290 290 290
301 300 298 298 297 295 295 294 294 294 293 293 292 292 292 292 292 291 291 291 291 291 291 291 291 290 289 289 289 289 289 289 289 289 288 288 288 288 288 288 288 288 288 289 288 289 289 289 289 289 289 290
300 299 298 297 296 295 295 294 294 293 293 292 292 292 292 292 292 291 291 291 291 291 291 290 289 289 289 288 288 288 288 288 288 288 288 288 288 288 288 288 288 288 288 288 288 288 288 288 288 288 289 289
299 298 297 296 295 295 294 294 294 293 293 292 292 292 292 292 291 291 291 291 291 290 290 289 289 288 288 288 288 288 288 288 288 287 287 287 287 287 287 287 287 287 287 287 287 287 287 288 288 288 288 288
298 297 296 295 295 294 294 294 293 293 292 292 292 292 292 291 291 291 291 291 290 289 289 288 288 288 288 288 288 288 287 287 287 287 287 287 287 287 287 286 286 286 286 286 286 286 286 287 287 287 287 287
297 296 296 295 294 294 294 293 293 292 292 292 292 292 291 291 291 291 290 290 289 288 288 288 287 287 287 287 287 287 287 287 287 287 287 286 286 286 286 286 286 286 286 286 286 286 286 286 286 286 286 286
296 296 295 294 294 294 294 293 293 292 292 292 292 292 291 291 290 291 290 289 288 288 287 287 287 287 287 287 287 286 286 286 286 286 286 286 286 286 286 285 285 285 285 285 285 285 285 285 285 285 285 286
296 295 294 294 294 294 293 293 292 292 292 292 292 291 291 290 290 290 289 288 288 287 287 287 287 287 286 286 286 286 286 286 286 286 285 285 285 285 285 285 285 285 285 285 285 285 285 285 285 285 285 285
295 294 294 294 294 294 293 292 292 292 292 292 291 291 290 290 290 289 288 288 287 287 287 287 286 286 286 286 286 286 286 285 285 285 285 285 285 285 284 284 284 284 284 284 284 284 284 284 284 284 284 284
294 294 294 294 293 293 293 292 292 292 292 291 291 291 290 290 290 289 288 287 287 287 287 286 286 286 286 286 286 285 285 285 285 285 284 284 284 284 284 284 284 283 283 283 284 284 284 284 284 284 284 284
294 294 293 293 293 293 292 292 291 292 292 291 291 290 290 290 289 288 287 287 287 287 287 286 286 286 286 286 285 285 285 285 285 284 284 284 283 283 283 283 283 283 283 283 283 283 284 284 284 284 284 284
294 293 293 293 293 293 292 291 292 292 292 291 290 290 290 290 289 288 287 287 287 287 287 286 286 286 286 286 286 285 285 284 284 284 283 283 283 283 283 282 282 283 283 282 283 283 283 283 283 283 283 283
294 293 293 293 293 292 292 292 291 292 291 291 290 290 290 289 288 287 287 287 287 287 287 287 287 286 286 286 286 285 285 284 283 283 283 282 282 282 282 282 282 282 282 282 282 281 281 281 282 282 282 282
294 294 293 293 293 292 292 291 291 291 291 291 290 290 290 289 288 287 287 287 287 287 287 287 287 287 286 286 286 285 285 284 283 283 282 282 282 281 281 281 281 281 281 281 281 280 280 281 281 282 281 282
294 294 293 293 292 292 291 291 291 291 291 291 290 290 290 289 288 287 287 287 287 287 287 287 287 287 287 286 286 286 285 285 284 283 283 282 281 281 280 280 280 280 281 280 279 279 280 280 281 281 281 281
294 293 293 292 292 291 291 291 291 291 290 290 290 290 290 289 288 287 287 287 287 287 287 287 287 287 287 287 286 286 285 285 284 284 283 282 281 280 280 279 278 279 279 279 279 279 279 279 280 281 281 282
294 293 293 292 292 291 290 290 290 290 290 290 290 290 290 289 288 287 287 287 287 287 287 287 287 287 287 287 287 286 286 285 284 284 283 282 281 281 280 279 278 277 278 279 279 278 278 279 279 280 281 281
293 293 293 292 291 291 290 290 290 290 290 290 291 290 290 290 289 288 287 287 287 288 287 287 287 287 287 287 287 286 286 285 285 284 283 282 282 281 280 279 278 278 277 277 278 277 277 278 279 279 280 279
293 293 293 292 292 291 291 291 291 291 291 291 291 291 290 290 289 288 287 287 287 288 288 288 287 287 287 287 287 287 286 285 285 284 283 283 282 281 280 279 278 278 277 276 276 277 277 277 277 277 277 276
293 293 293 292 292 292 291 291 291 291 291 291 291 291 290 290 289 288 288 287 288 287 287 288 287 287 287 287 287 287 286 286 285 284 284 283 282 281 281 279 278 277 277 276 275 275 275 276 276 276 276 275

ECMWFFLT2_850_thetae_108.txt.gz
Theta_e
309 309 308 307 303 300 300 299 298 298 297 297 297 296 296 295 295 295 295 295 295 294 294 294 294 294 294 294 294 294 294 294 294 294 294 294 295 295 295 295 295 295 295 295 295 295 295 296 295 296 296 296
309 309 307 305 302 300 300 299 298 297 297 296 296 296 295 295 295 295 295 295 294 294 294 294 294 294 294 294 294 294 294 294 294 294 294 294 294 295 295 295 295 295 295 295 295 295 295 295 295 296 296 296
309 308 305 304 301 300 300 299 298 297 296 296 296 296 295 295 295 295 295 294 294 294 294 294 294 294 294 294 294 294 294 294 294 294 294 294 295 295 295 295 295 295 295 295 295 295 295 295 295 296 296 296
308 306 304 303 301 300 299 299 298 297 296 296 296 296 295 295 295 295 294 294 294 294 294 294 294 294 294 294 294 294 294 294 294 294 294 295 295 295 295 295 295 295 295 295 295 295 295 295 296 296 296 296
307 305 305 303 301 300 299 299 298 297 296 296 296 295 295 295 295 295 294 294 294 294 294 294 294 294 294 294 294 294 294 294 294 294 294 294 294 294 294 294 295 295 295 295 295 295 295 295 295 296 296 296
306 305 305 303 301 300 299 298 297 296 296 296 295 295 295 295 294 294 294 294 294 294 294 294 294 294 294 293 293 293 293 293 293 293 293 293 293 293 293 294 294 294 294 294 294 294 294 294 294 295 295 295
305 306 304 302 301 300 299 298 297 296 296 295 295 295 295 294 294 294 294 294 294 294 294 293 293 293 293 292 292 292 292 292 292 292 292 292 292 292 292 292 292 292 293 293 292 293 293 293 293 293 293 294
306 306 304 301 300 300 299 298 296 296 295 295 295 295 294 294 294 294 293 293 293 293 293 293 292 292 292 292 292 292 292 292 292 292 291 291 291 291 291 291 291 292 292 292 292 292 292 292 292 292 292 292
307 306 303 301 300 299 299 297 296 296 295 295 295 294 294 293 293 293 293 293 293 292 292 292 292 292 292 292 292 291 291 291 291 291 291 291 291 291 291 291 291 291 291 291 291 291 291 291 291 291 291 291
306 304 302 301 301 299 298 297 296 295 295 295 294 294 294 293 293 293 293 293 292 292 291 291 291 291 291 291 291 291 291 291 291 291 291 291 291 291 291 291 291 291 291 291 291 291 291 291 291 291 291 291
305 303 302 302 300 299 298 297 296 295 295 295 294 294 293 293 293 293 293 292 292 291 291 291 291 291 291 291 291 291 290 290 290 290 290 290 290 290 290 290 290 290 290 290 290 291 291 291 291 291 291 291
303 302 302 302 300 299 298 296 296 295 295 294 294 294 293 293 293 293 292 292 292 291 291 291 291 291 291 290 290 290 290 290 290 290 290 290 290 290 290 290 290 290 290 290 290 290 290 290 290 290 290 290
302 302 302 301 300 298 297 296 295 295 295 294 294 293 293 293 292 292 292 292 291 291 291 291 291 291 290 290 290 290 290 290 290 290 290 290 290 290 290 290 290 289 289 289 289 289 289 289 290 290 290 290
302 302 301 301 300 298 297 296 295 295 295 294 294 293 293 292 292 292 292 292 291 291 291 291 291 290 290 290 290 290 290 290 290 290 290 290 290 290 290 289 289 289 289 289 289 289 289 289 289 289 289 289
302 301 300 300 299 298 297 296 295 295 294 294 294 293 292 292 292 292 292 291 291 291 291 291 290 290 290 290 290 290 290 290 290 290 290 290 290 290 289 289 289 289 289 289 289 288 288 288 288 288 288 289
301 300 299 299 298 297 297 296 295 295 294 294 294 293 292 292 292 292 292 291 291 291 290 290 289 289 289 289 289 289 289 289 289 289 289 289 289 289 289 289 289 289 289 289 288 288 288 288 288 288 288 288
301 300 299 298 297 297 296 295 295 295 294 294 294 293 292 292 292 292 291 291 291 291 290 289 289 289 289 289 289 289 289 288 288 288 288 288 288 288 289 289 288 288 288 288 288 288 288 288 288 288 287 287
300 299 298 298 297 296 296 295 295 294 294 294 293 293 292 292 292 291 291 291 291 290 289 289 289 289 289 288 288 288 288 288 288 288 288 288 288 288 288 288 288 288 288 288 288 288 288 288 287 287 287 287
299 299 298 297 297 296 295 295 294 294 294 294 293 292 292 292 292 291 291 291 290 289 289 289 289 288 288 288 288 288 287 287 287 287 287 287 287 287 287 287 287 287 287 287 288 287 287 287 287 287 287 287
299 298 297 297 296 296 295 295 294 294 294 293 293 292 292 292 292 291 291 291 290 289 288 288 288 288 288 288 288 287 287 287 287 287 287 287 287 287 287 287 287 287 287 287 287 287 287 287 287 287 286 286
298 297 297 296 296 295 295 294 294 294 294 293 293 292 292 292 291 291 291 290 289 289 288 288 288 288 288 287 287 287 287 287 287 286 286 286 286 286 286 286 286 286 286 286 286 286 286 286 286 286 286 286
297 297 296 296 295 295 295 294 294 294 294 293 293 292 292 292 291 291 291 290 289 288 288 288 288 288 288 287 287 287 287 287 287 287 286 286 286 286 286 286 286 286 286 286 286 286 286 286 286 286 286 286
297 296 296 295 295 295 295 294 294 294 294 293 292 292 292 292 291 291 290 290 289 288 288 288 288 288 288 288 288 288 287 287 287 287 287 286 286 286 285 285 285 285 285 285 285 285 285 286 285 285 285 285
296 296 296 295 295 295 294 294 294 294 293 293 292 292 292 291 291 291 291 290 289 288 288 288 288 288 288 288 288 288 288 288 287 287 287 287 286 286 285 285 285 285 285 285 285 285 285 285 284 284 284 284
296 296 295 295 295 295 294 294 294 293 293 293 292 292 291 291 291 291 291 290 290 289 288 288 288 288 288 288 288 288 288 288 288 287 287 287 287 286 286 285 285 284 284 284 284 284 284 284 284 284 283 282
296 295 295 295 295 294 294 294 294 293 293 292 292 291 291 291 291 291 291 290 290 289 288 288 288 288 288 288 288 288 288 288 288 288 287 287 287 287 286 285 285 284 284 283 283 283 283 284 284 283 283 282
295 295 295 295 295 294 294 294 293 293 293 292 292 291 291 291 291 291 291 290 290 289 288 288 288 288 288 288 288 288 288 288 288 288 288 288 288 287 286 285 285 284 284 283 283 282 282 282 282 282 282 282
295 295 295 295 294 294 294 293 293 293 292 292 291 291 291 291 291 291 291 291 290 289 288 288 288 288 288 288 288 288 288 288 288 288 288 288 288 287 287 286 285 284 283 283 282 281 281 281 280 281 282 282
295 295 295 294 294 293 293 292 292 292 292 292 292 292 292 292 292 291 291 290 290 290 289 288 288 288 288 288 288 288 288 288 288 288 288 288 288 288 287 286 285 284 283 283 282 281 280 280 280 280 280 280
295 295 294 294 294 293 293 293 293 292 292 292 292 292 292 292 292 291 291 290 290 290 289 288 288 288 288 288 288 288 288 288 288 288 288 288 288 288 287 287 286 285 283 282 282 281 280 280 279 279 279 279
295 295 294 294 294 294 294 293 293 293 292 292 291 291 291 291 291 291 291 291 290 290 289 289 288 288 288 288 288 288 288 288 288 288 288 288 288 288 288 287 286 285 284 282 281 280 280 279 279 279 278 278

ECMWFFLT2_850_thetae_111.txt.gz
Theta_e
310 309 309 309 307 306 303 300 300 299 298 298 298 298 297 297 297 296 296 295 295 295 295 295 295 295 294 295 295 295 295 295 295 295 295 295 295 295 295 295 295 296 296 296 296 296 296 296 296 297 297 297
310 309 309 308 307 305 302 300 300 299 298 297 297 297 297 297 296 296 296 296 295 295 295 295 295 295 295 295 294 295 295 295 295 295 295 295 295 295 295 295 295 296 296 296 296 296 296 296 296 296 296 297
310 309 309 307 306 304 302 300 299 299 298 297 297 297 297 297 296 296 296 296 296 295 295 295 295 295 295 294 294 295 295 295 295 295 295 295 295 295 295 295 295 296 296 296 296 296 296 296 296 296 296 296
310 309 308 307 305 303 301 300 299 299 298 297 297 297 297 297 296 296 296 296 295 295 295 295 295 295 295 295 295 295 295 295 295 295 295 295 295 295 296 295 296 296 295 296 296 296 296 296 296 296 296 296
310 309 308 307 305 303 301 300 300 298 298 297 297 297 297 296 296 296 296 296 295 295 295 295 295 295 295 295 295 295 295 295 295 295 295 295 295 295 295 295 295 295 295 295 295 295 295 295 296 296 296 296
310 309 308 306 304 302 301 301 300 298 298 297 297 297 297 296 296 296 296 295 295 295 295 295 295 295 295 295 295 295 294 294 294 294 294 294 294 294 293 293 293 293 293 293 293 293 293 294 294 294 294 295
310 309 307 305 304 302 301 300 299 298 297 297 297 297 296 296 296 296 295 295 295 295 295 295 295 295 294 294 294 293 293 293 293 293 292 292 292 292 292 292 292 292 292 292 292 292 292 292 292 292 293 293
309 307 306 305 304 303 301 300 299 298 297 296 296 296 296 296 295 295 295 295 295 294 294 294 294 293 293 293 292 292 292 292 292 292 292 292 292 292 292 292 292 292 292 292 292 292 292 292 292 292 292 292
308 306 305 305 305 303 301 299 299 298 297 296 296 296 295 295 295 294 294 294 294 293 293 293 293 292 292 292 292 292 292 292 292 291 291 291 291 291 292 292 292 292 291 291 291 291 291 291 291 291 291 291
308 306 306 306 306 303 301 300 299 298 297 296 296 295 295 294 294 294 293 293 293 293 292 292 292 292 292 292 292 292 291 291 291 291 291 291 291 291 291 291 292 291 291 291 291 291 291 291 291 291 291 291
308 307 307 306 305 303 301 300 299 298 297 296 295 295 295 294 294 293 293 293 293 292 292 292 292 292 292 292 291 291 291 291 291 291 291 291 291 291 291 291 291 291 291 291 291 291 291 291 291 291 291 291
307 307 307 305 304 302 301 301 299 298 296 296 295 295 294 294 293 293 293 293 292 292 292 292 292 292 292 291 291 291 291 291 291 291 291 291 291 291 291 291 291 291 291 291 291 291 291 291 291 291 291 291
306 306 305 304 303 302 301 300 299 297 296 296 295 295 294 294 293 293 293 292 292 292 292 292 292 292 291 291 291 291 291 291 291 291 291 291 291 291 291 291 291 291 291 291 291 291 291 291 291 291 291 290
305 305 304 303 302 301 301 300 298 297 296 295 295 295 294 294 293 293 292 292 292 292 292 292 291 291 291 291 291 291 291 291 291 291 291 291 291 291 291 291 291 291 291 291 291 291 291 291 291 290 290 290
305 304 303 302 301 301 300 299 298 297 296 295 295 295 294 294 293 293 292 292 292 292 291 291 291 291 291 291 291 291 291 291 291 291 291 291 290 291 291 291 291 290 290 290 290 290 290 290 290 290 290 290
304 303 303 302 301 301 300 299 298 297 296 295 295 295 294 294 293 293 292 292 292 292 291 291 291 291 291 291 291 291 291 291 291 291 290 290 290 290 290 290 290 290 290 290 290 290 290 290 290 290 290 290
303 303 303 302 302 301 299 298 298 297 296 295 295 295 294 294 293 293 292 292 292 292 291 291 291 291 290 290 291 291 291 291 290 290 290 290 290 290 290 290 290 290 290 290 290 290 290 290 290 290 290 290
303 303 302 302 301 300 299 298 297 297 296 295 295 295 294 294 293 293 292 292 292 291 291 291 291 291 290 290 290 290 290 290 290 290 290 290 290 290 290 290 290 290 289 289 289 289 289 289 289 289 289 289
303 302 302 301 301 300 299 298 297 296 296 295 295 295 294 294 293 293 292 292 292 291 291 291 291 290 290 290 290 290 290 290 290 290 290 289 289 289 289 289 289 289 289 289 289 289 289 289 289 289 289 289
303 302 301 301 300 299 298 298 297 296 296 295 295 295 294 294 293 293 292 292 292 291 291 291 291 290 290 290 290 290 290 290 290 290 289 289 289 289 289 289 289 289 289 289 289 289 289 289 289 289 288 288
302 302 301 300 300 299 298 297 297 296 296 295 295 294 294 294 293 293 292 292 292 291 291 291 290 290 290 290 290 290 290 290 289 289 289 289 289 288 288 288 288 288 288 288 288 288 288 288 288 288 288 288
302 302 301 300 300 299 298 297 297 296 296 295 295 294 294 294 293 293 292 292 292 291 291 291 290 290 290 290 290 290 290 290 289 289 289 289 289 288 288 288 288 288 288 288 288 288 288 288 288 288 288 288
302 302 301 300 300 299 298 297 297 296 296 295 295 295 294 294 293 293 292 292 291 291 291 291 290 290 289 290 290 290 290 290 289 289 289 289 289 289 289 288 288 288 288 288 288 288 287 287 287 287 287 287
302 301 301 300 299 298 298 297 296 296 295 295 295 294 294 294 293 293 292 292 291 291 291 291 290 290 289 289 290 290 290 290 289 289 289 289 289 289 289 289 289 288 288 288 288 288 287 287 287 287 286 286
300 300 300 299 298 297 297 296 296 296 295 295 295 294 294 294 293 293 292 292 291 291 291 291 290 290 289 289 289 290 290 289 289 289 289 289 289 289 289 289 289 289 289 288 288 288 288 287 287 286 286 286
299 298 298 298 297 296 296 296 296 296 295 295 295 294 294 294 293 293 292 292 291 291 291 291 291 290 290 289 289 289 289 289 289 289 289 290 289 290 289 289 289 289 289 289 288 288 288 288 287 286 286 285
298 297 297 297 297 296 296 296 296 295 295 295 294 294 294 294 293 293 292 292 291 291 291 291 291 291 290 289 289 289 289 289 289 289 289 289 289 289 289 289 289 289 289 289 289 288 288 288 287 286 286 285
297 297 297 297 297 297 296 296 295 295 295 294 294 294 294 294 293 293 292 292 291 291 291 291 291 291 290 289 289 289 289 289 289 289 289 289 289 289 289 289 289 289 289 289 289 288 287 286 286 285 285 284
297 297 297 297 297 296 296 295 295 295 295 294 294 294 294 294 294 293 293 292 292 291 291 291 291 291 290 290 289 289 289 289 289 289 289 289 289 289 289 289 289 289 289 289 289 289 288 286 285 285 285 284
297 296 296 296 296 296 296 295 295 295 296 295 295 295 295 294 294 293 293 293 292 292 291 291 291 291 291 290 289 289 288 288 288 289 289 289 288 289 289 289 289 289 289 289 289 289 289 288 287 286 285 284
296 296 296 295 295 295 295 295 295 295 295 295 295 295 294 294 294 294 293 293 292 292 292 291 291 291 291 290 290 289 288 288 288 288 288 288 288 288 288 289 289 289 289 289 289 289 288 288 288 287 286 284

ECMWFFLT2_850_thetae_114.txt.gz
Theta_e
310 310 310 310 310 309 308 307 304 301 300 299 299 298 299 299 298 298 297 297 298 298 298 297 297 296 296 296 295 295 295 295 295 295 296 296 296 296 296 296 296 297 296 296 297 297 297 297 297 297 297 297
311 311 311 310 310 309 309 307 305 302 300 299 299 298 298 298 297 297 297 296 296 297 297 296 296 295 295 295 295 295 295 295 295 296 296 296 296 296 296 296 296 297 297 297 297 297 297 297 297 297 297 297
312 312 311 310 310 309 309 307 305 302 300 300 299 298 298 298 297 297 297 297 296 296 296 296 295 295 295 295 295 295 295 296 296 296 296 296 296 296 296 297 297 297 297 297 297 297 297 297 297 297 297 297
312 312 311 311 310 309 309 307 305 302 300 300 299 298 298 298 297 297 297 297 296 296 296 296 296 295 295 295 295 296 296 296 296 296 296 296 296 296 296 296 296 296 297 297 297 297 297 297 297 297 297 297
312 312 311 311 310 309 308 307 305 302 301 300 299 298 298 297 297 297 297 297 297 296 296 296 296 296 296 295 295 296 296 296 296 296 296 295 295 295 295 294 294 294 294 294 294 295 295 295 295 295 295 296
312 312 311 310 310 309 308 307 305 302 300 300 299 298 297 297 297 297 297 297 296 296 296 296 296 296 296 296 296 296 295 295 295 295 294 294 293 293 293 293 293 292 293 293 293 293 293 293 293 293 293 294
312 312 311 310 310 309 308 307 304 302 300 299 298 298 297 297 297 297 297 296 296 296 296 296 296 296 295 295 295 295 294 294 293 293 293 293 292 292 292 292 292 292 292 292 292 292 292 292 292 293 292 292
312 312 311 310 310 309 308 306 304 301 300 299 298 297 297 297 296 296 296 296 296 296 296 295 295 295 295 294 294 293 293 292 292 292 292 292 292 292 292 292 292 292 292 292 292 292 292 292 292 292 292 292
312 312 311 310 309 308 307 305 303 301 300 299 298 297 297 296 296 295 295 295 295 295 295 295 294 294 293 293 293 292 292 292 292 292 292 292 292 292 292 292 292 292 292 292 292 292 291 292 292 292 292 292
311 311 310 309 308 306 305 304 303 302 301 299 298 297 297 296 295 295 295 295 294 294 294 293 293 293 292 292 292 292 292 292 292 292 292 292 292 292 292 292 292 292 292 292 292 292 292 292 291 291 292 291
310 310 309 308 307 305 305 304 304 303 301 300 298 297 297 296 295 295 294 294 294 293 293 293 293 292 292 292 292 292 292 292 292 292 292 292 292 292 292 292 292 292 292 292 292 292 292 292 292 291 291 291
309 309 309 308 307 306 306 305 304 303 301 300 299 297 297 296 295 294 294 294 293 293 293 293 292 292 292 292 292 292 292 292 292 292 292 292 292 292 292 292 292 292 292 292 292 292 292 292 292 292 291 291
308 308 308 308 307 307 306 305 304 302 301 300 299 297 296 295 295 294 294 293 293 293 293 292 292 292 292 292 292 292 292 292 292 292 292 292 292 292 292 292 292 292 292 292 292 292 292 292 292 292 292 291
307 308 307 307 307 306 306 305 303 301 301 300 299 297 296 295 295 294 294 293 293 293 292 292 292 292 292 292 292 292 292 292 292 292 292 292 292 292 292 292 292 292 292 292 292 292 292 292 291 291 291 291
307 307 306 306 306 305 305 304 302 301 300 300 298 297 296 295 295 294 294 293 293 293 292 292 292 292 292 292 292 291 291 291 291 292 292 292 292 292 292 291 292 292 292 292 292 292 291 291 291 291 291 291
306 306 305 305 305 304 304 303 302 301 300 299 298 297 296 295 295 294 294 293 293 293 292 292 292 292 291 291 291 291 291 291 291 291 291 291 291 291 291 291 291 291 291 291 291 291 291 291 291 291 291 291
305 305 305 304 304 303 303 302 302 301 300 299 298 297 296 295 295 294 294 293 293 293 292 292 292 292 291 291 291 291 291 291 291 291 291 291 291 291 291 291 291 291 291 291 291 291 291 291 291 291 291 291
305 305 305 304 303 303 302 302 302 301 300 299 298 297 296 295 295 295 294 294 293 293 292 292 292 292 291 291 291 291 291 291 291 291 291 291 291 291 291 291 291 291 291 291 291 290 290 290 290 290 290 290
305 305 304 304 303 303 302 302 301 301 300 299 298 297 296 296 295 295 294 294 293 293 292 292 292 291 291 291 291 291 291 291 291 291 291 291 291 291 291 291 291 291 291 290 290 290 290 290 290 290 290 290
306 305 305 304 303 303 302 302 301 301 300 299 298 297 297 296 295 295 294 294 294 293 293 292 292 291 291 291 291 290 291 291 291 291 291 291 291 291 291 291 291 291 290 290 290 290 290 290 290 290 289 289
307 306 305 304 303 303 303 302 301 301 300 299 298 298 297 296 295 295 294 294 294 293 293 292 292 291 291 291 290 290 290 291 291 291 291 291 291 291 291 291 291 291 290 290 290 290 290 290 290 289 289 289
307 306 305 304 304 303 303 302 302 301 300 299 298 298 297 296 296 295 295 294 294 293 293 292 292 291 291 291 290 290 290 290 290 291 291 291 291 290 291 291 290 290 290 290 290 290 290 290 290 290 289 289
307 306 305 304 304 303 303 302 302 301 300 299 298 298 297 296 296 295 295 294 294 294 293 292 292 291 291 291 291 290 290 290 290 291 291 290 290 290 290 290 290 290 290 290 290 290 290 290 290 290 290 289
306 306 305 304 304 303 302 302 302 301 300 299 298 298 297 297 296 295 295 294 294 294 293 293 292 291 291 291 291 290 290 290 290 290 290 290 290 290 290 290 290 290 290 290 290 290 290 290 290 290 289 289
306 305 305 304 304 303 302 301 301 301 300 299 298 298 297 297 296 295 295 294 294 294 293 293 292 292 291 291 291 291 290 290 290 290 290 290 290 290 290 290 290 290 290 290 290 290 290 290 290 290 289 289
306 305 305 304 303 302 301 301 300 300 299 298 298 297 297 297 296 296 295 295 294 294 294 293 292 292 291 291 291 291 290 289 289 289 289 290 290 290 290 290 290 290 290 290 290 290 290 290 289 289 289 289
306 305 304 303 303 302 301 300 300 299 299 299 298 298 297 296 296 295 295 295 294 294 294 293 293 292 291 291 291 291 290 289 289 289 290 290 290 289 290 290 290 290 290 290 290 290 289 289 289 288 289 289
305 304 303 303 303 302 301 301 300 299 299 298 298 297 297 296 296 295 295 294 294 294 294 293 293 292 292 291 291 291 290 290 290 289 290 290 289 289 289 290 290 290 290 290 290 290 289 289 288 289 289 288
304 303 302 302 302 301 301 300 299 299 299 298 298 297 296 296 296 295 295 295 294 294 294 293 293 292 292 291 291 291 291 290 290 289 289 289 289 289 290 290 289 289 289 290 290 290 290 289 289 289 289 288
303 302 301 301 301 300 300 299 299 299 298 297 297 297 296 296 296 295 295 295 294 294 294 293 293 293 292 292 291 291 291 290 290 290 289 289 289 289 289 289 289 289 289 289 289 290 290 290 290 290 289 288
301 301 300 300 300 300 299 299 298 297 297 297 297 296 296 296 295 295 295 295 294 294 294 293 293 293 292 292 291 291 291 290 291 290 290 289 289 289 289 289 289 289 289 289 289 290 290 290 290 290 289 289

ECMWFFLT2_850_thetae_117.txt.gz
Theta_e
312 311 311 310 309 309 309 309 309 308 305 302 301 301 301 302 301 300 300 301 302 301 300 300 300 300 300 300 298 297 296 296 296 296 297 297 297 297 297 297 297 297 297 297 297 297 297 297 298 298 298 298
312 311 311 310 310 310 310 310 309 308 306 303 301 300 299 299 298 298 298 298 299 298 298 298 298 298 298 297 297 296 297 296 296 296 296 297 297 297 297 297 297 298 298 297 298 298 298 297 298 298 298 298
312 311 311 310 311 310 310 310 310 309 307 305 302 300 299 299 298 298 297 297 297 297 297 297 297 297 296 296 296 296 297 297 296 296 297 297 297 297 298 298 298 298 298 298 298 298 298 298 298 298 298 298
312 311 311 311 311 311 311 310 310 309 308 306 302 300 299 299 299 298 298 297 297 297 297 297 297 296 296 296 296 296 296 297 296 297 297 297 297 297 297 297 296 296 296 296 296 296 296 296 296 296 296 296
313 312 312 312 312 311 311 310 310 309 308 307 303 300 300 299 298 298 298 297 297 297 297 296 296 296 296 296 296 296 296 296 296 296 296 296 295 295 295 294 294 294 294 294 294 294 294 294 294 294 294 294
313 313 312 312 311 311 310 310 310 309 308 307 303 300 300 299 298 298 298 297 297 297 296 296 296 296 296 296 296 296 296 296 296 295 294 294 293 293 293 293 293 293 293 293 293 293 293 293 293 293 293 293
313 313 312 312 312 311 310 310 310 309 308 307 304 300 299 299 298 298 297 297 297 296 296 296 296 296 296 296 296 295 295 295 294 293 293 293 293 293 293 293 293 293 293 293 293 293 293 293 293 293 293 293
313 313 312 312 311 311 311 310 309 309 308 307 303 300 299 299 298 297 297 296 296 296 296 296 296 296 295 295 295 295 294 293 293 292 292 293 292 292 292 292 293 293 293 293 293 293 293 293 293 293 293 293
313 313 312 312 312 311 311 310 309 308 308 306 303 300 299 299 298 297 296 296 296 295 295 295 295 295 295 294 294 293 293 292 292 292 292 292 292 292 292 292 293 292 292 293 293 293 293 293 293 293 293 293
313 313 312 312 312 311 310 310 309 308 307 305 302 300 300 299 298 297 296 295 295 295 295 295 295 294 294 293 293 293 292 292 292 292 292 292 292 292 292 292 292 292 292 292 292 292 292 293 293 293 293 293
313 313 312 312 311 311 310 310 310 308 306 304 302 301 300 299 298 297 296 295 295 294 294 294 294 293 293 293 292 292 292 292 292 292 292 292 292 292 292 292 292 292 292 292 292 292 292 292 292 293 293 293
312 312 312 311 311 310 310 310 309 307 305 304 303 302 301 299 298 297 296 295 294 294 294 294 293 293 293 292 292 292 292 292 292 292 292 292 292 292 292 292 292 292 292 292 292 292 292 292 292 292 292 292
311 311 310 310 309 309 309 309 308 306 305 304 303 302 301 300 298 297 296 295 294 294 293 293 293 292 292 292 292 292 292 292 292 292 292 292 292 292 292 292 292 292 292 292 292 292 292 292 292 292 292 292
310 310 309 308 308 309 308 308 307 306 306 305 304 302 300 300 298 297 296 295 294 294 293 293 293 292 292 292 292 292 292 292 292 292 292 292 292 292 292 292 292 292 292 292 292 292 292 292 292 292 292 292
310 309 309 308 308 308 308 307 307 306 306 305 303 302 300 299 298 297 296 295 295 294 293 293 293 292 292 292 292 292 292 292 292 292 292 292 292 292 292 292 292 292 292 292 292 292 292 292 292 292 292 291
310 310 309 309 307 307 307 307 306 306 305 304 303 302 300 299 298 297 296 295 295 294 293 293 292 292 292 292 292 292 292 291 291 291 292 292 292 292 292 292 292 292 292 292 292 292 292 292 292 292 292 292
310 310 310 309 307 307 307 306 306 306 305 304 303 301 300 299 299 298 297 296 295 294 294 293 293 292 292 292 292 292 291 291 291 291 291 291 291 291 291 292 291 292 292 292 292 292 292 292 292 292 291 291
311 310 310 309 307 307 306 306 306 305 304 304 303 301 301 300 299 298 297 296 295 294 294 293 293 292 292 292 292 291 291 291 291 291 291 291 291 291 291 291 291 291 291 291 291 291 291 291 291 291 291 291
311 310 310 308 307 307 306 306 305 305 304 303 303 302 301 300 299 298 297 296 295 295 294 294 293 293 292 292 292 291 291 291 291 291 291 291 291 291 291 291 291 291 291 291 291 291 291 291 291 291 291 291
311 310 309 308 307 307 306 305 305 304 304 303 303 302 301 300 300 299 298 297 296 295 294 294 294 293 292 292 292 291 291 291 290 290 291 291 291 291 291 291 291 291 291 291 291 291 291 291 291 291 291 291
310 310 309 308 307 307 306 305 304 304 304 303 302 302 301 300 300 299 298 297 296 295 295 294 294 293 293 292 292 291 291 291 290 290 290 291 291 291 291 290 290 290 290 291 291 291 291 291 291 291 291 291
310 309 308 307 306 307 306 305 304 304 304 303 302 302 301 301 300 300 299 298 297 296 295 295 294 294 293 292 292 291 291 291 290 290 290 290 290 290 290 290 290 290 290 290 290 290 290 290 291 291 290 291
309 308 307 306 306 306 306 305 305 304 304 303 303 302 302 301 301 300 299 299 298 297 296 295 294 294 293 293 292 292 291 291 290 290 290 290 290 290 290 290 290 290 290 290 290 290 290 290 290 290 290 290
307 307 306 305 305 305 306 306 306 305 304 304 303 302 302 301 301 300 300 299 298 297 296 295 295 294 294 293 293 292 292 291 291 290 290 290 290 290 290 290 290 290 290 290 290 290 290 290 290 290 290 290
306 306 305 305 305 305 306 306 306 306 305 304 303 303 302 301 301 301 300 299 298 298 297 296 295 295 294 294 293 292 292 291 291 290 290 289 289 290 290 290 290 290 290 290 290 290 290 290 290 290 290 290
306 305 305 305 305 305 306 306 306 306 305 304 304 303 302 301 301 300 300 299 299 298 297 296 296 295 294 294 293 293 292 291 291 290 290 289 289 289 290 290 290 290 290 290 290 290 289 290 290 290 290 290
306 306 305 305 305 305 305 306 306 306 305 304 303 302 302 301 301 300 300 299 299 298 298 297 296 295 295 294 294 293 293 292 291 291 290 290 289 289 289 290 290 290 290 290 290 289 289 290 290 289 290 290
306 305 305 304 304 304 304 305 305 305 304 303 303 302 302 301 301 300 300 299 299 298 298 297 296 296 295 294 294 293 293 292 292 291 291 290 289 289 289 290 290 290 290 290 290 289 289 289 289 289 290 290
306 305 304 303 303 303 303 303 303 303 303 303 302 302 302 301 301 300 299 299 299 298 298 297 297 296 295 295 294 293 293 293 292 291 291 290 290 289 289 289 289 289 290 290 290 289 289 289 289 289 290 290
305 304 304 303 303 303 303 303 304 304 304 303 303 302 301 301 300 300 299 299 298 298 297 297 296 296 295 294 294 293 293 293 292 292 291 291 290 289 289 289 289 289 289 289 289 289 289 290 289 290 290 290
305 304 304 303 303 303 304 304 305 305 304 303 303 302 301 301 300 299 299 298 298 297 297 297 296 295 295 294 294 293 293 292 292 292 291 291 290 290 289 288 288 289 289 289 289 289 289 289 289 289 289 289

ECMWFFLT2_850_thetae_123.txt.gz
Theta_e
319 318 317 316 316 316 315 315 313 310 309 309 308 308 307 305 303 303 303 305 306 306 306 304 303 304 303 303 302 302 302 302 301 300 298 297 297 297 297 297 297 297 297 297 298 297 297 297 297 297 297 297
319 318 317 316 315 315 314 313 310 308 308 309 309 308 308 306 302 301 301 302 303 303 302 301 301 302 303 302 302 301 301 300 299 297 297 297 296 297 297 297 297 298 298 298 298 298 298 298 298 298 298 298
318 317 317 316 315 314 312 309 308 308 309 309 309 309 309 306 303 301 300 300 301 300 299 299 299 299 301 302 301 301 300 298 298 297 297 297 297 297 297 297 298 298 298 298 298 298 298 298 298 298 298 298
317 317 317 316 315 312 309 308 308 309 309 309 309 310 309 307 304 301 300 300 299 299 298 298 297 298 299 301 301 299 298 297 297 297 297 297 297 297 297 297 297 297 297 297 296 297 296 296 296 296 296 296
317 317 317 316 314 310 308 308 308 309 309 310 310 310 309 307 305 302 300 299 299 298 298 297 297 297 297 299 300 298 297 296 296 296 297 296 296 296 295 295 295 295 294 294 294 294 294 294 294 294 294 294
317 317 317 316 313 310 308 308 308 309 310 310 310 309 308 307 306 303 300 299 299 298 298 297 297 297 296 297 298 297 296 296 296 296 295 295 294 294 294 294 293 294 294 294 294 294 294 294 294 294 294 294
317 317 317 315 313 310 309 309 309 310 311 311 310 309 309 308 306 303 300 299 298 298 297 297 297 297 296 296 296 296 296 296 295 294 294 293 293 293 293 293 293 293 294 294 294 294 294 294 294 294 294 294
317 317 316 315 313 311 310 310 310 310 311 310 310 309 309 308 306 304 301 299 298 298 297 297 296 296 296 296 296 295 295 295 294 293 293 293 293 293 293 293 293 293 294 294 294 294 294 294 294 294 294 294
317 317 316 315 314 312 311 310 310 311 311 310 310 310 309 308 307 305 302 299 298 298 297 296 296 296 296 296 295 295 294 294 293 293 292 293 293 293 293 293 293 293 293 293 294 294 294 294 294 294 294 294
316 316 315 315 314 313 312 311 311 311 311 311 310 310 309 308 308 306 303 299 298 298 297 296 295 295 295 295 295 294 294 293 293 292 292 292 292 293 293 293 293 293 293 293 293 294 293 294 294 294 294 294
316 315 314 314 314 313 312 312 311 311 311 311 311 310 310 309 308 307 303 300 299 298 297 296 295 295 295 295 295 294 293 293 292 292 292 292 292 293 293 293 293 293 293 293 293 293 293 293 293 293 293 293
316 315 314 314 314 313 313 312 311 311 310 311 311 310 310 308 308 307 304 301 300 298 297 296 295 294 294 294 294 293 293 292 292 292 292 292 292 292 293 293 293 293 293 293 293 293 293 293 293 293 293 293
316 315 314 314 314 314 313 312 311 310 310 310 311 310 309 308 308 307 304 302 300 298 297 296 295 294 294 294 293 293 293 292 292 292 292 292 292 292 292 292 293 293 293 293 293 293 293 293 293 293 293 293
316 315 314 314 314 313 313 312 311 311 310 310 311 310 309 308 307 306 305 302 300 299 297 296 295 294 294 293 293 293 292 292 292 292 292 292 292 292 292 292 292 292 292 292 292 292 293 293 293 293 293 293
316 315 314 314 313 313 312 312 311 311 310 310 310 310 309 308 307 306 305 303 301 299 298 297 295 295 294 293 293 293 292 292 292 291 292 292 292 292 292 292 292 292 292 292 292 292 292 292 292 292 292 292
316 316 315 314 313 313 312 312 311 311 311 311 310 309 308 307 306 306 305 304 302 300 298 297 296 295 294 293 293 292 292 292 292 291 291 292 292 291 292 292 292 292 292 292 292 292 292 292 292 292 292 292
316 316 315 314 313 313 312 312 311 310 311 311 310 309 308 307 306 306 305 304 303 300 299 298 297 296 294 294 293 292 292 292 292 291 291 291 291 291 291 291 291 291 291 291 291 291 292 292 292 292 292 292
316 316 315 315 314 313 312 311 311 310 311 311 310 309 308 307 306 306 305 304 303 301 300 298 297 296 295 294 293 293 292 292 292 291 291 291 291 291 291 291 291 291 291 291 291 291 291 291 291 291 292 292
316 316 315 315 314 313 313 312 311 310 310 311 310 309 308 307 307 306 305 305 304 302 300 299 298 297 296 295 294 293 292 292 292 292 291 291 291 291 291 291 291 291 291 291 291 291 291 291 291 291 291 291
315 316 315 315 314 314 314 312 311 311 311 311 310 309 308 308 307 306 305 305 304 303 301 300 299 298 297 296 295 294 293 292 292 292 291 291 291 291 291 291 291 291 291 291 291 291 291 291 291 291 291 291
315 315 315 314 314 314 314 313 312 311 311 311 310 309 308 308 308 307 306 305 304 303 302 301 300 299 298 297 296 295 294 293 293 292 292 291 291 291 291 291 291 291 291 291 291 291 291 291 291 291 291 291
314 314 314 314 314 314 314 313 312 312 311 311 311 310 309 308 308 307 306 305 304 303 302 301 300 300 299 298 297 296 295 294 293 292 292 291 291 291 291 290 290 290 290 291 291 291 291 291 291 291 291 291
313 314 314 314 314 313 313 312 312 311 311 311 311 310 309 309 308 307 307 305 304 304 303 302 301 300 299 299 298 297 296 295 294 293 292 292 291 291 291 290 290 290 290 290 291 291 291 291 291 291 291 291
312 313 313 313 313 313 313 312 312 311 311 311 310 310 309 309 308 308 307 306 305 304 303 302 302 301 300 299 299 298 297 296 295 294 293 293 292 291 291 290 290 290 290 290 290 290 290 290 291 291 291 291
312 312 312 313 312 312 312 312 312 311 311 311 310 310 310 309 309 308 307 306 305 304 303 303 302 301 301 300 300 299 298 297 296 295 294 293 293 292 291 291 290 290 289 289 290 290 290 290 290 290 290 291
311 311 311 311 311 311 312 312 312 311 311 311 310 310 309 309 309 308 307 306 305 304 304 303 303 302 301 301 300 300 299 298 297 296 295 294 293 293 292 291 290 290 289 289 289 289 289 289 290 290 290 290
311 311 311 311 310 310 311 311 312 311 311 311 311 310 310 310 309 309 308 306 305 304 304 303 303 303 302 301 301 300 300 299 298 297 296 295 294 294 293 292 291 290 289 289 289 289 288 288 289 289 290 290
311 311 311 310 310 310 310 310 311 311 310 310 310 310 310 309 309 309 308 307 305 305 304 304 304 303 303 302 301 301 300 299 299 298 298 297 296 295 294 293 292 291 290 289 289 288 288 288 287 288 290 290
310 310 310 309 309 308 309 309 309 310 310 310 310 310 310 309 309 308 308 307 306 305 305 304 304 303 303 302 302 301 300 300 299 299 298 297 296 296 295 294 293 292 291 290 289 288 288 287 287 288 290 290
309 309 309 308 308 308 308 308 308 309 309 309 309 309 309 308 308 308 308 307 306 304 304 304 304 303 303 303 302 301 301 300 299 299 298 298 297 296 296 295 294 293 292 291 290 289 288 288 288 288 289 289
308 308 308 308 308 308 307 307 307 307 307 308 308 308 308 308 308 308 308 307 305 304 304 304 303 303 303 303 302 302 301 300 300 299 299 298 297 297 296 295 294 294 293 292 291 290 289 288 288 288 288 289

ECMWFFLT2_850_thetae_126.txt.gz
Theta_e
322 322 321 321 320 320 318 317 316 315 315 313 310 309 308 307 307 305 304 307 309 308 307 306 307 307 307 307 307 307 307 307 306 306 304 301 298 297 296 296 297 297 297 297 297 297 297 297 297 297 297 298
322 321 320 320 319 319 318 317 316 315 315 312 310 309 309 308 307 304 303 304 307 307 305 304 305 306 306 307 306 306 306 305 304 303 301 298 297 296 296 296 296 297 297 297 297 297 297 297 297 297 297 297
320 320 320 319 319 318 317 316 316 315 314 310 310 310 310 309 308 305 303 302 304 305 302 301 303 304 305 306 305 304 305 304 303 301 299 297 297 296 296 297 297 297 297 297 297 297 297 297 297 297 297 297
319 319 319 318 318 318 317 316 316 315 312 309 309 310 310 309 308 306 304 302 302 302 300 299 299 301 303 305 304 303 303 303 301 299 297 297 297 297 297 297 297 297 297 297 298 297 298 297 298 297 297 297
319 318 318 317 317 317 317 316 315 313 310 309 310 310 310 310 309 307 304 301 300 300 299 298 298 298 301 303 303 302 302 302 300 297 297 297 297 297 297 297 297 297 297 297 297 297 297 297 297 296 297 296
319 318 318 317 317 317 316 315 314 312 310 310 310 310 310 309 308 307 304 301 299 299 298 298 298 297 299 301 301 300 299 299 298 297 296 296 296 296 295 295 295 295 295 295 295 294 294 294 294 294 294 294
319 319 319 318 317 317 316 315 313 312 311 310 310 310 310 309 308 307 305 302 299 298 298 297 297 297 297 299 298 297 297 297 297 296 296 295 294 294 293 293 293 293 293 293 293 293 293 293 293 293 293 293
319 319 318 318 318 317 316 315 313 312 310 310 310 310 309 309 309 308 307 303 300 298 298 297 297 297 297 297 296 296 296 296 296 295 294 293 293 293 293 293 293 293 293 293 293 293 293 293 293 293 293 293
319 319 318 318 317 317 317 315 314 312 310 310 310 309 309 309 309 308 307 305 301 299 298 297 296 296 296 296 296 296 295 295 295 294 293 293 292 293 293 293 293 293 293 293 293 293 293 293 293 293 293 293
320 319 318 318 317 317 316 316 314 312 310 310 309 309 309 309 309 309 308 306 302 299 298 297 296 296 296 296 296 295 295 295 294 293 292 292 292 292 293 293 293 293 293 293 293 293 293 293 293 293 293 293
319 319 318 318 317 317 316 315 314 312 310 310 310 309 310 310 310 309 308 307 304 300 298 297 296 296 295 296 296 295 295 294 293 292 292 292 292 292 293 293 293 293 293 293 293 293 293 293 293 293 293 293
319 319 318 318 317 316 316 315 314 312 311 310 310 310 310 310 310 308 308 307 304 300 299 298 296 295 295 295 295 295 294 293 293 292 292 292 292 292 292 293 293 293 293 293 293 293 293 293 293 293 293 293
319 318 318 318 317 316 316 315 314 313 312 311 310 310 310 310 310 309 308 307 305 301 299 298 296 295 295 294 295 294 294 293 292 292 292 292 292 292 292 292 293 293 293 293 293 293 293 293 293 293 293 293
318 318 318 317 317 317 316 315 314 313 312 312 311 310 310 310 309 309 308 307 305 302 300 298 297 295 295 294 294 294 294 293 292 292 292 292 292 292 292 292 292 293 293 293 293 293 293 293 293 293 293 293
318 318 318 317 317 316 316 315 314 314 312 312 311 311 310 310 309 309 308 307 305 303 300 298 297 296 295 294 294 293 293 293 292 292 292 292 292 292 292 292 292 292 293 293 293 292 293 293 293 293 292 292
318 318 317 317 317 316 316 315 314 314 313 312 312 311 310 310 310 309 308 307 305 304 302 299 298 296 295 294 293 293 293 293 292 292 292 292 292 292 292 292 292 292 292 292 292 292 292 292 292 292 292 292
317 317 317 317 317 316 316 315 314 314 313 312 312 311 310 310 310 309 308 307 306 305 304 300 298 297 296 295 294 293 293 292 292 292 292 292 292 292 292 292 292 292 292 292 292 292 292 292 292 292 292 292
317 317 317 317 317 316 316 315 314 314 313 313 312 311 310 310 310 309 308 307 306 305 305 302 299 298 297 296 295 294 293 292 292 292 292 291 291 292 291 292 292 292 292 292 292 292 292 292 292 292 292 292
317 317 317 317 317 316 316 316 315 314 314 313 312 311 311 310 310 310 308 307 306 305 305 303 301 299 298 296 295 294 293 293 292 292 292 291 291 291 291 291 291 291 291 291 291 291 291 291 291 292 292 292
317 317 317 317 316 316 316 316 315 315 314 313 312 311 311 310 310 310 309 307 306 306 305 304 302 300 299 297 296 295 294 293 293 292 292 291 291 291 291 291 291 291 291 291 291 291 291 291 291 291 291 291
317 317 317 317 316 316 316 315 316 315 314 313 313 312 311 310 310 310 309 307 307 306 306 305 303 302 300 298 297 296 295 294 293 293 292 292 291 291 291 291 291 290 291 291 291 291 291 291 291 291 291 291
317 317 317 317 316 316 316 315 315 315 314 314 313 312 311 310 310 310 309 307 307 307 306 305 304 303 301 300 299 298 296 295 294 293 293 292 292 291 291 291 290 290 290 290 290 290 290 291 291 291 291 291
315 316 316 316 315 315 315 315 315 315 314 313 313 313 312 311 310 310 309 308 307 307 307 305 305 303 302 301 300 299 298 297 296 294 294 293 292 292 291 291 290 290 290 290 290 290 290 290 290 290 290 291
314 315 315 315 315 314 314 314 315 314 313 313 313 312 312 311 311 310 310 309 307 307 307 306 305 304 303 301 300 300 299 298 297 296 295 294 293 292 292 291 291 290 290 290 290 290 290 290 290 290 290 290
312 313 314 314 314 314 314 314 314 314 313 313 313 313 312 311 311 310 310 310 308 307 307 306 305 304 303 302 301 301 300 299 299 298 297 295 294 293 293 292 291 291 290 289 289 289 290 290 290 290 290 290
312 312 313 313 313 313 314 314 314 314 314 313 313 313 312 311 310 310 309 309 309 308 307 307 306 305 304 303 302 302 301 300 300 299 298 297 295 294 293 293 292 291 290 290 289 289 288 289 289 289 290 290
312 312 312 312 312 312 312 313 313 314 314 313 312 312 311 310 310 310 309 308 308 308 306 306 307 306 305 304 303 303 302 301 300 299 299 298 297 296 294 294 293 292 291 290 289 288 288 288 289 289 289 290
311 311 311 311 311 312 312 312 312 313 313 312 312 311 311 310 310 310 309 309 309 308 306 306 307 307 305 304 304 303 303 302 301 300 300 299 298 297 296 295 294 293 292 291 289 288 288 288 289 289 290 290
310 310 310 310 311 310 310 310 310 310 311 311 311 311 311 310 309 309 309 309 308 308 307 307 307 307 306 305 304 304 303 303 302 301 301 300 299 299 298 297 296 295 294 292 291 290 288 288 289 290 290 290
308 309 309 309 310 309 309 309 309 309 310 310 310 310 310 310 309 309 309 309 308 307 307 307 308 307 306 305 305 304 304 303 303 302 301 301 300 299 299 298 297 296 296 294 293 292 290 289 289 290 290 290
307 307 308 308 308 309 309 308 309 309 309 309 309 309 309 309 309 309 309 308 308 308 307 307 308 306 305 305 305 304 304 303 303 303 302 302 301 300 299 298 297 297 297 295 294 293 292 291 290 290 289 289

ECMWFFLT2_850_thetae_129.txt.gz
Theta_e
325 323 321 320 321 321 320 320 318 317 317 316 314 313 313 313 311 309 310 310 309 308 308 308 309 309 309 309 309 309 309 308 308 307 306 304 300 298 297 297 298 298 299 299 300 301 301 300 298 298 300 304
324 323 322 322 322 321 320 318 316 317 317 315 313 312 312 312 310 308 307 309 308 307 306 307 307 308 308 308 308 308 308 307 307 306 305 301 297 297 297 297 297 297 298 298 298 299 298 297 297 298 299 301
323 323 322 321 321 321 319 318 317 317 316 315 313 312 312 311 310 308 306 306 307 306 304 303 304 306 307 307 308 307 307 306 305 305 303 298 296 297 296 296 297 297 297 297 297 297 297 297 297 298 298 299
324 323 321 320 321 321 319 318 318 317 316 315 314 313 313 311 310 309 307 306 307 306 303 301 301 303 306 306 306 306 306 305 304 304 302 298 296 297 296 296 296 296 297 296 297 296 297 296 297 298 297 299
323 322 321 320 320 320 319 318 317 317 316 315 315 314 312 312 311 310 309 307 307 305 302 301 300 300 303 305 305 305 305 304 304 303 300 297 297 297 296 296 296 296 297 296 296 296 296 296 297 297 297 300
322 322 321 320 320 319 318 318 317 316 316 315 315 313 312 312 312 311 309 307 305 303 301 300 299 299 301 304 304 304 304 303 303 302 298 297 297 297 297 297 297 297 297 297 297 297 297 297 297 297 297 300
321 321 320 319 319 318 318 317 317 316 316 315 314 313 312 312 312 310 309 307 303 301 301 300 299 298 299 302 302 302 302 302 302 299 297 297 297 296 296 296 297 297 297 297 297 296 297 297 297 296 297 299
320 320 319 319 318 318 317 317 316 316 315 315 314 312 312 312 312 310 309 307 303 301 300 299 298 298 298 299 299 298 298 299 298 297 297 297 296 295 295 295 295 295 295 295 295 295 295 295 295 295 295 297
320 319 319 318 317 317 317 317 317 315 314 315 314 312 311 312 311 310 309 307 304 301 299 299 298 297 297 298 298 297 296 296 296 296 296 295 295 294 293 293 293 293 293 293 293 293 293 293 293 294 294 295
320 318 318 318 317 316 316 317 316 314 314 315 314 312 311 311 311 310 309 309 305 302 300 299 298 297 297 297 297 296 296 296 296 296 295 294 293 293 293 293 293 293 293 293 293 293 293 293 292 292 293 293
319 318 318 317 316 316 316 316 316 315 314 314 314 312 311 311 311 310 310 309 307 305 301 298 297 297 297 296 296 296 296 296 295 295 294 293 293 292 292 292 292 293 293 293 293 293 293 293 293 292 292 292
319 319 319 318 317 316 316 316 317 317 315 315 314 312 311 311 311 311 311 310 308 306 302 299 297 297 296 296 296 295 295 295 295 294 293 292 292 292 292 292 292 292 292 293 293 293 293 293 293 293 292 292
319 319 319 318 317 317 316 317 316 316 316 315 314 312 311 311 311 311 310 310 309 307 304 300 298 297 296 296 295 296 295 295 295 294 293 292 292 292 292 292 292 292 292 293 293 293 293 293 292 293 292 292
319 319 319 318 317 317 317 317 316 316 316 316 314 312 311 311 311 311 310 310 309 307 305 302 299 298 296 296 295 295 295 295 294 294 293 292 292 292 292 292 292 292 292 292 293 293 293 293 293 292 292 292
320 320 319 319 318 318 318 317 315 315 316 316 315 313 312 311 311 311 310 310 309 308 306 304 300 298 297 296 295 295 295 295 294 293 293 292 292 292 292 292 292 292 292 292 292 293 293 293 293 293 292 292
320 320 319 319 319 319 318 318 316 316 316 316 315 314 312 311 311 311 310 310 309 308 307 305 302 299 298 296 295 294 294 294 294 293 292 292 292 292 292 292 292 292 292 292 292 292 293 292 292 293 292 292
320 320 319 319 319 319 318 318 318 317 317 316 315 314 312 312 311 311 310 310 309 308 308 306 304 301 299 297 296 294 294 294 294 293 292 292 292 292 292 292 292 292 292 292 292 292 292 292 292 292 292 292
319 319 319 319 319 319 319 318 318 318 317 316 315 314 313 312 312 311 310 310 309 308 308 306 305 303 300 298 296 295 294 293 293 293 293 292 292 292 292 292 292 292 292 292 292 292 292 292 292 292 292 292
319 319 319 319 319 319 319 318 318 317 317 316 316 315 314 313 313 312 311 310 309 309 308 306 306 305 301 298 297 296 294 293 293 293 292 292 292 292 291 292 291 291 292 292 292 292 292 292 292 292 292 292
318 319 318 318 318 318 317 317 317 316 316 316 316 315 314 313 313 312 311 310 310 309 309 307 306 305 303 300 298 296 295 294 293 293 292 292 292 291 291 291 291 291 291 292 292 292 292 292 292 291 292 292
317 318 318 318 317 316 316 316 316 316 315 315 315 314 314 314 313 313 312 311 310 309 308 308 306 306 304 302 299 297 296 294 293 293 292 292 292 291 291 291 291 291 291 291 291 291 291 291 291 291 291 291
315 316 317 317 317 316 316 315 316 316 315 315 314 313 313 314 313 313 312 311 310 308 308 308 307 306 305 304 301 298 297 296 294 294 293 292 292 292 291 291 291 291 291 291 291 291 291 291 291 291 291 291
314 313 315 317 317 316 316 315 315 315 315 314 314 314 313 313 313 313 312 312 311 309 307 306 306 306 306 305 302 300 299 297 296 295 294 293 292 292 291 291 291 291 291 291 291 291 291 291 291 291 291 291
312 313 315 316 317 316 315 315 315 315 314 314 314 314 312 311 312 312 312 312 311 310 307 306 305 306 306 306 304 302 300 299 298 297 295 294 293 293 292 291 291 291 291 291 290 290 290 291 291 291 291 291
313 313 314 316 316 316 316 315 314 313 314 314 314 313 312 312 311 311 312 312 312 311 309 307 305 305 306 306 305 304 302 301 300 299 297 296 295 294 293 292 292 291 291 290 290 290 290 290 290 290 290 290
312 312 313 314 314 314 315 315 314 313 313 313 313 312 312 312 311 310 311 311 311 311 309 308 307 306 306 306 306 305 304 302 301 300 299 297 296 295 294 293 293 292 291 291 290 290 290 290 290 290 290 290
312 311 312 312 311 311 312 312 313 313 312 312 312 311 310 311 310 310 311 310 310 311 310 308 307 306 305 305 305 305 305 304 302 302 301 299 298 297 296 294 293 293 292 291 291 290 289 289 289 289 290 290
310 310 311 310 310 310 311 311 311 311 311 310 311 311 310 310 310 310 310 310 309 309 310 309 308 307 305 304 304 304 305 304 304 303 303 302 300 299 298 296 295 295 293 292 291 289 289 289 289 290 290 291
307 308 309 309 310 310 311 311 310 310 311 311 310 310 310 310 310 310 310 309 308 308 310 310 308 307 306 305 304 303 304 304 304 304 304 303 302 301 299 298 297 297 296 294 292 290 289 290 290 291 291 291
305 306 307 308 309 309 309 310 310 310 311 311 311 310 310 310 310 311 310 309 308 308 309 309 309 307 306 305 304 303 303 304 304 303 303 303 303 302 301 300 299 298 298 297 294 292 291 290 290 291 291 291
303 305 305 306 307 308 308 309 309 309 310 310 310 309 309 310 310 310 310 309 308 308 307 308 308 307 306 305 304 303 302 303 304 304 304 304 303 303 302 301 299 298 299 299 297 295 294 292 291 291 291 291

ECMWFFLT2_850_thetae_132.txt.gz
Theta_e
326 325 323 323 320 317 316 318 317 317 318 316 315 314 313 312 312 312 311 310 310 310 310 310 310 310 311 310 311 310 309 309 308 307 307 307 307 307 304 300 301 302 303 304 304 304 304 302 299 303 308 311
326 324 323 322 319 317 316 317 317 318 317 315 315 313 312 313 312 312 311 311 310 309 307 306 308 309 310 310 310 309 309 309 308 306 306 304 303 302 300 301 302 302 302 303 303 303 303 300 299 303 306 309
326 325 324 322 319 318 317 317 319 318 316 315 315 313 312 312 312 312 311 311 310 310 308 304 305 307 309 309 309 309 308 308 307 305 304 302 299 298 299 300 301 301 301 301 302 302 301 299 299 302 304 308
326 325 324 322 321 320 318 319 319 316 315 316 315 313 312 312 311 311 311 311 310 310 308 305 304 306 308 308 308 307 307 306 306 305 303 300 298 298 298 298 299 299 300 300 300 300 299 297 299 301 302 308
326 324 323 322 321 321 320 320 318 315 316 316 315 313 312 311 311 310 311 311 310 309 307 305 304 305 306 307 307 306 305 305 304 304 302 299 298 297 297 297 297 297 298 298 298 298 297 297 299 299 301 307
325 324 323 322 322 321 321 321 319 317 317 316 315 314 312 311 311 311 311 311 310 310 307 305 304 304 304 304 305 305 304 304 304 303 301 298 298 297 298 297 297 297 297 297 297 297 297 297 298 298 300 306
325 324 323 322 322 321 320 320 320 319 317 317 315 314 312 311 312 312 312 311 310 310 309 307 306 304 302 303 303 303 302 302 303 302 300 299 298 298 298 298 297 297 296 297 296 296 297 297 297 297 299 305
324 323 322 321 321 320 320 319 319 318 317 316 315 314 313 312 312 312 312 311 310 309 309 308 307 304 304 303 303 303 302 301 301 301 300 300 299 298 298 298 297 297 297 297 297 297 297 297 297 297 299 304
324 322 321 321 321 320 319 319 318 317 317 316 315 314 312 312 312 312 312 311 310 309 309 307 306 305 305 306 305 304 303 301 300 299 300 299 299 299 298 298 298 298 298 297 297 297 297 297 297 297 298 301
324 322 321 321 321 320 319 318 318 317 317 316 315 313 312 312 313 312 311 311 311 310 309 307 306 305 305 305 304 303 302 301 299 299 299 299 299 298 298 298 298 298 298 297 297 297 297 297 297 297 297 298
324 322 321 321 320 320 319 319 318 317 316 316 314 312 312 312 313 313 312 312 312 311 311 310 308 306 304 303 302 300 299 299 298 298 298 298 298 298 297 297 297 297 296 296 296 296 296 296 296 296 296 297
323 322 321 320 319 319 319 319 318 317 316 316 314 312 311 312 312 313 312 312 312 312 311 311 309 306 304 302 300 299 298 297 297 297 297 297 297 296 295 295 295 295 294 294 294 294 293 294 294 294 295 295
322 322 321 320 319 319 318 318 318 317 317 316 314 313 311 311 312 312 312 312 312 312 311 310 309 306 304 301 299 298 297 297 297 297 296 296 295 294 294 293 293 293 293 293 293 293 293 293 293 293 293 293
321 321 320 319 319 319 318 318 317 317 317 316 315 313 312 311 311 312 312 312 312 312 311 310 309 306 303 300 299 298 298 297 296 296 296 295 294 293 293 293 293 293 293 293 293 293 293 293 292 293 293 292
321 321 320 319 318 318 318 317 316 316 317 316 315 314 313 311 310 312 312 312 312 311 311 310 309 307 304 301 299 298 298 297 296 296 296 295 294 293 292 292 292 292 293 293 293 293 292 293 292 293 292 292
320 321 320 319 318 318 318 317 317 316 316 316 316 315 314 312 311 312 313 312 312 311 310 310 309 308 306 303 300 298 298 296 295 296 295 295 294 292 292 292 292 292 292 293 293 292 292 293 292 293 292 292
319 321 320 318 318 318 318 318 317 317 316 316 316 315 314 313 312 312 312 312 312 311 310 310 309 309 307 305 302 299 297 296 295 295 295 295 293 292 292 292 292 292 292 292 292 292 292 292 292 292 292 292
319 320 319 318 318 318 318 318 318 317 316 316 316 315 314 313 313 313 312 312 312 311 310 310 309 309 308 306 303 300 297 296 295 295 295 294 294 292 292 292 292 292 292 292 292 292 292 292 292 292 292 292
318 319 319 318 318 318 317 317 318 317 317 317 316 315 315 314 313 313 313 312 312 311 310 310 309 309 308 307 305 302 299 297 295 294 294 294 293 292 292 292 292 291 292 292 292 292 292 292 292 292 292 292
315 317 318 318 318 317 316 316 317 317 317 316 316 315 314 313 311 311 313 313 312 312 310 310 310 309 309 307 306 304 301 298 296 295 294 294 293 293 292 292 292 291 291 291 291 291 291 292 292 292 292 292
314 314 317 317 318 317 315 315 316 316 315 315 315 314 313 312 311 310 312 312 312 312 311 310 310 310 309 308 307 305 302 299 296 295 295 294 293 293 292 292 292 291 291 291 291 291 291 292 292 291 292 292
314 314 316 316 316 316 315 314 315 314 314 314 315 314 313 312 312 311 312 312 312 312 311 310 310 309 309 308 307 306 304 301 298 296 295 294 293 293 292 292 292 291 291 291 291 291 291 292 292 291 292 292
315 315 315 315 315 315 314 314 314 313 313 313 313 314 314 312 312 312 312 312 312 312 311 310 310 310 309 308 307 306 304 302 299 298 296 295 293 292 292 292 292 291 291 291 291 291 291 291 291 291 291 292
315 315 315 315 315 314 312 311 312 313 313 313 313 313 313 311 311 312 311 311 311 311 311 311 310 309 309 308 307 306 305 304 302 300 298 296 294 293 292 292 292 291 291 291 291 291 291 291 291 291 291 291
313 313 314 314 314 313 311 309 310 313 313 313 313 312 312 311 311 311 310 310 310 310 310 310 310 309 309 308 307 306 306 305 304 303 300 298 296 294 293 292 292 291 291 291 291 290 290 290 290 290 290 291
310 310 312 313 313 312 311 309 308 310 312 313 313 313 313 312 311 310 310 310 309 309 309 309 308 308 309 309 308 307 306 305 304 303 302 300 298 296 294 293 292 292 291 291 291 291 290 290 289 289 290 290
307 308 309 310 311 311 311 311 309 309 311 313 312 312 312 311 310 310 310 309 309 309 309 308 307 307 308 309 308 307 305 304 303 302 302 301 300 298 296 294 293 293 292 292 292 291 290 289 289 289 289 289
305 306 307 308 309 309 310 310 310 310 311 311 311 310 311 311 310 310 310 309 309 308 308 308 307 306 306 308 309 308 306 304 303 302 302 301 300 300 299 297 295 295 294 293 292 291 290 290 289 289 289 290
303 305 305 306 307 308 308 308 308 309 310 310 309 310 310 310 310 310 309 309 308 308 308 308 308 307 306 307 308 308 306 304 304 303 303 301 300 300 300 300 299 297 295 294 293 292 291 290 289 289 290 291
300 302 302 304 305 305 305 305 305 305 307 308 309 309 309 309 309 309 309 309 308 308 307 307 307 307 307 307 307 307 305 304 304 304 303 302 301 300 301 301 300 299 297 296 295 294 293 291 291 290 290 291
297 298 299 300 301 301 301 302 303 303 303 304 306 307 308 308 308 309 308 308 308 308 307 307 307 306 306 306 306 306 304 302 302 304 304 303 302 301 300 300 300 300 300 298 296 295 294 293 292 291 291 290

ECMWFFLT2_850_thetae_135.txt.gz
Theta_e
329 328 327 325 322 321 320 319 319 318 316 318 316 314 313 312 311 311 310 309 309 310 309 307 310 312 310 310 310 309 309 310 310 310 311 311 311 310 305 303 304 307 308 308 309 308 304 306 311 311 311 312
328 327 327 325 323 322 321 319 319 317 316 317 315 314 313 312 312 311 311 310 309 309 308 307 309 311 311 310 309 309 308 308 308 307 308 308 308 306 302 302 305 307 309 309 309 307 303 303 309 311 311 311
328 327 326 326 324 322 320 319 319 317 317 316 315 314 313 313 312 311 312 311 310 310 309 308 307 308 310 310 308 309 307 306 306 305 305 304 304 302 301 301 303 306 308 309 308 307 303 301 307 310 310 309
326 326 326 326 324 322 320 319 317 316 317 315 314 314 313 313 312 312 311 311 311 311 311 310 308 308 310 309 308 308 307 306 305 303 303 303 302 301 301 301 301 303 305 306 306 306 302 299 305 309 309 308
325 325 326 325 324 321 319 318 317 317 317 315 314 314 314 313 312 312 311 311 311 311 311 310 310 309 310 309 308 307 307 306 305 304 303 302 301 300 301 300 301 301 301 302 302 303 301 298 304 308 308 308
326 325 325 325 323 320 318 318 318 318 317 315 314 314 314 313 312 312 311 310 310 310 310 309 309 309 309 308 307 307 306 306 306 305 303 301 301 300 300 300 300 300 300 300 300 301 300 298 303 307 307 308
326 325 325 324 322 320 319 319 319 318 317 314 314 315 315 314 313 313 312 311 310 310 310 309 309 309 309 308 307 307 306 306 306 304 303 302 301 301 300 300 300 300 300 300 299 299 299 297 301 305 305 307
325 325 325 324 323 321 320 320 319 319 316 314 315 316 316 315 314 314 312 310 310 311 310 309 309 309 309 308 307 307 306 306 306 305 304 302 302 301 300 300 300 300 300 300 299 299 298 297 299 301 302 304
325 325 325 324 323 322 321 320 319 318 316 315 316 316 316 315 314 314 312 310 310 310 310 310 309 309 309 309 308 307 307 307 306 305 305 303 302 301 300 300 299 299 299 299 299 298 298 298 298 298 300 301
324 325 325 324 322 321 320 320 319 318 316 316 316 315 315 314 314 312 311 310 309 308 309 309 309 309 310 310 309 309 308 308 306 306 305 303 302 301 300 300 299 299 299 299 299 298 297 298 298 298 299 300
324 324 325 324 321 320 319 320 320 319 317 316 316 315 315 314 313 312 311 310 309 308 307 308 309 309 309 309 309 309 309 309 308 306 305 303 301 300 300 300 299 299 299 299 299 299 298 298 298 297 297 299
323 323 324 323 321 320 320 319 319 318 316 316 316 316 315 314 313 312 312 311 309 308 308 308 308 308 308 309 309 309 308 308 306 305 303 302 301 300 299 299 299 300 300 300 300 300 299 299 298 298 297 298
321 322 323 323 321 320 320 319 319 318 316 317 317 316 316 315 314 313 313 312 310 310 310 310 309 309 309 309 308 308 307 306 304 303 302 301 299 299 298 298 299 299 299 299 299 299 299 298 298 298 297 297
318 320 322 322 322 321 320 319 319 318 317 318 317 317 316 316 315 315 314 313 311 311 311 312 311 311 310 310 309 308 306 304 303 302 301 299 298 298 298 298 298 298 298 298 298 298 297 297 297 297 297 297
316 318 320 321 321 321 320 319 319 318 318 318 317 316 316 315 315 315 315 314 312 311 311 312 312 312 311 310 310 308 305 303 302 300 299 299 298 297 297 297 297 297 297 297 296 296 295 295 295 295 296 296
315 315 318 320 320 320 320 319 318 318 318 318 316 315 315 315 315 315 315 314 313 312 311 311 312 311 311 310 309 306 303 302 301 299 298 298 297 297 297 296 296 296 295 295 294 294 294 293 294 293 294 294
315 314 315 318 319 320 319 318 318 317 317 317 316 316 315 315 315 315 316 315 313 312 312 311 312 311 310 310 308 306 303 301 300 298 297 297 297 296 296 296 295 295 294 294 293 293 293 293 293 293 293 293
315 314 313 314 317 319 319 318 318 318 317 316 316 316 316 315 316 315 315 314 313 312 311 312 312 311 311 310 308 306 304 302 300 299 298 297 297 296 296 295 294 294 293 293 293 293 293 293 293 293 292 293
316 315 314 313 313 315 318 319 318 317 317 317 316 316 315 315 315 315 315 314 313 311 311 311 311 311 310 310 309 307 306 303 301 300 298 297 297 296 296 295 294 293 293 292 293 292 293 292 293 292 292 292
317 316 315 314 312 312 314 317 318 317 317 316 316 315 315 315 314 314 314 314 313 312 311 311 311 311 310 310 309 308 307 305 303 301 299 298 297 296 296 295 294 293 292 292 292 292 292 292 292 292 292 292
316 317 316 315 314 312 311 314 316 317 316 315 315 314 314 314 314 313 313 313 312 312 311 311 311 311 310 310 309 309 308 306 304 302 300 299 297 296 295 295 294 293 292 292 292 292 292 292 292 292 292 292
315 316 316 316 315 315 313 312 314 316 316 314 314 313 313 313 313 313 312 311 311 311 310 310 311 311 310 309 309 309 308 307 305 302 300 298 297 296 295 295 294 294 293 292 292 292 292 292 292 292 292 292
314 315 314 314 314 315 315 314 314 315 315 314 313 313 313 312 312 311 311 310 309 309 310 309 310 310 309 308 309 309 308 307 305 303 299 297 296 296 295 294 294 294 293 292 292 292 291 292 291 292 292 292
312 313 312 312 312 312 313 313 314 314 314 313 312 312 312 312 311 311 310 309 309 309 308 308 308 309 308 306 307 308 308 307 306 305 301 298 297 296 295 294 293 293 293 292 291 291 291 291 291 291 291 291
309 309 309 309 310 310 309 310 312 313 313 312 310 310 310 311 312 312 311 310 309 308 308 307 307 308 308 306 305 307 308 308 307 306 303 300 297 296 295 294 293 292 292 292 291 291 291 291 291 290 291 291
306 306 305 306 306 307 308 309 309 309 310 311 311 311 310 310 311 311 311 309 309 308 308 307 307 307 308 308 306 305 305 305 306 306 304 302 298 296 295 295 294 293 292 292 291 292 291 290 290 290 290 291
303 303 303 303 303 304 305 307 307 307 308 308 309 310 310 310 311 311 310 309 308 308 308 307 307 307 307 307 306 305 304 302 303 305 305 303 301 298 296 294 293 293 293 293 292 291 290 290 290 289 289 290
298 300 301 302 302 302 303 304 305 306 306 306 306 306 307 308 309 310 309 308 308 308 308 307 307 307 307 307 307 306 305 303 300 301 303 304 302 299 298 296 295 294 294 293 293 291 290 290 289 289 290 291
294 295 297 299 301 302 303 304 304 305 305 304 304 304 305 305 306 307 308 308 308 308 308 308 307 307 307 306 307 306 306 305 302 300 300 301 301 300 299 298 297 296 294 294 294 293 292 290 290 290 291 291
293 293 293 294 296 298 300 301 301 301 301 301 301 301 302 303 304 304 305 305 306 306 306 307 307 307 307 306 306 306 306 306 304 303 301 300 299 299 299 298 297 297 296 295 293 293 293 292 292 292 292 291
291 292 292 292 292 292 294 295 296 297 297 298 299 299 300 301 302 302 302 303 303 304 304 305 305 305 306 305 305 305 305 305 304 304 304 303 300 298 297 297 296 296 297 296 294 293 293 293 292 292 292 291

ECMWFFLT2_850_thetae_138.txt.gz
Theta_e
327 330 331 329 327 327 325 324 324 323 322 320 320 319 318 315 314 313 312 310 308 307 307 308 309 309 309 308 308 310 313 314 313 311 311 312 312 312 311 311 312 313 313 314 314 314 313 312 312 312 312 311
327 328 328 327 326 325 324 323 323 322 321 321 320 319 317 316 314 313 312 310 308 307 306 306 307 307 307 308 309 309 311 312 312 311 311 310 310 309 309 311 310 310 311 313 313 313 312 312 311 311 312 311
327 327 327 327 325 323 322 322 321 320 320 320 319 318 316 315 315 313 312 311 309 308 307 307 307 306 307 307 308 308 308 310 309 308 308 307 308 307 307 310 309 308 308 309 310 309 309 310 310 310 310 311
327 326 326 326 325 323 322 322 321 321 319 318 318 317 316 314 314 313 313 312 311 310 309 309 309 308 309 309 308 308 307 307 306 304 304 304 306 305 306 307 307 306 306 308 308 306 305 306 307 308 308 309
325 326 325 324 324 322 322 322 322 321 319 318 317 316 315 314 314 313 312 312 311 311 310 309 310 310 310 310 309 309 309 307 306 304 303 303 303 303 303 304 304 305 306 307 307 305 303 302 303 305 306 308
325 326 325 323 323 322 322 322 321 320 318 318 316 314 314 314 313 313 312 312 311 310 310 310 310 310 310 310 310 309 309 308 306 305 304 303 302 302 301 302 302 303 304 304 306 305 302 300 301 302 304 306
325 325 325 324 323 322 322 321 320 319 318 317 315 314 314 313 313 313 313 312 311 310 310 309 310 310 310 310 310 309 308 308 307 306 305 303 302 302 301 301 301 301 302 302 304 304 302 300 300 301 302 303
324 325 325 325 324 323 323 321 320 319 318 317 315 314 314 313 313 313 312 311 310 310 309 309 309 310 310 310 310 309 308 308 308 307 305 303 302 302 302 301 301 301 301 301 301 301 301 300 299 300 301 302
321 324 325 324 324 323 322 321 320 319 318 317 315 314 314 313 313 313 312 311 309 309 308 308 309 309 309 309 309 309 310 309 308 309 307 304 303 303 302 301 301 300 300 300 300 299 299 299 299 299 301 302
318 321 323 324 324 322 321 321 320 320 319 318 315 314 314 313 313 312 311 310 309 308 308 308 308 309 309 309 309 309 310 310 309 309 308 306 306 304 303 302 301 301 300 300 300 299 299 299 299 299 300 302
317 318 320 322 323 322 321 320 320 320 319 318 316 315 314 314 314 313 311 310 309 308 307 307 308 308 308 308 309 309 310 310 310 310 309 309 309 307 305 303 302 301 301 300 300 299 299 299 299 299 300 301
317 316 316 319 321 322 321 320 320 320 319 318 317 316 315 316 316 314 312 311 310 309 308 307 308 308 308 308 308 309 309 309 310 310 310 310 310 309 308 306 304 302 301 301 300 299 299 299 298 298 299 299
318 316 315 316 319 322 321 321 321 320 319 319 318 317 316 316 316 316 314 314 313 312 310 309 308 308 308 308 307 307 308 307 308 309 309 310 310 310 310 309 307 305 303 301 301 300 299 299 298 299 299 299
318 317 315 314 316 319 320 321 320 319 319 319 318 316 316 317 317 316 315 315 315 314 313 311 309 308 307 307 307 306 306 306 306 306 306 307 308 308 308 309 308 307 305 302 301 301 300 300 299 299 299 300
319 318 317 315 313 316 319 321 320 319 319 319 318 316 316 317 316 315 315 316 316 315 315 313 310 308 307 307 306 306 305 305 305 304 303 303 304 304 304 304 305 305 304 303 301 300 300 300 299 299 299 299
319 318 317 316 313 313 316 319 319 318 318 318 317 316 316 316 316 315 315 316 316 315 315 315 312 310 308 308 307 306 306 305 304 303 301 299 300 300 300 300 301 301 301 301 300 300 300 299 299 298 298 299
319 319 318 317 314 312 315 318 319 318 318 318 317 316 316 316 316 315 316 315 315 315 315 315 314 312 311 311 310 309 308 307 305 302 300 299 298 297 298 298 298 298 298 298 299 299 299 299 299 298 298 298
318 318 318 317 315 313 313 315 317 318 318 318 317 316 316 316 316 316 315 314 314 314 314 314 314 313 312 312 311 310 309 308 306 302 300 299 298 297 297 297 297 297 297 297 297 297 298 298 298 297 297 297
316 316 317 318 317 315 313 313 315 317 317 317 316 316 315 315 315 315 315 314 313 312 312 313 313 313 312 312 311 310 309 308 306 303 300 299 298 297 297 296 296 296 296 296 295 295 296 296 296 296 295 296
314 314 316 316 316 316 315 314 313 315 316 316 316 316 315 314 314 314 314 314 313 312 311 311 312 312 312 311 311 310 308 307 307 305 302 299 298 297 297 296 296 296 295 295 294 294 294 294 294 294 294 294
312 313 313 313 314 315 315 315 314 314 315 316 316 315 314 314 314 313 312 312 312 312 311 310 309 310 310 310 309 309 308 308 307 306 303 300 298 297 296 296 296 296 295 294 293 293 293 293 293 293 293 293
310 311 310 311 311 312 312 313 313 314 314 314 314 315 314 313 314 313 312 311 311 311 311 310 308 308 308 308 308 307 307 307 307 305 303 300 298 297 296 295 296 296 295 294 293 293 293 293 293 293 293 293
308 309 309 309 309 310 310 311 311 312 312 311 312 312 313 312 313 313 312 312 310 309 309 309 308 307 307 307 306 306 306 306 305 305 304 301 299 297 296 295 295 295 295 294 292 292 292 292 292 292 293 292
307 309 309 308 309 309 308 308 309 309 309 310 310 310 310 310 311 311 312 312 311 310 309 309 308 307 306 306 306 306 305 306 306 306 305 304 301 298 296 295 295 294 294 293 292 292 292 292 292 291 292 292
300 303 304 305 306 306 305 305 307 307 308 308 308 308 309 309 309 309 310 311 311 311 310 309 309 308 307 306 306 306 306 307 307 307 306 304 302 299 297 296 295 294 293 293 292 291 291 291 291 291 291 291
294 295 296 297 297 299 301 303 305 305 305 305 306 306 307 308 308 308 308 308 309 310 310 310 309 308 308 307 306 306 306 306 306 306 305 304 301 299 298 296 295 294 294 293 292 292 291 290 290 290 291 291
290 291 292 293 293 294 296 299 302 303 303 303 303 304 305 305 306 306 306 306 307 307 308 308 308 308 307 307 306 305 306 306 306 304 304 304 302 300 298 295 294 294 294 294 292 291 291 290 290 290 290 290
287 288 290 291 292 292 293 294 297 299 301 302 302 303 303 303 303 304 304 304 305 305 305 306 306 306 306 306 306 306 306 306 306 305 303 304 303 300 298 295 294 293 293 293 293 291 290 290 289 289 290 291
287 287 288 289 291 292 293 294 294 296 298 298 299 300 301 302 302 301 302 302 303 303 303 304 304 305 305 305 305 306 306 306 306 305 305 304 304 303 301 297 294 293 293 292 293 292 291 290 289 290 292 292
286 287 287 288 289 290 290 291 292 293 293 293 293 294 296 298 300 300 300 301 301 301 302 302 302 302 303 303 304 304 304 304 305 305 305 305 304 304 304 301 296 294 293 292 292 291 292 292 292 292 292 291
286 286 286 286 286 287 287 287 288 289 289 290 291 291 291 293 295 297 299 300 300 300 301 301 301 301 301 301 302 302 302 302 303 303 303 303 303 302 302 302 300 297 294 292 293 292 291 292 292 292 292 292

ECMWFFLT2_850_thetae_141.txt.gz
Theta_e
325 325 325 326 326 328 329 330 328 325 322 320 320 319 317 319 320 319 319 318 318 318 317 315 315 313 313 315 318 319 319 318 317 317 316 315 316 316 317 316 316 316 316 316 317 317 317 317 317 315 313 311
325 325 325 325 326 328 328 326 324 322 321 320 321 320 319 320 320 319 317 316 316 316 316 315 314 313 312 311 312 314 315 315 316 316 314 314 315 315 316 316 315 315 315 315 316 316 316 316 315 312 311 309
323 324 325 326 327 327 325 325 324 323 322 321 321 321 320 320 319 318 316 316 315 314 314 314 313 314 313 310 309 309 309 311 313 314 313 313 313 313 315 315 314 315 314 315 315 315 314 313 312 311 310 309
323 324 326 327 327 326 325 324 325 323 322 321 321 321 320 319 318 317 317 316 315 314 313 312 311 311 310 309 309 307 306 306 308 310 310 311 310 310 313 314 314 314 314 315 314 314 313 312 311 310 309 308
323 324 325 325 326 326 325 324 323 323 322 321 320 320 318 317 316 316 316 315 314 313 311 309 308 307 308 308 308 308 307 305 305 305 306 308 307 307 311 313 313 313 313 314 314 314 313 312 311 310 309 307
321 324 324 324 324 325 325 324 323 321 321 320 320 319 316 315 315 315 315 314 313 312 310 308 307 307 308 308 310 310 308 306 305 305 304 305 305 306 309 312 312 312 312 312 312 312 312 310 309 309 309 308
318 321 323 324 324 324 324 323 322 321 320 320 319 318 316 315 315 314 314 313 312 311 309 308 308 309 309 310 311 310 308 307 307 307 305 303 303 304 307 309 310 310 310 310 310 309 309 308 306 306 308 308
317 318 320 324 324 323 323 322 322 321 321 320 318 317 315 314 314 313 313 312 311 310 309 309 309 310 310 311 312 310 307 307 306 307 306 303 303 303 305 306 307 308 308 308 307 307 306 305 304 304 307 307
318 317 318 321 323 323 322 321 321 321 320 319 318 316 314 314 313 313 313 312 311 310 309 309 310 311 311 311 311 310 308 307 307 307 306 305 304 303 303 303 304 304 304 305 306 306 306 304 302 302 304 305
319 318 317 317 320 322 321 321 321 321 321 319 318 317 315 314 314 313 313 312 311 310 310 310 310 311 311 311 311 310 308 307 307 307 306 305 304 304 303 302 302 302 302 303 303 304 305 303 302 300 301 302
319 319 318 317 316 318 320 321 321 321 321 320 319 317 315 315 314 314 313 313 312 310 310 309 310 310 311 312 311 310 309 307 307 307 305 304 304 304 303 302 302 302 301 301 302 302 302 302 301 299 300 301
319 319 319 318 316 315 317 320 321 321 321 321 320 318 316 314 314 314 314 314 313 312 311 310 310 310 311 311 310 310 309 308 307 307 305 303 303 304 303 303 302 302 301 301 301 301 301 301 300 299 299 300
317 319 320 319 317 315 314 316 318 320 320 320 319 318 316 314 314 314 314 314 313 313 312 310 310 309 310 310 310 309 309 308 307 307 306 304 303 303 303 303 302 302 302 301 301 301 301 300 300 299 299 300
316 317 320 319 319 317 314 314 317 319 320 320 320 318 317 315 315 314 314 314 313 313 313 311 310 310 310 310 310 309 309 308 307 306 306 305 304 305 303 303 303 302 302 301 301 301 301 300 300 299 299 299
316 317 319 320 319 318 315 314 316 318 320 320 319 318 318 317 316 315 314 313 313 313 313 313 312 310 309 310 310 309 309 308 307 306 306 305 305 305 304 304 305 304 303 302 301 301 301 300 300 300 300 299
315 316 317 318 319 318 317 314 314 316 318 318 318 318 317 317 315 314 314 313 312 312 313 314 313 312 310 310 310 309 309 308 307 306 306 305 304 304 304 304 304 304 303 302 301 301 301 301 300 301 301 301
312 314 315 316 317 317 317 315 313 314 316 317 318 317 316 316 315 314 314 313 313 313 314 314 313 312 311 310 310 309 308 307 307 306 306 305 304 303 303 302 303 302 302 301 300 300 300 300 300 301 301 301
310 312 313 314 314 315 316 316 314 314 315 317 317 317 316 315 315 314 314 313 313 313 313 314 314 313 311 310 309 308 308 307 306 306 305 305 303 302 301 301 301 301 301 300 300 299 299 299 300 300 300 300
308 310 311 311 313 313 314 315 315 315 315 315 316 316 315 315 315 315 314 313 312 312 313 314 314 314 313 311 310 308 307 306 306 306 305 304 302 300 300 299 299 299 299 299 299 299 298 298 298 299 299 299
306 307 309 309 310 310 311 312 313 314 314 314 313 313 313 313 313 314 313 313 312 312 312 312 313 313 313 312 310 308 306 306 306 305 305 304 302 300 298 298 298 298 298 298 298 298 298 298 297 298 298 298
302 304 305 306 307 308 308 309 310 310 312 313 312 311 311 311 311 311 312 312 312 311 311 311 312 312 311 311 309 308 307 305 305 305 304 303 302 300 298 297 297 296 296 296 296 296 296 296 296 297 297 297
298 299 301 302 303 304 305 307 307 307 308 309 310 310 310 310 310 310 310 310 310 311 311 311 310 311 310 309 309 308 307 305 305 305 304 303 302 300 299 298 297 296 295 295 295 294 294 294 294 295 295 295
294 296 298 299 299 301 303 304 305 305 304 305 306 307 308 309 309 309 309 309 309 309 309 310 310 310 310 310 309 308 307 306 304 304 304 303 302 301 299 298 297 297 296 295 294 294 293 292 292 292 292 293
291 292 294 295 296 297 299 300 301 302 302 303 303 303 304 305 307 307 308 308 308 308 308 308 309 309 310 309 309 308 307 306 305 304 304 303 302 302 300 299 298 297 296 295 294 293 292 291 291 291 291 291
288 289 289 290 291 292 293 295 297 299 301 301 302 301 301 302 304 304 305 306 306 307 306 307 307 307 308 308 308 308 308 307 306 305 304 303 302 302 301 300 299 298 297 295 293 293 292 291 291 291 291 291
286 287 287 287 288 288 289 290 292 294 296 298 299 300 300 301 301 302 302 303 304 305 305 305 305 305 306 307 307 308 308 307 307 306 305 303 302 302 301 301 300 300 300 297 293 292 291 291 291 290 290 290
286 286 286 286 287 287 287 288 288 290 291 293 296 297 298 299 300 301 301 301 301 302 303 303 304 304 304 305 305 306 306 306 306 306 305 304 303 302 301 301 301 301 301 299 296 293 291 290 290 290 290 290
285 285 286 286 286 286 287 287 287 288 289 290 291 292 294 295 296 297 298 299 300 300 301 301 302 302 303 303 303 304 304 305 305 305 305 305 304 303 302 302 302 301 301 301 298 295 291 290 289 290 290 291
284 285 285 286 286 286 286 287 287 288 288 288 288 289 289 291 292 293 294 296 298 299 300 300 300 300 300 300 300 301 302 303 303 304 304 304 303 303 303 302 302 302 302 302 300 297 294 291 289 289 290 291
284 284 285 285 285 286 286 286 286 286 286 286 286 287 287 288 289 290 291 292 294 296 298 299 299 299 299 299 299 299 299 300 301 302 302 302 302 302 302 302 302 302 303 302 301 299 297 294 291 290 290 290
284 284 284 284 284 284 285 285 285 285 284 284 284 285 285 286 287 288 289 290 291 293 295 296 298 298 298 298 298 298 298 298 298 299 299 300 301 301 301 300 300 301 301 301 300 300 299 297 294 292 291 290